GFSSW_250_spd_000.txt.gz
Wind_Speed
89 89 81 87 81 76 72 68 62 56 54 55 52 50 48 51 46 45 45 45 49 52 53 52 51 50 49 52 53 59 58 68 77 79 79 72 66 64 64 77 82 82 83 78 74
77 85 82 81 84 80 75 72 66 61 58 56 53 51 48 52 52 53 45 45 47 49 52 54 50 49 48 50 50 50 55 67 76 80 79 74 68 65 66 65 82 82 80 78 75
68 80 80 76 80 80 77 74 71 63 59 57 54 52 46 51 53 57 50 49 50 51 49 53 54 51 50 52 51 52 50 57 69 78 81 77 72 69 68 67 68 76 76 75 75
62 78 79 76 74 77 77 73 68 62 59 58 53 50 48 50 51 56 55 50 49 51 51 50 52 54 54 51 52 48 52 56 64 71 78 81 77 73 70 72 69 65 71 71 74
58 72 80 78 71 71 73 71 70 63 61 57 56 53 54 54 53 49 56 52 48 49 52 52 51 53 53 50 51 50 56 58 63 66 72 80 79 77 73 75 69 68 64 68 70
54 65 76 78 73 70 69 69 69 66 62 61 59 60 61 59 57 54 57 61 55 50 51 53 56 51 50 51 51 53 57 60 66 70 69 74 80 77 79 80 72 68 64 62 66
50 59 72 73 69 72 71 66 69 68 66 61 62 62 67 66 63 59 61 67 61 58 56 53 52 52 51 53 52 52 54 60 64 72 74 72 73 79 86 83 76 70 66 60 61
46 56 65 68 69 65 67 67 70 70 67 66 63 62 67 66 63 58 56 64 60 61 62 56 52 52 51 53 53 53 54 56 60 66 77 74 66 75 84 86 78 74 68 63 59
41 51 60 68 70 71 69 65 67 69 68 66 70 68 68 70 65 60 63 63 58 62 63 60 55 53 53 53 54 52 52 55 55 60 67 78 71 73 79 86 81 77 72 65 61
42 43 53 63 69 75 78 75 77 75 70 70 70 71 70 70 70 68 67 71 65 62 65 63 57 54 55 57 54 50 52 56 56 58 63 74 76 77 77 84 82 79 72 68 63
51 45 46 50 60 70 78 79 77 74 73 73 70 71 68 71 71 73 74 73 69 64 65 66 60 57 62 64 61 57 51 49 53 57 63 60 72 79 80 82 80 80 74 69 66
58 54 51 48 50 53 60 67 73 80 78 78 78 79 78 75 76 78 76 75 74 72 69 68 63 65 66 65 64 61 53 49 56 61 61 63 61 77 80 79 77 80 75 72 67
64 62 58 54 49 51 54 55 55 57 63 71 76 80 86 87 88 89 84 80 83 75 74 74 70 70 70 70 68 64 58 59 62 70 66 64 63 70 75 84 77 79 76 73 67
64 66 65 60 55 55 54 51 50 52 53 55 60 66 73 79 80 90 87 82 75 74 76 72 74 75 74 73 75 67 67 69 69 71 66 73 65 69 75 83 79 76 74 74 68
60 64 63 66 61 59 56 54 52 52 47 47 55 66 68 70 71 77 79 79 78 79 79 77 76 79 76 80 81 70 76 73 73 72 75 69 62 60 68 79 81 73 74 74 69
64 62 63 64 66 60 55 52 52 52 46 49 56 60 62 63 65 68 71 76 77 78 78 80 79 83 85 87 83 82 81 78 77 79 71 66 61 49 61 66 83 76 73 75 68
71 68 66 65 68 60 59 56 51 49 51 52 54 55 56 57 59 62 70 75 78 81 82 83 87 86 87 86 83 85 87 85 81 74 52 67 56 42 59 68 81 74 75 76 67
72 77 73 71 66 64 60 57 53 54 54 51 52 50 48 51 54 63 67 74 78 82 81 81 81 81 83 82 82 86 88 81 69 62 63 72 41 45 66 75 77 75 75 75 63
72 71 77 77 71 65 59 53 54 54 48 50 46 38 41 47 57 61 66 71 71 73 67 58 54 54 50 50 56 59 53 66 62 58 61 52 47 62 76 68 71 71 70 70 62
59 69 71 80 77 69 59 59 53 48 44 44 34 32 40 48 55 58 60 58 48 40 36 31 32 32 30 30 29 35 45 38 38 44 44 45 57 64 64 60 69 69 74 71 62
55 63 65 70 73 61 61 58 46 40 39 32 25 30 40 46 48 41 30 27 21 16 14 13 13 11 14 20 26 27 30 37 51 52 49 50 54 62 62 65 71 73 74 67 61
46 54 48 42 52 52 55 42 37 34 32 23 22 29 37 37 27 23 18 12 8 5 5 5 11 17 20 22 29 39 52 57 56 55 54 55 64 64 67 73 74 69 70 64 56
45 41 37 40 44 47 44 37 33 36 25 17 20 26 27 20 21 10 6 12 21 29 25 25 33 40 40 43 47 50 55 61 66 60 56 60 57 64 64 68 66 67 65 59 53
44 34 31 38 45 45 38 38 41 31 21 15 15 19 9 5 12 49 47 54 53 46 52 53 54 58 62 58 65 61 57 44 57 49 54 56 57 63 66 64 66 66 62 56 53
37 30 38 40 45 43 44 46 38 28 21 15 12 13 12 8 20 41 46 56 61 55 49 57 59 50 56 58 46 41 35 34 35 39 35 58 59 66 67 66 66 65 59 56 54
36 42 47 47 44 52 52 45 34 26 19 16 13 8 15 28 16 48 43 49 53 51 55 60 61 57 47 53 49 39 33 31 28 37 48 58 61 63 62 66 65 60 56 54 53
38 46 48 49 56 56 49 39 33 30 22 17 15 9 15 17 21 31 39 44 43 49 49 47 53 53 44 42 44 36 37 33 21 29 52 55 61 62 65 65 60 55 53 51 49

GFSSW_250_spd_003.txt.gz
Wind_Speed
74 72 72 74 76 75 73 76 80 74 70 66 59 57 51 50 48 50 51 46 46 48 47 45 45 48 47 48 50 52 49 56 62 67 73 71 71 70 66 62 65 69 79 78 75
69 71 68 70 72 74 78 78 78 80 74 69 65 60 58 55 53 54 49 51 44 46 46 44 43 44 46 49 47 48 46 52 61 65 70 66 68 72 70 69 67 67 67 78 78
60 66 65 67 72 75 80 81 79 78 79 73 69 64 64 61 55 56 51 52 48 48 48 46 45 45 45 48 48 49 46 51 56 61 65 66 66 71 75 75 76 69 62 64 78
58 64 66 67 74 82 87 87 83 77 79 77 73 70 68 64 60 59 53 52 51 47 47 48 44 44 43 46 50 47 51 53 56 58 62 63 65 69 74 80 78 75 66 63 63
56 59 60 62 65 73 78 85 82 79 78 77 75 72 69 68 62 58 55 55 50 52 52 48 44 42 44 45 50 47 52 54 56 57 59 63 61 63 71 81 82 79 72 65 66
55 52 52 52 58 65 72 77 77 75 75 75 75 73 69 65 60 61 61 58 54 53 52 53 55 48 47 47 48 51 49 52 53 56 59 62 63 62 65 79 83 82 77 71 65
54 49 46 48 57 64 71 74 74 72 71 74 74 75 73 66 66 65 63 62 61 59 58 59 61 58 53 53 49 49 53 53 51 55 58 64 60 59 67 71 81 82 80 76 67
51 50 46 45 55 64 73 74 72 73 69 70 73 73 72 69 68 66 63 66 63 64 61 60 61 59 53 57 53 49 50 52 53 56 58 64 57 67 69 70 71 81 79 77 72
48 49 47 42 52 64 73 78 75 74 74 69 69 69 71 72 71 71 67 66 68 65 65 66 67 60 58 56 55 51 50 54 54 58 58 59 56 66 72 72 72 73 78 79 76
48 49 47 43 46 59 68 75 78 71 72 72 73 74 76 74 72 71 70 71 71 70 70 70 67 64 59 64 57 58 53 55 54 56 55 50 55 64 71 72 76 72 74 79 78
52 51 50 48 43 49 62 68 76 78 75 74 68 70 70 71 73 73 76 80 76 75 74 72 69 66 70 70 67 60 57 55 55 56 58 49 50 62 68 72 75 75 68 73 79
55 56 54 52 50 45 49 65 72 71 74 77 75 73 74 75 77 77 78 78 79 82 82 75 73 75 74 72 69 65 63 60 60 60 58 55 48 57 62 67 72 75 71 68 74
55 57 60 58 54 47 49 51 58 69 76 78 79 79 84 82 79 80 81 80 83 83 84 85 81 79 75 78 76 72 72 69 65 66 62 57 47 57 59 62 65 71 73 68 67
57 57 59 62 61 54 55 53 48 51 51 63 62 63 68 72 76 85 87 88 88 90 89 87 89 90 88 85 83 80 80 77 71 68 63 60 44 54 57 60 57 60 73 70 66
60 61 59 56 60 65 67 54 50 49 44 45 47 50 52 55 57 63 70 73 76 80 83 83 86 91 86 90 90 80 80 77 75 71 67 59 52 49 56 53 54 56 63 73 69
68 62 64 58 55 62 63 61 58 53 42 41 43 46 48 51 56 61 65 69 76 79 79 80 79 81 85 87 87 84 83 83 80 77 62 64 54 47 58 57 61 63 64 71 74
71 65 62 57 60 62 57 58 58 51 48 45 45 47 50 53 55 59 66 73 77 76 73 73 72 76 79 84 85 86 88 88 86 79 61 68 56 35 54 58 60 60 61 64 76
63 67 63 70 65 59 53 53 51 49 50 46 44 46 51 50 55 61 69 74 73 71 71 71 72 75 77 79 82 81 85 83 86 78 76 81 44 35 52 60 66 63 61 57 68
52 65 71 75 61 59 57 50 49 52 48 46 45 49 52 53 56 64 67 66 65 68 72 73 72 77 79 82 83 85 85 91 89 83 83 71 51 49 56 64 70 63 62 55 62
50 61 72 73 67 66 59 53 53 48 45 44 46 46 47 51 55 54 56 58 60 55 55 56 55 59 64 68 74 79 78 75 72 72 68 63 55 52 59 65 67 60 59 58 62
44 51 59 64 67 69 62 62 57 48 44 44 44 44 45 45 41 44 45 45 40 40 34 28 27 32 37 41 45 46 44 45 50 52 50 55 60 73 72 73 61 62 63 61 67
35 44 51 46 54 64 66 65 54 51 46 44 43 41 38 30 33 33 28 26 27 31 27 14 13 17 20 20 24 26 29 29 35 43 44 48 62 67 70 66 60 63 62 60 69
31 39 44 49 51 63 71 64 59 55 48 44 40 32 25 23 23 16 8 20 11 10 6 2 6 9 11 14 6 14 18 20 26 36 43 48 51 56 56 58 60 58 56 62 69
27 28 31 41 46 55 60 66 63 55 49 40 31 23 16 13 2 24 20 9 16 25 33 34 31 32 34 37 32 12 16 25 30 34 38 38 42 46 50 54 54 53 55 63 67
23 25 28 35 40 45 52 56 50 46 42 36 30 12 16 23 31 29 22 25 35 37 42 45 42 39 40 44 39 39 29 29 41 45 48 44 40 42 43 48 49 53 60 65 65
24 32 38 40 39 44 45 48 46 46 43 37 23 30 26 23 31 34 36 29 31 41 42 40 37 40 31 30 32 35 47 44 49 51 48 36 31 32 38 42 46 51 62 64 64
30 37 42 42 40 44 49 48 51 51 45 32 24 30 22 22 34 30 24 35 32 40 37 35 37 34 28 27 27 28 43 47 39 38 47 36 30 27 31 36 43 52 59 61 62

GFSSW_250_spd_006.txt.gz
Wind_Speed
65 63 64 68 80 84 81 75 73 75 78 75 73 70 70 67 61 56 53 49 50 49 46 44 47 49 50 52 51 52 50 53 57 60 63 58 58 63 66 63 62 63 62 61 61
60 62 61 65 67 81 81 77 73 73 74 80 78 73 72 70 68 63 53 56 51 50 48 43 44 47 50 51 48 47 46 54 58 59 60 56 54 59 63 66 67 68 66 62 61
60 59 56 60 63 70 82 81 76 73 72 73 78 80 77 73 71 71 62 58 54 55 52 47 44 44 49 49 48 46 43 51 57 58 57 55 53 55 60 65 70 70 67 66 62
55 57 55 55 57 64 74 77 77 75 76 76 75 74 74 76 75 75 66 62 61 60 54 52 49 45 46 50 52 46 48 52 54 58 58 57 51 52 57 63 67 68 69 70 69
55 55 54 52 54 60 66 72 71 71 73 75 75 77 78 77 78 76 71 68 65 62 58 57 54 46 44 46 50 46 51 50 53 57 58 60 52 49 52 62 64 69 69 70 71
52 53 52 51 51 56 60 63 65 67 71 74 76 78 78 79 75 77 75 73 69 65 64 59 54 53 51 52 47 47 49 49 53 55 58 57 57 51 55 60 64 66 68 70 72
50 51 51 50 52 53 56 58 64 70 75 79 80 79 80 77 76 79 76 73 73 69 65 58 59 59 59 58 55 55 52 50 53 57 60 62 53 50 57 57 63 65 65 69 72
48 49 51 51 54 53 54 57 64 73 81 85 85 84 83 79 79 78 76 75 73 72 65 61 61 64 59 65 63 59 58 59 60 59 56 63 46 54 56 60 59 66 65 65 70
46 46 50 52 55 55 54 51 51 58 67 76 82 82 81 79 77 77 77 75 73 74 71 67 69 65 66 66 67 65 59 60 60 60 60 55 50 58 58 58 57 62 66 66 66
43 46 49 54 53 51 50 47 45 54 64 73 76 77 76 75 75 76 75 75 74 74 73 72 70 67 67 74 71 71 68 65 64 61 59 55 50 55 58 56 57 60 62 65 65
41 43 48 53 52 49 46 44 43 52 66 73 75 74 74 73 72 71 70 73 77 75 74 75 75 70 74 78 75 74 73 65 65 66 63 58 53 54 57 56 54 54 60 64 65
44 43 45 53 52 49 43 43 41 51 66 73 76 75 75 73 69 67 68 70 71 75 79 80 78 79 79 80 81 83 83 73 70 73 69 68 55 56 55 53 51 51 54 60 66
50 49 46 47 56 51 46 43 39 45 61 70 75 75 76 74 73 74 77 75 76 78 83 83 83 85 89 89 86 84 82 82 78 76 73 69 58 57 55 52 50 48 50 57 62
56 56 52 50 53 55 50 46 44 41 44 63 73 76 76 76 74 75 76 77 77 79 83 84 87 90 91 89 87 85 86 88 88 85 79 77 59 58 55 50 46 46 42 49 59
66 60 62 58 50 52 60 57 49 42 36 45 52 64 66 71 69 75 75 78 81 83 83 82 82 86 85 89 90 87 93 95 97 93 87 80 66 55 61 54 44 43 44 49 54
61 65 67 63 51 53 64 59 51 47 38 35 40 46 54 57 61 67 72 72 70 67 64 68 72 73 77 82 82 83 87 89 89 90 82 82 71 56 57 56 46 46 48 52 54
46 57 67 65 57 58 59 57 56 51 43 38 39 39 38 39 43 46 49 52 57 62 66 70 76 79 81 85 86 84 84 83 80 79 62 77 72 48 53 54 49 49 52 53 55
40 46 56 67 65 59 56 52 52 53 52 46 42 40 39 38 41 44 46 52 58 62 69 78 80 82 80 78 76 71 71 69 69 66 65 72 53 52 56 58 55 55 58 57 54
34 39 43 64 65 63 57 50 44 50 50 50 47 43 40 41 40 43 49 54 57 64 74 79 76 70 74 74 74 66 68 71 68 65 62 56 45 49 57 62 59 63 58 62 61
28 33 37 62 69 67 60 52 48 45 46 44 43 42 41 39 41 44 49 50 59 64 68 72 66 51 43 50 58 59 63 67 66 64 59 51 51 50 65 72 67 65 54 60 64
26 28 38 55 65 73 56 53 49 45 40 37 38 37 35 36 40 43 43 52 53 57 51 50 51 51 42 36 39 41 42 46 51 52 55 53 50 60 75 74 71 67 58 55 60
23 29 38 54 66 67 58 57 53 44 40 37 32 33 31 36 39 38 43 43 30 23 23 34 45 42 39 33 26 26 27 27 29 37 39 47 62 79 81 74 72 70 60 56 61
19 30 37 51 62 59 60 61 52 45 43 39 35 33 34 36 33 34 20 7 10 4 11 15 25 23 21 14 15 13 3 7 14 20 24 31 40 56 71 72 75 68 57 56 60
19 19 25 35 46 54 59 60 54 51 46 40 37 36 36 34 27 15 19 11 8 3 8 12 14 15 16 24 17 13 14 6 10 16 20 25 29 35 48 63 62 62 57 56 59
21 22 25 26 37 41 52 56 55 53 48 43 40 38 34 28 25 21 21 16 14 8 5 9 19 25 28 29 25 20 18 11 4 4 11 18 25 30 37 43 49 57 57 53 53
17 26 32 34 36 43 53 58 57 53 48 46 42 38 32 28 28 30 23 23 15 8 10 11 21 25 31 30 29 26 19 17 12 16 21 23 27 28 28 34 39 48 54 54 52
20 24 26 27 32 41 52 59 59 55 52 49 43 38 33 30 30 28 26 25 18 9 10 11 20 22 23 26 22 31 28 26 22 26 24 29 30 28 28 29 35 42 46 45 46

GFSSW_250_spd_009.txt.gz
Wind_Speed
66 66 69 69 68 68 69 70 81 85 83 80 81 81 78 74 71 70 69 67 64 57 52 54 54 51 48 50 52 52 48 53 60 63 64 59 55 55 57 59 58 60 63 66 63
66 68 69 69 69 68 65 68 72 83 85 83 80 80 80 77 75 72 69 66 64 59 54 54 51 49 46 44 48 49 48 54 58 60 61 58 54 55 56 57 58 59 63 66 64
65 67 66 68 69 70 67 65 71 75 86 86 83 79 79 79 76 76 70 71 68 63 56 54 54 50 46 41 43 44 50 52 56 57 57 58 55 53 56 57 59 59 60 63 65
60 66 67 70 71 69 67 64 65 71 77 85 86 80 76 74 81 80 75 72 71 67 64 58 56 53 49 43 42 40 49 53 54 56 58 58 56 55 55 59 59 58 59 61 63
59 64 67 69 68 65 64 63 64 69 72 82 84 82 76 76 79 83 78 75 73 71 68 62 59 57 54 51 44 42 48 47 54 56 58 59 58 55 52 61 60 57 56 58 61
58 59 64 65 65 64 62 61 60 63 70 76 84 81 75 75 73 77 78 80 80 77 75 69 67 62 59 57 52 51 49 51 47 52 56 58 59 53 54 60 61 58 57 57 57
52 56 60 60 61 60 62 59 59 61 65 72 83 82 79 74 75 76 75 75 75 73 74 71 71 68 64 61 58 56 55 56 58 58 48 54 53 50 61 57 56 60 60 57 56
47 48 52 56 56 58 59 57 57 59 61 69 78 80 80 75 76 77 77 77 76 75 74 72 73 72 69 67 64 61 60 62 63 59 56 52 45 55 56 56 56 58 57 57 57
48 47 47 50 51 55 56 56 55 56 55 63 73 77 76 75 75 76 78 77 78 78 76 73 74 73 70 71 70 68 63 64 64 66 64 60 50 54 56 54 53 54 54 55 55
49 51 48 47 48 53 54 56 54 53 52 56 63 68 70 72 75 77 78 77 76 75 74 73 72 72 72 76 75 70 67 67 67 71 70 67 57 57 57 54 54 53 54 56 55
53 53 52 48 46 51 52 54 56 56 59 59 60 62 71 75 77 79 79 79 77 77 75 74 73 75 78 77 77 76 74 73 72 74 75 73 64 58 61 56 54 53 54 55 56
62 57 58 52 49 49 49 56 60 58 60 57 57 61 70 80 85 85 81 80 79 78 76 76 76 78 79 79 79 80 77 78 79 80 82 77 67 65 62 60 55 54 53 55 55
55 58 61 58 52 44 47 58 58 57 54 51 50 51 60 67 75 81 82 81 78 75 75 75 75 78 77 77 81 83 84 84 85 87 84 80 69 71 67 60 61 56 55 55 55
43 47 60 61 54 45 46 55 59 55 49 47 41 44 52 61 67 73 75 75 73 73 72 72 77 77 77 79 85 85 88 92 92 91 87 91 81 75 70 65 59 60 58 57 55
35 39 52 62 55 46 45 55 60 56 45 43 33 41 52 57 65 67 69 69 70 72 73 73 76 78 80 87 92 94 94 95 96 95 92 88 82 68 69 66 66 63 64 61 60
30 33 41 61 56 50 48 54 55 52 41 36 32 38 45 53 63 64 65 67 69 70 73 76 76 80 85 90 92 93 94 91 87 81 70 71 77 61 73 76 74 70 68 68 63
28 28 35 54 61 56 55 52 46 48 41 35 32 33 40 51 60 63 64 65 68 70 72 73 76 77 81 83 84 83 84 80 82 83 74 75 77 53 65 70 77 81 79 74 68
22 26 34 49 66 63 58 50 42 47 45 39 34 31 32 38 48 52 57 63 60 58 59 63 61 66 72 79 83 88 85 83 87 86 79 80 69 63 66 73 74 81 80 75 71
18 24 33 41 62 64 57 45 40 46 49 43 39 33 30 29 31 35 41 42 43 42 45 49 57 66 76 80 85 86 80 74 79 75 71 67 59 59 68 73 80 82 82 76 64
17 24 29 36 53 63 58 44 40 43 52 48 44 39 34 31 31 33 36 37 37 39 43 51 59 70 73 69 61 55 53 59 67 60 61 60 57 57 65 75 82 81 81 76 62
13 20 26 35 46 59 56 45 45 44 45 50 48 44 38 36 36 36 35 32 34 37 45 56 62 59 53 58 59 49 42 39 45 47 45 53 58 60 67 72 79 77 75 73 62
10 19 25 34 40 47 54 53 49 45 43 46 49 45 41 38 37 34 29 28 34 39 47 44 42 41 48 47 36 46 39 31 28 31 33 38 57 69 74 75 75 71 70 71 62
13 21 25 30 35 51 58 57 52 45 38 38 39 38 37 37 34 28 24 30 32 31 23 27 29 30 35 27 15 11 12 12 9 10 16 27 50 67 68 67 68 69 69 67 60
13 15 20 25 30 52 61 57 51 45 40 35 34 36 36 33 28 22 27 25 21 21 23 22 21 27 22 27 38 35 33 21 18 6 5 13 31 56 64 63 66 65 64 63 59
15 21 26 26 38 51 59 57 50 47 44 39 37 35 33 30 24 24 22 25 20 24 28 18 16 21 20 34 42 42 40 36 35 28 13 2 13 27 47 62 63 57 57 60 56
12 19 20 22 28 40 52 56 53 50 46 43 38 36 33 28 26 23 22 23 24 23 16 9 7 19 23 35 42 45 48 44 37 27 17 11 11 14 23 39 60 57 52 49 45
5 17 22 24 25 35 49 58 55 52 49 44 42 40 33 31 26 23 23 23 21 27 15 11 5 16 19 22 28 33 37 42 42 38 33 31 28 23 20 26 40 54 54 51 48

GFSSW_250_spd_012.txt.gz
Wind_Speed
60 61 69 72 72 75 72 70 72 77 78 81 80 80 85 80 73 74 74 68 65 68 69 70 65 64 62 61 62 61 60 62 65 69 70 66 65 62 62 63 63 64 63 64 66
57 62 67 70 73 76 78 75 75 70 78 80 84 83 81 86 84 79 75 72 70 69 69 70 66 61 58 58 57 60 57 60 61 61 62 61 60 59 59 58 58 58 58 61 64
52 57 64 70 72 75 78 79 74 74 75 77 78 85 86 83 85 87 82 81 75 73 71 69 66 63 58 57 56 52 51 50 54 56 56 60 60 55 55 58 61 60 58 60 62
49 55 59 65 70 75 75 78 79 77 77 73 73 79 85 88 85 88 86 84 82 77 72 69 68 66 61 55 54 50 54 49 49 48 53 58 55 54 52 57 57 57 59 60 62
45 51 55 59 63 67 75 76 79 77 75 72 73 72 79 87 88 89 86 86 82 78 77 74 70 66 62 59 53 54 55 49 44 47 47 51 53 52 50 54 56 56 58 60 61
43 45 50 57 60 62 66 74 76 78 77 77 75 76 77 84 91 89 86 85 84 80 79 75 72 69 67 63 59 56 55 55 52 50 49 46 50 43 56 57 56 55 55 59 60
41 46 47 52 59 64 66 70 73 75 75 77 74 72 76 82 89 90 89 86 84 82 81 78 74 72 72 68 64 59 59 59 60 58 51 49 48 46 53 52 52 56 57 57 60
44 45 48 51 52 57 63 67 69 71 71 71 70 71 74 77 84 90 87 86 82 80 80 81 79 75 74 72 73 71 68 67 66 62 56 50 54 55 55 54 48 45 52 55 58
51 52 51 52 53 53 57 62 63 66 67 66 69 68 69 74 79 87 88 85 81 80 78 77 79 79 78 78 75 75 72 71 70 67 64 60 55 61 57 56 53 51 46 49 54
62 56 58 56 55 53 53 55 56 58 59 66 68 66 66 71 76 85 87 83 82 79 77 76 76 76 79 78 76 74 73 72 72 73 71 66 59 62 63 61 59 57 53 48 50
54 56 53 60 59 55 53 46 47 52 59 66 65 64 65 68 72 80 85 84 79 77 77 75 73 78 78 77 77 77 76 75 76 77 75 72 63 60 66 65 64 63 62 55 50
45 50 49 52 62 57 49 41 51 58 58 59 61 61 60 63 68 75 81 83 81 79 77 77 77 78 79 79 79 78 79 79 79 81 79 77 67 71 67 67 68 66 65 62 59
40 41 41 45 59 58 48 47 53 56 55 58 59 57 56 58 64 73 77 80 79 78 77 76 77 79 80 79 79 79 78 81 80 79 81 83 73 79 73 70 71 70 69 67 64
32 34 34 38 54 58 51 52 51 56 56 58 57 57 54 55 56 61 67 73 75 74 75 77 78 78 78 79 79 78 80 80 83 86 88 88 80 79 79 77 74 72 74 73 72
27 27 29 36 48 57 53 55 54 58 57 57 55 55 56 53 56 58 61 68 74 77 78 77 77 77 77 78 78 80 84 87 91 94 93 90 94 74 81 80 80 83 83 81 80
22 19 25 34 44 58 60 59 55 51 51 51 54 52 55 51 54 58 61 65 71 75 79 80 79 77 77 79 81 82 83 88 92 96 93 91 100 79 87 85 87 90 91 89 88
16 14 26 33 47 60 64 57 45 44 48 50 51 50 48 49 49 48 49 50 55 59 65 67 67 68 71 73 74 77 84 88 89 95 93 96 95 77 79 86 90 93 100 99 94
12 13 29 36 46 56 58 49 41 44 48 49 50 45 42 39 38 36 38 43 47 45 45 49 56 62 67 70 75 78 82 87 89 87 90 88 83 82 72 76 83 83 87 90 90
9 12 25 30 43 47 51 44 39 44 49 49 47 40 38 31 32 32 35 37 37 41 45 51 56 61 67 68 67 68 73 83 89 90 90 85 79 79 82 83 82 91 85 85 81
7 7 20 27 34 46 51 46 41 44 50 49 44 38 33 29 27 27 27 31 35 38 41 47 50 51 51 56 61 69 72 76 77 73 71 73 72 71 72 78 88 92 85 82 82
7 5 16 21 33 49 51 46 42 45 49 47 45 38 33 28 26 24 24 24 26 27 29 33 38 44 48 53 51 54 57 56 54 54 46 47 52 59 58 67 79 90 88 84 84
6 7 16 22 33 49 50 49 44 44 51 48 43 38 33 30 27 25 23 25 24 25 28 31 35 40 38 37 35 28 31 24 36 48 45 37 44 41 48 57 69 78 87 84 85
9 5 20 28 39 52 53 47 45 45 49 51 44 39 36 31 28 25 23 24 23 25 25 29 33 28 29 28 25 25 31 24 14 20 29 29 32 35 42 46 56 63 75 80 82
9 6 22 33 47 60 57 51 48 42 41 46 45 41 38 35 30 26 25 24 23 20 23 25 25 24 18 15 30 28 35 37 30 22 18 18 23 24 31 38 47 54 60 67 75
8 2 22 30 42 53 56 54 49 43 40 41 45 44 41 37 32 27 26 24 18 20 20 19 13 17 12 18 26 35 41 44 40 32 26 13 11 14 15 24 39 51 54 57 61
8 4 15 29 44 57 58 55 47 42 38 36 35 38 38 35 31 27 27 19 17 17 18 16 12 6 8 11 20 29 39 44 45 43 33 26 13 5 3 17 33 42 46 46 47
10 5 14 28 43 55 61 58 52 46 43 37 35 36 35 34 30 28 24 16 16 19 15 13 10 4 5 10 16 24 29 37 43 46 47 39 20 19 11 20 31 31 34 38 38

GFSSW_250_spd_015.txt.gz
Wind_Speed
46 52 61 69 70 77 79 80 85 80 80 80 81 80 79 80 82 76 77 74 71 72 70 71 69 71 72 74 73 75 71 65 72 80 79 77 78 75 76 77 76 76 79 79 81
44 50 56 62 68 72 76 82 81 84 83 82 78 79 80 80 83 84 78 75 74 76 72 72 72 72 72 73 70 70 69 65 72 73 75 73 71 72 72 75 75 76 75 76 77
41 47 53 60 65 71 73 77 79 78 83 82 79 80 81 83 80 84 83 80 76 77 78 77 74 70 69 71 72 69 66 71 68 70 70 68 67 67 67 68 69 69 70 69 70
40 43 49 57 64 69 76 76 79 80 79 84 80 76 79 82 82 84 84 84 84 78 77 77 73 70 69 67 71 70 66 68 66 65 65 65 65 62 64 63 67 69 67 65 65
39 42 45 51 59 66 72 74 79 82 80 82 85 81 79 75 81 85 85 86 87 85 81 78 77 74 71 70 67 71 69 63 63 61 62 60 59 59 55 56 62 62 61 62 63
39 41 44 47 51 59 67 73 75 78 80 82 85 87 83 78 75 82 86 85 86 86 89 83 80 77 75 71 68 70 71 67 63 60 59 58 56 49 50 55 51 53 56 57 59
45 43 45 48 48 51 57 67 71 74 77 78 83 89 87 84 81 80 82 89 91 88 87 88 87 83 78 77 75 73 73 69 67 64 58 60 54 49 53 47 45 45 48 51 53
49 50 50 51 52 50 52 55 66 70 71 75 79 82 86 87 79 79 80 83 90 92 89 87 88 86 86 83 81 78 75 73 68 68 64 59 57 58 57 56 48 49 47 47 49
67 60 57 58 57 56 53 53 60 68 71 72 74 83 83 88 87 82 77 79 80 88 92 90 88 86 84 83 80 79 76 75 72 71 67 64 59 65 62 62 53 50 52 53 53
63 67 62 60 65 64 58 57 57 61 66 71 73 77 80 84 88 86 81 80 81 82 89 91 91 88 86 86 84 81 78 77 76 76 74 71 68 71 68 69 61 59 58 57 57
54 55 58 54 56 68 66 65 59 52 50 66 74 72 79 84 84 81 74 73 77 82 86 91 90 91 88 85 84 85 83 81 82 80 78 76 73 72 72 71 71 66 63 61 60
52 50 49 49 51 60 72 72 54 50 59 62 67 70 74 75 75 72 68 68 70 73 79 87 89 88 86 85 84 84 84 82 82 83 81 80 75 76 76 73 73 71 70 69 65
47 41 40 44 48 53 68 74 60 56 56 52 55 61 65 63 65 66 66 65 65 66 72 81 88 85 84 83 81 82 82 83 84 83 83 82 75 83 77 78 78 78 74 74 74
40 35 30 36 44 49 62 73 64 57 55 50 51 57 58 56 58 60 59 59 59 65 67 74 84 82 81 81 82 81 81 81 81 83 85 85 81 83 83 83 83 82 82 79 79
35 27 22 29 37 47 56 69 69 61 58 52 48 50 53 50 51 52 52 53 57 62 64 71 78 79 81 82 80 80 81 83 85 86 84 84 88 74 85 88 90 88 86 86 85
32 21 17 25 34 44 54 68 71 65 53 44 46 47 46 45 47 48 47 48 54 58 59 65 74 78 80 80 81 81 81 83 85 86 84 86 96 79 85 93 95 95 95 92 94
28 14 13 22 34 42 53 68 71 47 41 42 44 46 44 45 45 44 45 47 49 52 56 61 67 71 74 77 78 78 79 82 84 87 85 92 101 91 91 98 102 101 99 101 97
26 12 4 16 28 38 53 60 47 40 39 39 44 44 43 42 42 43 42 43 42 46 53 55 60 65 69 72 74 78 81 85 86 90 88 89 92 89 93 95 95 90 95 98 101
25 10 3 15 25 36 43 46 43 41 40 41 44 42 40 41 43 43 44 43 45 48 51 53 58 63 66 68 68 65 63 65 68 73 80 80 89 88 93 92 90 83 82 90 98
23 10 7 12 21 33 40 41 43 42 40 41 45 43 42 42 39 39 40 40 41 41 37 35 31 29 34 36 35 44 55 62 71 75 84 85 88 89 84 82 83 83 76 95 97
21 10 8 11 24 35 42 47 45 37 37 42 43 38 36 35 31 31 32 31 28 24 25 23 24 26 27 33 38 45 52 56 65 66 69 68 69 65 57 56 61 64 62 81 94
22 12 10 12 26 39 47 47 41 37 38 41 41 37 33 29 29 27 28 26 23 20 17 19 20 21 25 33 36 34 33 30 36 46 51 53 53 63 52 48 49 60 64 66 76
26 12 10 16 28 40 44 42 38 36 39 43 41 37 29 27 28 27 27 24 20 18 18 18 20 22 27 24 22 15 17 18 25 33 35 38 39 40 47 43 39 41 45 45 52
23 11 14 19 31 39 45 41 36 35 41 43 41 37 29 28 28 27 25 22 20 19 19 18 19 13 9 7 9 19 26 30 31 35 35 34 30 31 30 33 31 29 34 37 47
23 9 8 27 35 40 41 40 36 36 40 43 41 38 32 31 29 28 25 21 20 18 17 16 13 8 10 2 4 14 20 27 35 36 40 36 31 28 21 18 15 16 21 27 41
20 4 10 22 36 40 41 41 37 38 42 44 42 36 33 32 29 27 23 20 19 18 16 13 13 9 5 3 5 12 20 23 32 41 45 46 40 30 21 13 6 4 7 17 25
17 6 8 21 35 41 44 43 40 38 41 44 43 39 33 34 31 27 23 21 19 17 13 12 9 8 8 6 1 12 16 22 33 38 40 44 46 36 23 20 16 13 9 12 19

GFSSW_250_spd_018.txt.gz
Wind_Speed
38 39 42 47 55 64 70 75 80 80 81 82 82 82 82 82 84 81 79 77 72 75 77 75 78 76 76 75 73 75 74 71 72 77 80 78 75 75 77 74 77 77 81 79 77
42 39 41 46 53 58 67 76 81 82 82 81 79 80 83 83 83 84 84 79 76 75 74 76 76 75 74 74 70 74 71 70 76 77 78 76 74 75 79 78 79 78 83 80 81
47 42 41 46 52 58 65 74 79 83 85 84 83 79 82 84 81 85 84 85 82 79 76 75 75 74 74 73 70 70 66 71 76 75 75 74 73 76 75 75 77 77 77 77 75
57 48 42 45 52 57 63 70 76 82 87 90 85 85 80 80 81 83 84 84 87 82 77 76 75 76 77 73 71 70 67 69 73 73 71 73 70 70 71 73 71 71 73 71 70
57 55 49 45 50 56 61 68 74 80 87 93 91 88 88 85 82 81 85 85 87 86 85 80 77 77 74 73 74 71 68 73 73 73 73 73 69 70 66 66 72 70 69 68 66
63 55 54 50 48 55 59 64 71 77 84 89 93 90 90 79 82 83 82 83 85 84 85 85 80 80 77 75 75 74 73 71 71 72 72 69 70 69 66 70 68 65 65 65 63
70 68 56 55 54 52 58 61 65 74 79 86 89 87 93 86 81 87 81 80 83 85 85 86 86 84 77 77 75 77 76 74 71 73 72 74 68 66 68 66 64 63 63 61 63
64 66 71 59 59 56 57 58 62 67 74 80 86 88 89 85 89 85 82 78 78 81 81 83 84 84 85 78 75 78 78 77 75 75 74 72 71 72 63 66 62 60 60 57 56
59 56 59 64 52 60 58 60 60 64 69 76 80 81 84 86 85 83 86 84 78 75 81 83 82 85 86 86 82 80 79 80 81 79 76 72 70 75 70 68 63 60 60 60 58
60 53 49 51 49 50 60 59 64 61 67 70 74 79 80 85 86 85 87 86 83 79 74 74 83 83 87 89 89 88 83 81 80 78 78 75 75 77 74 68 67 64 64 65 63
62 49 44 42 36 38 57 64 63 64 58 57 64 72 78 84 86 83 86 89 86 82 74 76 74 81 89 86 87 85 84 87 87 86 86 85 78 75 73 67 70 68 67 67 67
58 49 42 40 31 30 50 65 65 62 55 54 60 60 70 73 75 76 79 86 86 85 82 79 71 78 80 87 90 89 88 88 86 86 82 81 77 78 76 73 72 75 76 77 75
56 50 37 32 30 29 44 62 64 61 57 53 54 56 64 67 70 72 74 76 85 85 83 81 77 73 76 78 85 92 93 91 87 84 84 84 80 82 79 77 80 81 82 82 80
56 48 35 28 24 26 41 56 63 62 60 53 50 50 57 63 69 69 68 73 78 83 82 85 83 76 75 79 81 83 85 89 89 86 84 83 79 81 83 83 83 86 89 87 86
54 43 32 24 19 25 37 50 61 67 62 56 48 48 47 50 63 64 67 69 72 75 76 79 77 72 72 74 73 78 79 84 86 85 81 82 82 73 83 84 88 90 90 91 91
48 38 27 18 14 23 33 40 52 68 63 46 43 43 39 43 51 59 63 63 66 69 67 68 68 65 63 61 62 66 71 79 81 80 77 80 81 65 80 90 93 95 95 93 95
44 35 24 11 9 16 25 34 50 59 59 50 43 38 37 40 43 47 52 54 54 54 53 54 56 51 52 53 56 59 63 71 77 75 73 81 80 75 86 94 96 98 99 102 102
40 34 21 10 1 11 21 31 40 50 59 48 42 35 34 37 38 40 40 40 40 39 41 42 42 43 46 47 49 54 58 65 68 72 75 82 82 87 93 96 100 104 103 106 109
37 30 17 10 4 11 20 30 39 56 56 47 37 31 33 36 37 35 33 33 33 33 31 33 37 38 41 44 46 50 56 62 65 70 73 80 88 92 99 103 104 108 109 106 108
36 26 14 10 4 11 21 26 40 50 46 38 33 33 37 36 33 33 31 30 29 29 30 35 37 39 43 45 47 50 57 60 64 66 68 70 80 87 91 95 92 97 99 100 97
37 28 16 10 7 15 20 35 44 41 38 32 29 31 36 37 34 30 28 29 31 31 33 32 34 37 40 39 37 38 36 36 39 48 56 62 67 78 79 77 79 81 80 77 77
36 29 18 14 14 26 31 36 38 36 32 28 28 33 32 28 26 27 28 30 31 32 31 33 37 36 22 22 18 21 26 32 34 36 40 41 41 60 65 69 67 62 66 59 52
36 30 16 13 20 30 34 39 37 34 30 28 31 32 29 27 27 26 27 25 27 29 28 24 21 16 13 12 15 19 17 13 15 20 30 34 39 51 49 43 47 53 51 47 43
34 30 15 12 18 25 33 33 29 25 23 26 31 30 27 26 25 25 24 25 26 27 24 19 15 11 10 12 13 13 7 14 20 22 28 38 37 39 29 30 30 34 35 34 36
33 26 15 11 17 20 21 20 16 18 24 33 34 31 27 22 22 21 24 27 26 23 20 15 12 11 10 10 13 2 9 11 19 27 32 38 46 26 29 31 27 19 17 17 18
31 20 13 6 14 18 19 18 17 19 28 34 34 30 25 24 26 25 26 25 22 19 15 14 12 12 8 13 12 4 5 10 21 29 37 42 45 28 30 28 27 26 19 8 4
32 19 9 5 13 17 22 23 21 22 27 34 34 31 27 25 26 25 24 22 18 15 15 12 12 9 11 7 11 3 4 9 17 23 37 35 42 39 27 26 24 25 27 21 12

GFSSW_250_spd_021.txt.gz
Wind_Speed
59 50 39 37 37 42 54 64 70 76 80 81 84 86 87 87 88 82 80 82 78 80 80 82 81 81 80 77 78 78 73 71 73 76 83 79 75 72 70 73 72 70 72 69 69
63 58 49 40 38 40 49 61 67 73 78 84 85 87 88 86 85 86 86 81 79 80 80 82 81 82 80 81 78 77 74 75 78 79 79 76 73 74 74 79 74 73 75 73 72
68 61 57 48 41 41 44 57 67 71 76 84 85 85 85 87 87 91 88 85 82 83 81 81 81 80 80 81 78 77 77 80 80 82 80 75 73 72 72 72 74 75 75 75 76
76 68 60 57 47 42 46 51 65 72 75 84 87 87 86 85 83 87 88 89 86 83 81 79 79 76 78 80 80 77 78 78 81 82 78 75 77 74 74 71 71 75 75 74 74
75 77 70 59 54 46 44 51 59 70 76 80 87 90 90 85 85 84 87 88 90 88 85 81 77 77 76 78 78 76 76 76 78 77 75 75 76 74 72 71 73 74 72 72 71
75 70 70 69 55 53 47 48 56 65 75 78 84 90 91 87 87 84 82 85 87 87 87 85 84 80 78 74 73 74 73 72 76 76 73 74 76 71 67 70 70 71 70 69 68
78 70 63 60 61 50 51 46 53 60 70 79 82 89 87 93 88 85 85 82 82 85 87 88 86 84 80 78 73 70 72 73 75 78 74 74 72 67 70 69 68 69 70 68 68
79 70 62 52 51 44 48 47 49 59 65 75 82 81 94 91 94 88 87 83 79 77 83 86 88 87 84 80 76 73 73 72 78 76 75 74 68 72 73 68 65 66 66 67 67
76 65 55 46 40 36 37 48 48 55 62 70 77 79 88 94 99 92 91 87 84 82 82 82 86 84 82 81 82 76 75 76 78 76 75 73 72 76 72 68 67 68 67 66 67
77 63 49 42 35 29 27 44 49 53 60 65 69 76 80 91 100 96 93 89 87 86 79 80 78 77 78 81 84 87 81 77 77 76 72 71 73 78 77 71 70 72 72 70 67
77 62 50 41 35 31 28 39 52 55 58 51 58 70 77 85 92 98 95 93 89 85 76 75 72 70 78 81 84 85 84 83 85 81 78 77 72 75 79 74 73 74 76 74 72
74 60 51 42 32 28 29 36 47 49 48 51 58 62 73 77 82 92 98 93 87 84 75 74 75 75 72 71 75 77 85 87 89 89 82 80 76 75 75 76 77 79 76 78 80
71 60 51 39 26 19 23 32 41 45 50 53 51 60 65 70 75 83 96 94 87 86 82 81 79 75 71 67 68 72 77 81 85 89 88 85 81 82 80 80 83 83 83 84 82
68 59 48 36 22 12 19 29 38 43 51 50 52 54 55 59 65 71 80 84 81 81 90 83 78 77 76 75 72 70 67 71 78 85 87 88 85 84 84 84 85 85 84 84 84
65 57 46 34 21 8 13 26 32 38 47 49 50 47 49 51 55 59 64 78 79 78 79 81 80 79 80 77 74 72 72 73 70 75 81 84 83 78 87 86 88 88 88 89 89
64 54 42 31 21 9 6 19 25 34 43 44 43 39 40 43 47 50 54 62 69 79 80 81 79 79 79 76 75 74 73 72 67 67 70 76 74 72 86 91 93 93 92 92 93
62 48 38 28 19 10 6 14 22 29 42 45 41 37 38 38 39 46 52 55 57 60 65 69 72 72 77 77 77 76 75 68 63 64 64 67 67 64 71 82 87 89 91 93 94
60 44 36 28 16 8 11 18 20 38 41 43 41 37 33 30 32 34 42 49 53 57 61 62 63 66 70 75 74 70 67 61 57 57 54 52 50 54 65 74 84 89 92 94 96
58 42 35 24 16 9 10 18 28 40 44 43 33 30 26 24 27 30 36 41 50 55 53 55 58 61 60 56 53 54 51 46 42 41 41 47 51 56 67 77 82 87 91 96 102
55 43 33 21 16 13 18 29 34 43 42 38 35 29 25 24 25 26 31 35 38 41 44 45 45 43 43 41 40 37 36 32 34 36 43 48 55 63 72 77 81 87 92 97 101
54 42 37 23 15 11 19 29 39 45 43 37 29 23 21 22 23 26 27 28 29 30 34 33 32 34 31 27 26 25 29 33 38 44 48 52 47 64 69 74 79 87 90 93 98
53 43 39 27 15 9 21 26 32 37 36 34 26 19 15 16 19 21 27 27 27 27 26 29 28 23 21 24 29 33 35 31 28 30 35 35 36 48 56 66 71 74 77 77 77
56 45 39 32 18 14 22 31 33 31 29 27 22 18 20 24 24 26 27 26 26 27 26 24 22 22 24 26 26 23 19 18 18 17 23 21 35 43 51 58 57 51 53 61 66
59 45 40 28 23 17 19 20 23 25 23 19 17 21 26 27 26 24 24 24 25 25 26 26 22 25 24 21 18 18 15 12 10 13 21 23 31 42 44 41 39 41 43 44 48
54 42 33 26 17 15 16 16 12 11 14 16 23 27 27 26 26 26 25 25 24 24 25 23 29 26 21 18 16 14 14 10 12 12 17 27 34 40 38 34 35 36 32 27 30
47 40 27 19 12 7 10 13 12 12 14 24 28 28 27 26 23 21 21 22 23 24 27 29 24 21 19 18 16 19 15 9 9 18 22 28 38 41 37 34 32 26 26 23 9
43 34 28 14 5 3 6 8 9 14 21 28 30 28 24 20 20 19 21 24 27 29 26 22 19 19 18 17 18 18 12 12 12 14 21 30 37 39 37 33 30 21 25 28 27

GFSSW_250_spd_024.txt.gz
Wind_Speed
65 61 57 47 37 36 38 44 53 59 70 79 82 85 85 95 96 93 95 98 94 95 96 97 95 96 92 90 88 85 80 77 73 78 85 84 75 69 67 68 71 69 71 67 63
71 66 60 54 47 36 38 43 51 59 66 76 82 85 88 88 93 92 97 94 90 90 91 96 97 95 91 89 87 84 77 81 81 82 83 80 75 73 69 70 74 72 70 69 67
76 74 66 55 48 43 37 43 49 58 65 73 81 86 86 85 87 96 95 93 92 90 87 89 92 92 89 90 85 82 77 81 84 86 81 77 76 75 72 71 76 75 71 73 70
79 69 66 64 50 43 41 40 47 55 64 71 79 85 87 86 86 92 95 97 93 93 87 85 86 87 88 87 88 82 81 82 83 82 79 76 75 73 73 73 76 78 70 73 72
80 72 62 58 55 45 41 40 45 53 61 70 76 84 86 86 90 91 94 95 96 90 91 88 84 82 82 85 87 85 82 80 82 81 76 76 76 77 75 74 76 78 75 73 73
81 71 63 52 47 41 39 41 43 50 58 68 76 80 83 90 92 91 91 93 95 95 89 86 84 84 82 81 79 77 77 78 79 79 78 79 81 80 77 80 76 77 78 75 73
84 72 59 49 41 33 37 37 42 49 56 65 73 77 83 90 94 93 90 88 93 94 96 92 87 82 80 80 78 76 77 76 78 83 80 80 78 76 80 78 77 78 79 77 76
87 70 55 47 40 31 29 34 42 48 56 61 70 74 80 87 95 95 93 92 90 90 93 92 93 87 84 79 77 75 75 74 78 78 78 75 72 76 81 77 73 75 76 75 73
84 69 56 49 42 31 25 32 40 47 55 60 62 69 80 84 95 100 95 87 86 85 86 90 93 92 87 82 78 74 71 73 76 73 74 71 71 78 76 74 73 73 73 73 74
78 65 58 52 44 31 22 30 36 45 54 58 60 66 74 83 90 98 95 89 90 86 85 83 87 86 89 87 83 81 78 75 72 70 71 69 69 73 73 73 73 73 73 73 73
79 65 60 53 44 29 19 29 36 42 50 51 49 57 69 79 83 96 95 95 93 88 83 79 76 74 76 84 87 85 81 81 79 75 71 71 69 70 76 71 72 74 76 76 76
78 66 59 51 40 24 14 22 32 35 43 47 52 58 64 73 82 92 97 95 93 88 80 77 76 77 79 76 76 79 83 85 84 81 75 72 69 71 74 74 73 73 74 78 79
77 68 60 49 37 19 8 19 28 31 42 52 54 57 60 66 76 84 95 100 94 89 86 83 80 78 76 74 74 76 78 80 81 80 79 80 77 77 78 77 77 76 76 76 78
75 70 60 45 34 16 6 16 23 27 42 51 53 50 51 55 66 76 82 89 91 88 85 83 79 79 75 74 71 68 71 73 75 79 77 79 77 81 84 85 86 86 83 83 84
76 66 55 41 33 13 5 8 18 27 40 48 48 45 42 46 55 64 71 79 87 92 90 86 82 80 79 76 72 65 65 68 66 68 70 75 75 76 85 87 90 91 91 93 92
75 64 50 38 29 14 12 12 19 28 39 43 43 39 39 42 45 53 66 71 83 91 87 88 86 82 77 74 68 64 65 63 64 64 62 69 66 64 74 83 89 94 96 98 99
72 61 47 37 29 15 15 18 22 29 38 38 37 37 38 38 37 42 53 59 70 76 82 81 88 82 77 74 73 74 72 69 69 69 69 70 65 65 72 76 77 81 87 93 97
71 60 43 38 27 19 20 25 32 36 34 37 34 35 34 32 31 37 43 51 59 67 69 73 77 81 80 75 77 79 75 74 71 70 70 70 68 71 76 79 78 79 83 86 90
73 62 41 41 27 16 22 33 39 40 38 33 30 30 26 26 26 25 31 41 48 57 61 66 71 73 73 72 71 74 72 73 73 71 69 70 71 78 82 78 73 72 74 77 82
77 65 50 44 34 16 14 27 36 38 36 35 34 28 25 24 24 26 29 34 38 43 47 50 53 60 68 68 66 63 64 65 66 70 72 74 76 77 66 63 61 63 67 71 77
74 68 53 43 36 20 18 24 30 33 31 28 22 20 18 17 20 23 25 26 30 38 43 44 46 48 49 48 50 53 57 58 58 60 62 55 55 52 51 53 58 62 68 75 78
73 64 53 41 34 22 20 22 26 25 27 25 21 18 12 10 10 17 22 24 29 32 34 38 41 38 40 42 43 46 47 46 43 43 36 37 46 44 47 50 53 60 68 73 78
71 61 49 38 32 24 21 20 23 22 23 20 16 10 9 11 15 19 20 22 25 26 27 28 31 34 35 35 34 31 33 36 34 32 33 33 33 31 35 46 52 57 65 68 68
66 58 47 33 25 22 18 15 18 20 17 16 15 12 12 20 21 22 25 25 25 24 26 27 29 31 30 30 30 32 32 30 30 27 26 24 28 33 39 46 47 51 51 48 49
62 53 45 31 22 16 15 12 12 16 16 16 14 13 17 22 24 28 27 27 27 27 26 26 26 27 29 30 31 29 27 25 22 22 24 24 22 31 41 40 40 37 34 41 46
58 49 42 30 18 10 7 6 4 6 12 15 16 20 23 23 23 24 26 25 25 25 24 25 26 27 26 29 30 26 24 23 22 23 22 26 29 30 35 37 35 30 27 34 36
47 47 38 32 20 9 7 6 6 9 13 16 21 25 26 27 26 25 24 23 23 24 25 27 30 29 30 29 25 24 26 25 24 24 21 24 23 29 35 35 30 28 22 24 26

GFSSW_250_spd_027.txt.gz
Wind_Speed
72 67 63 57 51 50 49 44 51 54 61 66 77 84 91 98 104 110 104 112 113 110 109 105 104 99 97 95 92 89 84 80 79 84 86 83 77 71 68 65 66 65 65 64 63
78 72 70 66 61 54 52 49 51 57 61 68 74 82 86 95 102 102 114 112 110 110 107 107 104 102 98 99 94 91 82 80 85 88 89 83 77 74 70 66 69 68 68 67 63
81 77 72 63 63 63 53 54 52 59 63 68 72 81 86 89 98 104 107 110 110 110 111 111 108 106 100 98 95 90 83 84 88 90 90 82 77 74 72 68 72 74 72 69 66
83 80 72 65 58 59 53 50 52 58 65 68 72 77 85 87 96 104 106 104 107 109 108 109 107 104 102 97 96 94 90 89 89 91 89 83 79 78 75 74 74 74 75 72 69
86 82 72 64 56 48 46 45 47 56 64 69 72 75 82 85 93 98 103 105 103 107 106 104 101 101 99 97 96 90 90 88 90 90 84 82 79 78 76 78 78 76 72 72 72
87 82 73 58 49 40 40 39 42 54 62 69 72 74 77 82 91 98 98 103 102 103 101 102 94 96 95 94 94 93 91 90 89 87 84 82 79 78 74 77 79 77 73 72 70
90 83 71 60 47 34 33 34 38 47 61 68 71 74 73 84 85 95 95 98 101 102 103 101 99 96 90 91 91 87 91 90 91 90 85 84 79 74 78 79 75 73 73 72 72
92 82 71 56 43 30 28 29 35 42 57 66 68 69 69 85 86 95 93 94 97 100 102 100 98 94 92 86 86 84 85 84 87 88 87 86 76 80 81 79 72 72 73 75 77
93 82 67 54 39 31 26 25 34 38 53 63 65 66 76 76 82 90 94 93 97 96 97 98 98 95 91 88 83 80 76 77 84 84 82 78 74 81 80 77 72 72 75 78 79
94 85 69 53 42 35 28 22 30 36 47 59 62 65 72 72 83 88 94 95 94 94 93 95 95 96 89 85 84 80 79 79 77 75 75 73 69 77 77 75 73 73 75 78 79
97 84 69 56 43 36 27 20 25 32 41 50 57 60 69 74 82 87 93 95 93 90 88 91 91 87 92 87 86 83 80 74 77 77 73 70 67 69 74 70 70 71 72 73 75
98 83 65 52 43 35 24 17 19 26 35 48 54 59 61 67 74 80 84 94 93 88 87 84 85 86 90 94 90 83 79 79 77 76 70 69 66 67 70 71 70 69 70 73 73
94 78 64 52 41 33 21 12 17 25 33 47 54 55 56 59 67 74 81 86 93 90 88 82 80 81 88 90 87 87 85 84 81 78 73 71 68 69 70 70 70 71 72 74 76
91 74 63 49 39 30 14 3 17 26 35 46 51 52 54 55 61 69 76 80 96 95 88 86 81 80 79 82 82 82 82 82 82 81 77 77 72 77 78 78 78 76 75 76 79
88 73 60 45 36 25 8 9 17 24 34 45 49 47 45 46 52 59 65 73 79 91 90 84 84 80 79 76 73 72 73 77 80 81 79 81 80 76 86 85 85 84 84 84 83
86 73 56 40 35 22 7 12 15 21 29 41 43 37 36 38 43 50 57 68 73 84 90 84 83 80 78 73 70 69 68 68 68 69 68 73 70 70 80 85 87 88 89 89 90
85 71 55 43 30 22 15 13 14 23 32 37 36 34 33 35 37 40 47 57 63 73 90 89 83 78 74 71 67 69 68 65 63 63 62 66 63 68 71 77 77 81 87 90 90
82 71 58 46 35 22 14 19 26 31 32 35 32 29 27 28 30 36 40 49 58 67 85 84 82 80 80 77 76 73 69 68 67 65 64 65 58 64 69 72 71 74 76 79 82
81 74 60 53 37 22 9 25 30 31 31 27 24 23 23 22 22 24 33 42 49 56 61 71 81 82 80 75 76 71 69 69 68 67 65 65 66 70 72 71 73 76 78 80 82
81 75 62 54 41 26 15 29 31 31 29 28 26 22 18 19 20 21 26 32 39 45 50 54 60 68 74 84 79 73 73 76 71 68 65 68 76 80 74 72 73 75 75 78 80
74 69 61 51 40 26 21 23 24 23 22 19 16 11 11 10 11 14 19 26 32 38 43 47 54 57 60 64 67 69 71 72 74 70 67 75 79 73 71 74 73 74 77 79 77
73 64 57 47 39 27 20 21 20 19 20 18 16 14 13 9 6 9 15 21 28 31 35 42 47 50 55 57 59 60 61 61 61 61 65 64 69 61 59 63 62 64 66 68 69
67 61 54 45 35 29 17 14 18 17 15 14 12 10 8 11 14 16 18 20 22 25 33 35 38 41 42 44 43 44 47 53 58 59 51 49 52 48 48 52 56 59 62 62 60
61 57 49 42 34 25 19 9 11 13 12 10 8 5 6 9 13 17 20 23 25 26 27 30 34 38 38 39 39 38 38 40 42 38 36 39 37 40 46 51 53 54 53 50 54
58 51 46 38 29 22 15 8 1 5 7 8 8 8 9 10 16 20 19 20 21 23 24 26 29 33 35 36 34 31 34 32 28 30 30 35 40 44 44 44 44 44 47 47 46
53 49 42 35 29 21 14 9 6 6 8 9 10 12 12 13 17 19 19 19 20 22 24 25 25 26 28 27 27 30 29 28 29 30 34 39 39 36 35 37 39 43 38 39 35
50 46 43 35 28 22 18 14 13 12 12 15 17 17 16 19 20 21 21 20 19 22 25 27 28 28 27 27 28 27 28 30 32 34 35 34 30 27 30 31 38 31 30 29 22

GFSSW_250_spd_030.txt.gz
Wind_Speed
90 80 72 64 62 61 61 56 52 53 61 68 70 73 81 90 101 104 113 123 122 120 115 111 109 106 101 98 95 91 86 80 79 81 84 79 76 70 68 68 67 65 65 65 62
91 83 76 71 67 62 62 62 57 54 60 67 72 73 80 87 95 102 110 123 125 122 118 112 108 108 105 100 95 91 86 84 84 87 89 82 76 73 70 69 66 66 66 65 64
92 85 80 74 69 65 61 57 57 57 56 64 71 75 78 83 90 99 109 114 122 123 118 116 113 106 106 103 97 91 86 87 90 90 90 84 79 74 72 71 72 71 69 68 66
93 87 80 75 67 59 56 53 51 53 52 59 65 75 76 81 89 99 107 114 114 124 115 115 114 112 107 103 101 96 92 92 93 90 90 85 80 76 73 73 73 73 73 73 71
94 87 81 75 61 52 48 45 46 47 45 54 60 72 78 82 91 97 104 109 113 123 119 111 111 112 112 105 103 100 95 94 96 93 91 87 80 77 74 77 75 76 75 73 72
97 91 84 74 60 50 44 43 43 45 44 48 57 69 76 78 84 92 101 107 111 114 119 111 107 110 112 109 102 99 98 96 93 91 92 89 85 79 77 78 77 78 75 74 72
99 93 85 73 57 46 38 38 38 41 44 45 54 65 71 75 80 87 95 103 109 111 111 116 102 107 109 110 109 102 99 98 93 91 89 89 84 79 83 79 77 76 78 75 73
98 92 84 71 55 44 32 30 31 35 39 43 50 61 69 78 78 83 89 97 103 105 108 114 112 97 101 105 102 101 99 96 94 94 92 90 82 81 83 84 80 74 74 73 71
96 90 81 68 54 41 32 28 27 29 34 40 47 60 70 74 73 77 83 90 98 102 107 107 113 107 97 95 96 91 91 93 94 95 95 91 82 83 84 81 76 75 73 73 75
96 89 78 65 52 42 33 26 21 21 29 38 48 62 68 71 73 76 81 87 92 98 104 104 104 107 106 92 86 89 81 89 93 93 90 86 80 86 83 82 81 80 79 78 78
95 89 77 64 53 43 31 19 10 14 26 36 45 57 63 71 72 74 79 84 87 94 98 101 100 94 91 96 88 87 91 84 83 82 79 79 75 80 83 81 81 81 79 77 80
95 88 75 64 55 41 30 13 2 13 26 39 49 62 66 68 62 68 75 82 86 93 100 98 95 98 96 90 89 89 84 78 77 77 74 74 72 72 78 76 76 77 78 78 78
92 85 75 63 52 38 29 14 3 14 29 38 48 56 60 60 59 65 69 78 84 91 100 90 86 94 92 88 88 87 84 78 80 78 74 73 70 70 72 72 72 73 73 75 74
90 84 74 59 48 39 29 16 6 16 26 36 48 58 60 59 60 62 65 75 81 85 89 87 84 87 92 91 88 87 87 84 80 78 72 70 70 72 72 74 71 71 72 73 73
89 84 73 59 51 40 28 18 10 10 19 29 43 46 44 41 47 53 60 70 80 82 82 87 80 83 88 90 88 86 85 84 84 78 76 74 69 73 72 73 74 74 74 75 75
88 80 71 58 47 40 27 20 16 10 16 26 33 34 37 40 45 49 52 62 76 78 79 78 79 80 84 82 81 79 80 81 83 83 77 76 75 75 77 78 80 79 79 79 80
87 82 73 62 52 39 30 20 18 18 20 28 29 29 30 34 36 37 45 56 67 73 69 67 73 76 76 72 73 75 77 78 78 81 79 82 81 81 79 82 84 83 83 84 84
84 80 74 64 57 47 30 22 24 26 25 25 25 23 23 23 24 30 39 48 58 66 67 66 72 76 73 71 71 71 69 70 71 71 75 77 75 76 76 79 81 80 81 83 87
79 75 70 62 55 43 29 20 27 26 26 24 20 17 17 17 21 25 29 37 45 51 58 60 66 73 76 72 70 70 67 65 67 66 66 67 69 67 69 69 69 70 73 76 78
74 69 65 58 51 44 31 23 22 20 17 17 15 16 13 13 16 20 26 31 36 41 48 57 58 72 81 79 76 71 66 65 64 64 61 63 68 68 67 66 66 70 72 75 76
72 65 60 54 46 41 27 22 20 18 18 17 16 13 10 8 7 12 17 24 31 37 43 49 56 61 73 86 80 73 65 63 61 62 65 69 70 67 64 66 69 70 70 72 78
69 62 58 51 42 34 30 20 14 15 17 16 13 11 9 9 10 11 15 22 28 33 37 41 45 48 59 76 76 75 73 71 69 71 72 68 68 65 66 67 65 67 72 75 73
62 58 52 47 40 30 23 19 14 11 11 11 9 6 2 3 6 12 15 19 23 27 31 35 38 45 50 61 77 79 75 77 74 74 73 73 71 68 67 65 65 65 67 65 65
59 54 49 44 38 30 19 14 11 6 4 4 2 1 2 4 7 9 12 16 20 25 28 31 35 38 41 46 50 51 52 51 53 54 57 59 55 57 59 59 58 56 56 57 54
56 52 46 41 37 31 24 13 8 8 7 8 9 9 9 10 11 11 14 16 19 21 25 29 31 32 36 38 38 40 42 45 44 44 42 42 40 42 43 46 47 48 48 49 48
51 48 46 39 34 29 26 22 13 9 10 9 10 12 14 14 12 11 14 15 17 19 23 26 28 32 35 34 35 36 36 34 33 30 31 35 33 35 38 39 41 42 44 40 41
49 43 42 40 33 30 25 22 19 16 15 14 15 16 17 17 15 13 14 12 13 14 19 23 26 28 31 33 34 33 32 30 28 28 28 30 33 33 35 37 36 37 34 38 35

GFSSW_250_spd_033.txt.gz
Wind_Speed
94 94 85 76 69 64 60 60 61 62 59 62 68 74 78 84 90 99 105 112 120 125 122 119 115 111 107 102 97 94 92 84 81 87 91 86 80 77 74 71 70 70 71 73 75
98 92 84 78 71 66 63 62 61 63 64 60 66 72 80 82 87 93 105 114 118 123 124 121 120 115 109 105 101 95 88 85 86 88 89 89 85 79 75 73 71 69 69 68 67
99 92 85 79 75 71 64 60 59 60 61 55 60 70 76 83 86 91 101 111 117 118 124 125 124 120 112 109 104 97 90 89 90 93 90 85 82 78 74 72 72 69 69 69 68
97 90 85 80 77 70 60 54 50 53 55 49 54 65 72 82 86 90 95 105 112 118 121 126 124 119 113 107 106 99 93 92 95 93 91 86 81 76 72 72 69 68 68 70 70
97 91 86 80 73 64 54 46 44 43 44 44 47 58 71 77 82 89 91 98 106 115 119 124 125 119 116 110 108 104 96 96 98 94 92 89 84 79 77 75 74 72 71 70 71
98 92 84 81 72 60 48 41 39 37 35 36 43 51 65 70 79 86 89 93 100 111 115 121 124 125 119 114 112 106 101 100 99 96 94 91 86 81 78 79 76 75 73 72 72
99 92 87 81 71 57 43 35 31 31 29 29 37 43 56 66 75 80 87 90 96 106 114 117 127 120 119 117 113 109 105 102 99 96 91 89 87 79 82 82 79 77 74 72 71
98 91 87 78 68 50 39 32 27 26 25 25 30 38 52 64 75 83 81 85 90 100 107 115 119 127 120 118 115 109 106 101 98 96 94 90 85 81 83 82 82 80 77 75 75
98 91 88 77 63 51 39 30 23 20 21 23 27 40 48 62 70 75 75 81 86 95 102 110 113 116 124 115 113 112 106 102 98 97 95 92 87 86 84 84 83 80 82 81 79
98 91 86 75 61 50 38 29 21 13 17 23 31 41 50 59 67 66 68 74 81 90 97 104 110 108 117 111 103 101 101 103 101 104 96 93 86 88 88 86 84 81 81 81 81
97 91 86 75 61 51 40 30 17 8 16 26 35 45 48 56 61 59 63 70 76 84 88 94 99 102 104 112 100 89 95 100 100 96 97 95 88 88 90 89 86 84 84 81 80
96 90 85 75 60 51 41 28 13 2 15 24 34 38 46 53 57 58 56 65 69 78 83 88 92 100 104 103 102 95 87 89 93 96 95 92 91 96 95 93 87 83 85 86 86
96 90 84 73 59 51 39 28 20 9 12 21 30 38 45 53 55 54 52 56 61 67 75 79 86 93 101 99 101 87 80 84 86 88 89 89 89 91 92 90 85 83 83 82 81
95 90 83 74 61 51 39 32 27 16 12 15 23 35 45 52 52 53 61 61 64 64 72 79 84 92 95 96 96 99 85 80 81 81 76 78 75 79 80 80 79 77 77 75 74
93 89 81 76 62 53 44 31 27 22 14 11 21 29 39 45 47 50 56 62 62 70 73 74 79 89 93 93 94 94 100 89 78 77 77 74 70 74 72 72 73 74 73 73 74
89 87 81 76 65 58 46 30 27 24 21 16 11 27 37 39 42 45 49 49 59 70 73 70 73 80 84 87 89 91 93 95 91 83 75 76 76 74 73 72 73 73 72 73 73
82 81 79 74 65 58 49 37 26 27 23 20 21 20 25 33 37 40 44 45 51 61 67 63 65 70 77 83 84 86 87 86 89 85 82 78 74 71 70 72 73 72 71 71 74
76 74 72 68 63 56 52 42 29 20 21 19 19 22 25 26 29 33 35 41 47 54 59 61 57 60 69 75 78 82 81 81 82 82 83 85 82 76 76 78 77 76 74 74 75
72 67 65 63 59 52 49 40 33 24 17 15 18 17 17 18 22 29 34 37 40 45 53 55 53 57 60 66 74 74 73 77 80 80 80 82 84 85 82 85 81 78 79 82 82
68 65 62 58 54 46 40 37 26 21 18 18 16 12 11 11 16 22 27 33 38 41 43 48 56 57 58 59 66 73 70 69 73 79 81 81 82 82 82 77 79 85 84 83 82
62 59 55 53 48 43 34 33 25 18 15 14 15 14 12 11 12 14 20 26 33 39 40 42 47 55 57 53 57 60 64 64 66 69 74 76 76 73 70 68 71 72 75 78 79
57 53 51 50 44 40 32 25 22 19 14 12 11 11 9 6 6 12 16 22 28 33 36 38 42 47 53 56 58 61 60 59 62 64 67 67 65 63 63 64 66 65 67 70 72
56 50 45 43 41 34 32 24 16 14 14 13 11 10 8 5 2 3 8 14 20 26 33 38 41 45 48 49 51 57 63 66 64 62 62 58 56 58 58 58 61 62 66 68 69
53 51 45 40 37 32 28 25 17 10 7 8 8 8 6 4 3 4 5 10 16 21 25 30 36 40 44 46 47 48 53 62 70 67 62 59 57 54 54 58 63 66 67 71 73
52 48 43 39 35 32 27 21 17 14 9 7 8 8 8 9 8 6 8 9 13 19 23 27 31 35 37 41 44 46 48 52 60 68 67 65 60 62 58 63 65 63 60 64 61
51 46 44 38 33 32 28 22 18 14 12 11 10 11 12 11 11 10 6 10 16 17 20 24 27 30 33 37 40 43 46 48 50 54 61 68 66 62 50 51 53 54 53 46 37
49 45 41 39 36 31 27 24 22 17 14 14 13 13 14 14 12 11 7 8 13 19 22 23 24 27 30 31 34 36 39 41 43 44 44 43 41 37 38 40 43 41 33 30 34

GFSSW_250_spd_036.txt.gz
Wind_Speed
91 88 82 77 73 67 62 59 55 55 52 56 64 70 72 76 80 85 97 107 119 128 129 126 120 115 112 108 102 98 98 89 85 85 86 85 82 80 80 80 79 78 77 77 74
92 88 81 79 75 69 65 62 60 56 54 59 63 71 74 78 84 84 93 107 111 123 129 128 124 119 115 110 106 101 93 91 91 90 89 88 85 80 78 80 80 79 78 79 79
91 86 82 79 75 71 65 60 57 52 51 56 61 69 74 80 85 88 93 103 110 118 126 129 127 123 118 114 109 102 93 94 98 97 95 89 85 83 79 78 77 76 77 78 78
90 83 81 77 71 68 60 53 49 45 45 50 54 61 68 79 83 89 93 97 106 114 120 128 129 124 119 116 111 105 100 97 101 101 99 93 88 84 83 80 77 76 76 74 73
90 86 84 77 73 66 57 46 41 38 39 42 45 50 60 72 79 87 94 94 102 110 117 123 127 126 122 118 113 109 103 102 103 103 100 96 91 87 85 86 83 80 79 79 76
93 88 85 79 75 64 51 43 35 33 32 34 39 41 49 62 77 86 93 93 97 106 113 120 127 128 126 120 119 113 106 106 106 102 99 96 94 88 85 85 86 86 85 83 79
93 91 88 81 72 59 49 38 30 26 26 27 32 39 46 61 73 80 88 90 94 101 109 118 122 130 126 122 121 117 111 109 108 104 100 96 91 85 88 85 82 83 82 81 77
94 92 88 84 74 58 47 37 27 20 19 19 25 37 54 60 70 77 82 85 93 97 101 111 120 127 130 125 121 119 116 112 111 106 101 99 93 87 88 85 83 82 81 80 79
94 91 87 82 72 57 46 36 23 15 15 21 28 36 45 57 65 73 76 82 87 92 95 103 113 120 126 129 124 120 114 113 109 107 102 98 95 90 87 87 86 84 83 82 81
95 91 87 82 71 57 47 37 25 15 9 20 26 35 45 53 64 70 75 77 81 87 91 96 106 116 120 125 123 117 115 112 111 107 104 101 97 94 91 89 89 88 86 83 81
94 90 87 82 72 57 46 34 26 19 4 20 27 38 46 54 59 66 68 70 76 82 85 89 97 103 115 118 123 121 116 116 114 111 107 101 96 96 95 90 90 87 86 84 82
94 90 86 80 71 57 45 32 27 19 3 16 27 32 37 43 56 63 62 66 68 74 79 82 86 97 112 116 114 122 119 111 115 109 106 102 97 99 98 93 90 88 88 87 85
92 87 85 79 74 61 50 35 32 24 12 17 24 30 34 40 46 47 46 61 64 67 72 75 80 86 100 111 113 110 118 112 111 109 105 101 100 102 100 96 91 90 91 89 87
90 87 84 80 74 63 53 40 30 32 21 16 23 27 33 38 43 45 53 57 56 60 67 70 73 77 88 101 106 107 112 111 104 107 106 103 102 103 100 97 94 92 91 89 87
88 85 83 77 74 65 55 45 31 33 25 16 19 25 32 41 46 53 54 49 49 54 58 63 66 68 78 88 95 100 104 107 100 99 101 102 102 104 102 99 96 95 95 96 95
84 81 78 75 71 65 56 45 35 32 28 20 15 17 28 35 42 44 46 47 51 53 58 62 63 66 73 80 86 94 101 101 98 88 82 86 89 95 94 91 91 90 90 89 89
78 76 73 71 67 63 58 50 43 35 26 20 18 17 22 31 32 36 39 41 47 52 55 56 57 63 69 76 80 85 94 97 94 88 79 73 72 76 78 79 81 83 82 78 77
72 71 68 64 62 59 53 46 42 30 25 19 16 19 24 23 24 25 26 31 35 38 43 44 47 57 59 66 70 77 85 91 87 81 81 82 80 74 71 71 70 70 71 72 73
69 65 63 60 56 51 49 42 35 26 23 18 13 8 13 17 20 24 26 29 30 31 33 31 36 42 51 56 62 69 76 85 91 87 82 80 79 80 80 79 74 73 75 75 76
66 61 56 54 52 48 43 35 31 27 21 17 14 14 13 12 13 15 20 25 28 28 31 32 35 39 41 48 56 65 73 79 85 88 87 88 87 83 82 79 74 74 76 76 77
63 59 53 48 46 42 39 32 28 24 19 15 12 9 8 11 16 21 25 26 28 29 32 33 33 35 39 44 49 56 66 72 74 79 83 88 87 88 86 83 83 84 81 80 82
59 57 52 45 42 39 35 31 25 20 17 14 12 10 8 6 7 12 20 23 24 27 33 34 35 37 38 43 50 54 60 66 71 76 79 82 83 82 82 83 85 86 84 84 85
57 52 49 45 37 36 32 27 23 18 14 10 9 9 8 5 2 5 8 13 19 24 27 31 35 38 40 41 45 51 54 56 64 71 70 72 74 73 77 81 80 79 79 81 82
55 50 45 42 37 33 31 26 20 16 11 11 8 4 3 3 3 4 5 9 14 20 25 29 33 36 39 41 43 46 51 54 53 58 66 67 66 64 65 64 65 66 66 67 69
54 50 45 38 35 30 29 27 23 17 13 9 11 10 7 5 4 6 6 10 10 14 20 27 31 32 35 40 44 46 47 51 57 56 57 55 55 55 55 52 54 55 56 57 59
52 48 46 38 33 28 25 23 21 18 15 11 10 11 10 9 7 7 7 10 13 13 16 20 26 32 34 37 39 41 44 49 51 55 57 59 58 57 54 52 53 53 54 59 60
53 46 43 40 33 30 25 23 20 16 15 13 12 12 13 12 8 7 6 8 12 15 15 17 21 25 29 33 36 39 42 43 43 43 43 46 49 56 55 53 56 57 58 58 61

GFSSW_250_spd_039.txt.gz
Wind_Speed
78 77 74 71 70 71 70 66 60 56 55 55 59 69 75 75 78 82 88 94 103 113 120 128 124 121 118 114 108 104 100 95 93 91 96 96 93 90 87 86 85 80 76 77 75
81 78 73 70 69 68 66 64 59 55 54 55 61 70 76 78 80 81 88 95 103 111 117 127 129 127 120 118 110 106 101 93 92 95 96 96 95 94 90 89 88 86 83 81 80
81 78 74 70 69 66 66 61 54 48 46 49 61 68 76 82 81 83 88 96 102 107 115 124 133 131 125 122 115 108 100 98 102 98 94 93 96 90 89 87 87 86 83 83 82
80 78 75 72 70 68 63 54 50 45 41 40 47 65 76 84 86 91 89 96 99 105 111 119 133 133 128 123 117 111 105 106 105 99 98 96 98 91 87 86 83 83 84 85 84
82 81 77 75 72 68 58 50 44 41 41 40 42 55 72 83 90 90 93 95 98 104 109 116 126 134 130 126 123 115 110 108 101 103 104 100 95 89 90 86 82 78 76 77 79
85 83 80 78 73 67 56 47 38 34 33 34 37 49 63 73 85 90 93 95 97 101 108 113 122 131 134 131 125 117 113 109 107 108 107 101 98 93 89 85 85 82 79 76 74
87 86 82 81 78 71 57 47 36 30 27 29 31 41 52 62 76 92 95 94 94 98 104 110 119 126 135 132 128 122 114 113 111 110 108 105 98 91 93 87 85 81 81 81 79
88 88 84 83 80 71 57 48 38 25 20 24 29 37 46 50 67 84 92 93 89 96 100 107 112 124 127 133 131 125 119 116 113 112 108 105 98 98 96 91 87 85 82 82 85
88 87 84 82 79 69 57 47 37 21 12 18 25 30 33 48 62 76 86 91 90 93 95 100 105 114 121 130 131 129 122 118 116 113 110 106 103 97 95 92 92 91 88 86 85
87 87 84 82 79 70 57 47 32 16 6 10 22 30 41 49 55 71 81 87 88 87 90 94 98 106 113 122 129 124 121 121 118 114 111 107 104 100 97 96 93 91 90 89 86
88 88 86 83 79 72 59 48 31 21 13 5 17 24 35 45 55 66 72 77 83 84 85 91 94 96 103 112 124 129 125 123 122 115 114 111 107 102 100 99 97 92 88 87 87
88 88 86 83 80 74 61 50 32 26 16 5 13 22 30 39 47 53 64 69 72 77 76 81 86 90 98 106 116 124 123 119 121 118 115 114 108 103 102 100 98 93 90 87 85
89 88 86 84 81 76 65 51 36 30 20 10 9 16 25 39 49 56 52 56 61 68 71 74 79 81 87 96 108 113 125 120 120 117 116 112 109 110 106 102 100 97 93 90 88
88 88 85 82 79 74 66 52 37 31 24 14 15 15 19 25 34 43 52 59 64 67 67 67 72 75 81 91 101 110 116 123 119 118 118 115 113 111 109 106 104 99 96 93 91
84 85 83 79 77 72 66 54 40 31 26 16 12 18 21 26 34 47 54 58 55 59 59 59 63 68 76 83 93 104 111 115 123 120 117 116 116 110 109 108 105 103 100 97 96
82 80 80 76 73 70 64 57 44 40 28 23 13 15 25 30 40 46 46 48 46 47 52 55 59 63 68 73 79 91 104 110 115 122 119 116 115 111 111 106 104 103 102 99 98
77 77 74 72 68 66 62 57 48 41 29 22 17 12 15 23 31 36 40 44 45 47 48 54 56 58 63 66 71 84 93 103 109 112 119 116 115 113 110 108 106 105 102 99 98
74 72 68 66 63 60 56 51 47 38 30 23 17 13 11 12 15 20 29 33 36 39 42 44 46 53 57 59 66 76 86 94 101 105 106 110 111 109 107 107 106 105 104 103 100
71 68 65 60 57 55 51 45 42 33 28 20 16 12 8 8 8 8 12 21 25 27 31 33 38 44 48 51 59 66 75 84 92 98 101 103 101 99 98 101 105 104 104 103 102
68 65 61 57 51 48 47 41 35 30 25 18 13 9 6 3 5 10 13 13 13 18 20 23 27 34 39 45 52 58 68 75 83 89 94 97 96 91 86 86 90 92 92 98 102
64 64 56 52 49 44 42 40 33 27 21 16 12 7 3 6 7 9 11 12 14 17 19 22 24 27 31 38 45 51 58 65 72 79 87 89 92 89 85 75 71 72 72 72 70
64 60 56 50 44 40 37 35 30 26 21 15 13 10 7 6 3 3 8 12 15 19 22 22 25 27 29 31 38 46 55 59 63 71 77 89 86 85 85 82 80 78 77 76 75
62 57 54 47 43 36 33 31 26 21 19 15 10 8 5 2 1 5 8 11 15 19 24 26 27 29 32 32 34 38 45 54 60 64 69 79 86 81 78 79 80 81 82 81 81
60 56 51 46 40 36 30 29 27 21 17 14 9 4 3 4 5 7 9 11 13 16 18 24 29 31 32 36 39 40 40 45 54 60 68 69 73 87 86 82 81 80 81 82 83
60 54 50 44 40 34 29 26 26 22 17 15 13 11 9 7 7 9 9 12 13 14 16 19 22 28 32 34 37 45 48 49 52 59 63 67 72 76 84 90 91 90 89 88 89
58 52 48 43 38 35 32 26 24 23 19 16 15 14 13 12 11 11 11 12 15 14 16 19 21 23 26 32 37 39 45 51 54 54 58 62 65 67 70 71 74 77 77 74 71
56 52 47 43 39 35 32 29 25 25 22 17 16 17 17 16 16 14 13 13 14 16 16 17 20 23 25 27 31 36 41 44 51 53 53 55 57 57 59 65 67 66 63 62 57

GFSSW_250_spd_042.txt.gz
Wind_Speed
81 75 69 67 64 62 64 63 63 62 57 53 54 56 63 68 71 78 84 87 97 106 110 116 125 125 122 115 108 109 106 100 96 95 92 96 92 89 86 81 77 79 69 68 73
81 75 70 68 65 65 63 61 62 60 56 53 54 58 66 73 73 73 83 92 95 105 110 113 124 128 127 120 115 111 107 101 98 95 98 99 93 94 88 88 81 81 78 75 76
81 75 71 69 66 65 60 58 56 54 48 45 49 57 69 77 75 79 84 93 96 102 108 113 121 128 130 125 117 110 106 105 106 102 100 100 94 96 91 89 85 83 81 77 77
81 77 74 73 70 67 61 53 46 44 41 40 42 49 63 73 79 84 85 93 98 101 106 111 119 127 131 125 116 113 111 114 107 108 103 100 97 98 92 92 90 85 79 81 82
83 78 77 75 73 68 63 53 42 36 34 37 37 42 57 72 86 86 88 91 98 101 104 109 115 122 129 129 124 118 117 116 113 107 102 98 96 100 97 92 90 84 84 85 82
84 79 79 77 75 70 64 53 44 36 31 29 35 38 47 67 81 87 89 91 96 99 103 106 113 119 129 133 129 123 124 120 116 106 103 103 103 95 96 94 87 86 86 85 85
85 81 80 78 77 74 65 52 44 41 32 24 26 35 46 61 72 90 91 93 96 99 103 105 111 119 123 131 132 130 127 122 116 108 108 108 105 95 92 90 88 85 84 82 82
89 83 82 80 78 75 66 55 48 41 32 22 19 31 41 56 68 86 92 92 93 96 101 105 108 113 121 126 134 134 131 126 119 111 112 107 100 98 98 90 87 84 84 81 79
91 88 83 81 79 76 68 58 48 38 26 17 14 23 36 52 62 77 90 90 91 94 98 102 104 107 115 122 131 134 133 127 121 115 114 108 104 101 99 92 88 87 82 81 82
93 90 86 83 80 77 71 60 48 33 22 11 3 18 29 40 50 64 82 88 89 91 92 94 100 104 109 115 124 131 131 127 123 120 116 110 108 105 99 94 92 91 90 85 82
95 91 88 84 80 77 73 63 49 31 24 17 4 11 23 36 45 55 73 83 87 90 87 91 94 94 101 109 117 124 132 130 128 123 118 113 111 109 102 98 97 95 92 89 87
96 92 89 86 82 78 74 66 50 34 29 20 9 5 17 28 39 52 66 75 87 87 82 82 85 92 96 103 110 116 126 128 129 123 119 116 113 110 105 100 100 97 92 89 88
95 92 90 87 82 78 74 68 53 36 31 22 14 7 12 24 38 48 60 67 79 84 82 80 82 85 88 92 99 105 111 128 126 123 122 120 115 112 106 106 104 98 96 94 91
93 91 88 85 82 77 72 68 57 41 31 25 17 13 13 18 25 34 47 60 68 76 79 78 76 75 78 83 90 95 104 115 125 125 125 122 117 114 111 107 107 102 99 95 93
90 88 86 84 81 75 70 66 58 45 37 28 19 16 13 19 23 32 43 52 58 62 66 69 68 67 67 73 80 89 96 106 115 126 126 122 118 117 111 108 107 105 102 98 96
88 86 83 80 77 74 68 64 60 51 41 34 25 15 10 16 25 33 40 44 49 52 59 62 63 64 63 66 74 78 88 98 110 116 121 122 120 118 116 111 110 106 105 102 100
85 83 79 75 73 69 66 61 57 51 41 31 27 21 12 5 13 26 34 40 42 44 47 51 56 58 59 60 65 72 80 91 101 110 108 117 120 117 116 114 112 110 106 104 102
85 80 75 70 66 63 59 57 53 48 38 30 24 22 21 15 7 7 16 19 24 31 35 41 45 48 50 52 57 66 75 82 89 96 103 108 113 117 112 115 115 113 110 108 105
85 79 73 67 62 57 53 49 48 44 37 31 25 20 17 15 12 7 3 8 12 17 22 25 32 38 42 45 51 57 63 71 78 84 91 97 102 111 109 111 111 111 111 110 109
85 78 72 64 60 54 49 44 40 37 33 28 22 18 12 9 7 8 5 2 5 11 12 19 25 30 35 38 44 49 58 64 70 78 82 90 96 100 106 108 108 109 110 110 109
82 77 72 62 54 51 46 41 37 34 31 24 19 15 10 7 3 3 6 10 13 14 14 16 20 22 29 33 41 47 53 58 66 71 79 84 87 90 96 100 104 105 105 104 105
80 74 69 60 52 47 43 38 34 30 25 23 18 13 10 7 2 4 6 7 11 13 17 18 22 26 28 32 36 42 49 54 58 64 71 78 82 85 88 91 94 95 96 97 97
78 73 67 62 49 46 40 36 32 30 24 20 17 12 7 5 4 3 2 4 10 13 15 18 22 25 27 31 35 39 44 50 54 60 64 70 74 80 82 84 85 87 85 85 86
76 72 66 61 52 43 39 34 30 28 24 21 17 14 11 7 6 4 5 7 8 12 16 18 20 24 26 31 32 36 39 43 51 56 61 65 69 77 82 83 81 80 80 74 71
76 69 65 60 52 42 38 33 29 27 25 21 19 17 14 13 11 10 10 10 11 13 17 21 23 25 27 29 32 34 36 40 42 50 53 61 62 69 71 77 79 83 83 82 79
74 69 63 57 51 45 38 35 29 25 24 22 19 17 16 14 14 16 16 15 14 15 16 19 22 24 27 29 31 35 39 40 42 43 47 52 57 61 63 71 74 82 75 74 72
70 69 63 54 49 44 38 35 32 28 24 23 21 19 18 18 17 16 17 19 17 17 17 18 19 21 25 27 30 33 39 44 44 43 43 44 51 56 62 64 63 78 79 77 78

GFSSW_250_spd_045.txt.gz
Wind_Speed
83 78 70 64 62 62 61 58 56 57 61 59 56 58 60 62 66 70 73 78 86 93 98 109 114 120 122 119 117 114 114 111 101 96 92 95 89 87 82 82 78 72 71 71 67
84 80 71 67 66 63 59 59 55 54 56 59 59 55 60 66 67 68 77 80 88 95 98 105 115 118 122 121 120 117 113 109 104 98 97 95 88 87 85 83 81 76 75 75 73
85 79 72 67 66 65 62 57 54 52 48 49 51 51 52 63 67 72 80 81 87 92 99 103 112 117 122 124 123 120 112 110 109 103 102 98 93 89 91 88 83 82 76 75 74
86 82 72 68 67 64 63 59 52 43 40 40 45 45 46 57 68 80 77 82 87 93 100 102 108 114 118 122 125 122 117 114 113 111 106 100 96 95 93 92 87 84 79 76 74
88 85 76 73 71 68 65 62 53 38 28 29 35 42 47 55 74 79 81 85 87 93 98 103 105 111 115 124 127 124 120 118 116 111 107 104 101 99 97 92 89 86 83 78 77
90 87 80 76 76 73 68 63 53 43 35 24 25 34 38 46 64 77 84 84 85 91 96 101 104 110 116 125 127 125 125 123 119 112 111 111 107 101 97 94 90 88 83 84 80
94 89 81 78 77 73 69 64 55 48 40 30 19 23 34 45 64 77 84 84 86 89 94 100 104 108 114 122 127 129 129 126 119 114 113 112 108 100 99 93 89 89 87 86 83
98 91 86 79 79 78 72 66 57 49 38 29 15 13 28 44 60 75 79 84 84 85 93 100 103 108 112 119 125 129 131 127 120 118 116 116 109 104 100 95 90 90 90 87 85
102 96 90 82 80 79 73 67 59 48 35 25 12 9 25 45 58 65 71 83 82 82 88 97 100 102 110 115 124 127 130 126 124 120 119 118 108 106 104 98 94 89 87 88 87
107 100 92 86 83 80 74 68 62 48 34 23 13 3 19 39 50 59 70 80 84 88 95 94 97 98 104 110 116 119 126 125 125 122 122 121 112 111 107 101 97 93 90 87 84
110 104 96 90 85 82 75 68 66 51 36 27 17 5 10 27 37 48 66 82 88 89 87 87 89 91 99 106 114 120 126 131 129 126 125 123 119 113 108 105 102 98 95 91 87
109 105 97 91 87 85 80 72 66 54 38 29 19 10 5 17 30 44 61 78 78 79 79 80 85 91 96 101 109 114 119 128 130 127 126 127 120 116 108 105 104 102 97 94 91
107 103 97 92 86 83 78 72 67 56 43 32 22 14 6 15 26 34 45 65 77 78 79 75 78 85 90 94 99 108 113 123 128 126 125 126 121 117 112 108 106 105 101 96 94
104 101 96 92 85 82 75 68 62 56 47 31 25 18 11 7 22 37 47 58 70 75 75 73 71 75 83 88 92 98 107 114 121 126 127 129 122 121 115 111 108 106 101 100 95
100 97 96 91 85 81 74 67 60 57 50 36 27 22 14 10 12 29 43 56 65 70 68 69 66 70 73 82 85 86 89 101 111 121 127 129 123 121 120 114 110 108 106 101 97
98 96 93 90 85 78 73 66 61 58 49 43 28 24 22 11 14 20 37 50 57 64 63 67 67 62 62 63 71 73 78 90 99 111 122 128 125 121 119 117 116 112 108 106 103
98 93 92 88 84 75 72 63 57 52 48 42 34 24 21 19 12 17 29 43 48 54 59 58 58 61 59 59 61 61 69 81 90 98 106 118 126 119 120 118 115 113 111 109 106
99 91 89 85 80 73 67 60 53 48 45 38 31 24 19 22 15 8 18 30 41 47 51 52 53 53 54 57 59 61 64 72 83 90 97 110 112 118 120 117 116 115 113 111 110
99 93 88 83 76 70 64 59 50 44 41 35 29 23 18 16 18 15 11 15 25 31 35 38 42 45 47 51 54 56 58 64 72 84 92 99 102 104 111 118 119 116 114 113 110
98 92 86 81 73 67 59 56 49 41 37 32 28 22 14 11 11 18 18 15 13 20 22 24 27 32 38 40 45 49 54 59 64 73 81 86 90 97 101 106 114 115 115 114 113
103 97 88 82 77 66 54 50 46 42 37 33 28 23 17 10 7 6 11 14 15 17 17 20 23 22 28 35 39 42 49 52 59 65 73 78 81 85 94 100 102 107 112 114 114
99 96 87 82 76 66 52 43 42 38 33 29 26 23 17 12 7 3 6 7 9 12 15 18 22 25 27 32 37 41 46 50 55 60 66 72 74 80 85 91 97 99 102 105 109
100 96 89 82 73 66 53 42 36 34 31 27 24 20 18 13 6 2 2 8 12 14 14 16 19 22 28 32 36 39 41 46 50 56 62 65 68 71 77 83 87 91 95 98 99
101 97 90 83 75 66 51 41 34 30 28 25 22 20 16 14 13 7 4 5 8 12 18 21 22 24 27 29 31 36 38 41 44 49 56 59 62 66 71 76 80 84 88 91 92
97 97 86 81 72 63 52 37 32 27 27 23 20 16 16 15 13 12 11 8 8 9 12 15 22 27 29 31 32 33 36 40 44 48 51 55 57 63 68 70 75 78 81 84 87
97 98 93 82 72 64 54 38 29 25 25 23 20 17 14 14 13 14 13 13 12 13 14 15 15 22 28 31 34 35 37 39 44 46 51 52 54 60 64 67 72 74 76 78 80
88 97 94 82 70 61 51 39 29 23 23 22 20 19 17 15 15 15 15 16 16 15 15 16 19 19 24 28 33 36 37 38 41 43 45 48 54 54 60 64 68 69 71 73 73

GFSSW_250_spd_048.txt.gz
Wind_Speed
86 76 68 62 56 56 54 51 52 51 54 58 58 60 64 64 65 65 67 75 81 86 93 99 104 114 115 119 122 117 114 107 98 99 97 90 86 82 77 77 76 71 69 69 66
93 79 70 62 56 53 54 51 51 50 50 54 56 57 60 66 66 64 73 77 79 85 91 99 104 110 116 121 120 118 114 103 102 100 100 98 93 87 83 79 80 75 72 71 71
95 83 72 62 57 54 52 53 51 49 46 45 50 50 52 61 66 69 78 80 81 87 93 99 103 107 118 120 121 119 113 110 109 105 107 101 99 95 90 82 80 80 77 74 70
100 88 76 64 60 59 57 56 52 48 38 31 37 47 46 49 62 78 77 78 82 86 93 97 100 104 111 117 121 121 116 116 113 111 108 106 105 100 96 87 82 83 82 78 75
104 93 79 69 62 61 61 58 57 50 36 25 23 36 40 41 61 74 74 77 81 84 91 95 97 101 105 117 119 120 120 120 118 115 113 112 109 101 97 93 86 84 83 81 78
104 95 82 72 66 64 64 63 60 51 39 31 23 26 37 43 55 68 76 82 83 86 89 92 93 100 104 111 119 119 122 124 122 120 117 116 111 104 100 96 91 83 85 83 81
105 98 90 76 69 67 66 64 60 52 42 33 25 20 32 42 49 64 77 81 86 86 86 91 95 97 101 106 119 121 124 128 125 123 118 118 117 108 102 102 96 90 83 84 84
108 100 94 83 73 69 70 66 61 54 43 33 24 15 27 37 45 58 68 79 84 85 86 91 95 97 101 104 114 119 125 128 125 125 121 119 118 116 111 106 100 93 88 87 86
105 101 99 88 77 74 73 70 65 58 44 34 23 11 19 30 45 55 63 75 84 88 87 90 92 93 97 101 107 118 121 125 125 125 124 121 119 117 116 115 103 95 91 87 88
105 102 99 91 84 77 76 74 68 61 45 36 25 14 10 28 46 56 64 73 82 86 87 88 87 90 92 96 97 109 115 125 126 126 125 123 121 121 118 114 107 99 94 92 89
103 102 100 91 86 80 77 76 70 62 48 38 27 16 3 15 34 46 52 67 79 84 84 81 80 81 87 94 97 107 117 122 125 127 127 126 125 123 120 116 110 104 98 95 92
107 101 100 93 86 82 77 73 69 60 52 42 29 18 9 8 23 34 47 62 72 76 78 76 74 80 86 91 96 103 113 119 129 129 128 128 126 124 119 116 111 108 104 99 95
106 102 100 96 86 84 79 71 69 62 54 43 30 20 12 11 19 28 48 60 68 72 74 75 77 80 83 89 93 98 108 116 128 127 127 127 126 123 120 115 111 110 105 103 99
109 104 103 99 90 84 77 70 67 60 56 44 32 20 15 4 18 28 39 52 63 69 74 77 77 77 80 85 89 94 101 111 120 131 127 128 125 123 121 118 112 110 108 105 101
110 107 105 97 90 85 76 69 63 60 51 47 37 23 16 7 9 22 30 43 59 66 68 66 65 68 73 81 85 92 96 106 115 121 131 127 123 121 121 117 114 111 108 107 102
111 107 103 97 90 83 76 68 60 57 50 46 39 27 16 10 7 19 30 34 40 52 55 56 57 64 68 72 78 84 91 97 106 115 119 123 123 119 119 116 116 115 112 110 107
111 109 105 99 89 83 73 68 59 53 51 44 39 30 16 13 8 14 23 28 36 40 45 50 48 48 52 58 66 72 81 86 90 97 104 118 123 117 122 117 117 116 114 113 109
108 109 105 101 89 81 71 63 55 50 47 41 37 32 20 11 13 10 20 25 31 37 42 43 42 43 48 50 54 60 63 72 82 85 100 111 112 112 122 124 122 116 114 113 113
104 109 107 103 94 80 71 59 55 42 40 37 32 30 24 12 10 13 13 17 23 28 28 32 36 37 40 45 51 54 58 63 69 79 90 95 101 106 111 121 123 121 118 116 113
100 108 107 103 95 84 72 58 51 42 34 29 28 26 22 16 6 10 15 16 23 28 30 30 33 36 38 42 44 49 55 56 59 67 78 86 90 94 103 108 114 119 122 120 118
100 107 106 104 98 85 71 62 44 44 31 26 21 20 19 13 6 4 14 16 19 22 26 28 30 31 31 35 39 42 47 52 58 60 68 78 81 89 96 99 105 110 114 117 119
98 104 106 102 101 88 67 59 47 39 34 26 20 15 13 11 3 3 9 14 17 22 26 28 30 31 34 35 38 42 46 49 55 61 65 69 75 81 87 92 94 100 105 109 116
101 103 106 102 99 86 64 55 46 35 32 26 21 14 9 7 6 1 6 11 16 19 23 24 28 31 33 33 36 39 43 46 48 52 58 63 66 72 77 83 87 90 96 103 107
98 101 100 101 96 83 73 58 45 37 29 26 22 16 9 5 3 2 4 5 10 15 18 21 25 29 31 31 32 36 39 41 43 47 53 56 62 66 70 75 80 84 87 92 96
99 100 97 103 95 80 75 62 47 40 28 24 21 19 13 7 4 4 4 6 7 10 14 18 21 25 28 29 32 35 37 38 42 46 47 51 53 59 63 68 74 78 81 83 87
98 101 92 98 93 86 73 57 46 39 31 24 23 20 17 13 10 8 7 9 10 12 12 14 19 26 30 31 33 34 36 39 41 42 44 47 51 55 60 64 70 74 74 75 77
98 103 100 94 90 86 72 61 52 39 31 25 22 20 20 18 15 14 13 13 14 14 14 14 15 19 24 31 35 37 37 38 38 41 42 42 50 51 55 60 64 67 69 70 72

GFSSW_250_spd_051.txt.gz
Wind_Speed
92 84 77 67 59 51 47 47 46 49 50 47 51 51 60 60 63 65 66 77 85 90 96 99 97 98 98 104 113 116 117 109 104 102 101 93 90 87 84 79 74 71 71 68 64
95 91 80 72 64 54 48 46 45 45 47 48 47 51 57 64 63 63 74 79 85 87 91 98 98 99 99 100 113 116 114 108 105 102 100 99 94 88 85 84 80 76 74 70 67
99 91 85 76 65 55 49 46 47 45 43 43 45 48 51 60 62 70 76 80 85 87 89 96 98 96 101 101 110 117 118 115 112 109 106 102 101 93 86 84 82 78 76 75 70
101 94 87 80 67 57 50 47 48 46 42 37 34 42 45 49 60 71 79 81 85 87 89 93 93 92 97 98 105 115 115 116 116 114 107 103 101 97 89 85 83 80 79 64 73
101 100 91 85 72 61 53 49 49 46 42 33 25 29 41 47 52 66 74 80 80 83 85 88 89 91 94 99 103 113 117 119 119 115 112 108 104 100 95 90 86 81 77 70 67
102 99 94 89 78 67 56 51 52 47 45 35 27 23 29 40 47 59 65 74 82 83 85 83 86 91 95 101 103 110 117 120 121 117 115 111 107 105 100 96 94 87 82 80 79
106 100 97 94 84 71 61 54 54 52 49 36 27 23 26 31 42 55 63 76 82 83 85 84 88 93 94 100 101 109 118 120 121 120 115 116 113 107 106 103 100 96 92 87 84
107 103 97 95 87 74 64 58 56 56 52 36 28 22 20 24 38 50 61 71 78 82 88 90 88 92 95 97 101 107 116 121 122 120 119 119 114 111 114 108 106 101 94 92 87
111 108 100 96 88 79 68 62 60 59 54 39 31 24 15 15 29 45 56 65 75 81 85 83 86 89 92 95 98 103 108 118 121 118 120 118 118 115 117 113 110 106 101 96 91
110 110 104 100 92 83 70 64 61 60 56 43 36 24 14 7 19 36 46 59 71 78 85 87 85 84 87 88 87 92 100 113 116 118 119 120 119 119 117 120 114 110 105 100 96
106 106 106 102 93 85 75 66 61 61 58 49 39 26 15 1 16 36 44 55 69 75 79 82 82 74 80 86 86 92 101 110 115 119 121 124 123 122 121 122 120 113 105 101 100
101 106 106 102 96 89 79 69 61 62 57 53 41 29 18 3 10 29 45 55 65 72 77 81 79 78 80 85 86 90 99 104 115 119 123 126 125 124 122 124 123 118 110 105 102
99 104 107 106 101 93 81 70 62 59 59 53 44 32 19 9 8 15 37 51 60 68 75 79 78 75 75 81 84 87 94 100 109 116 125 127 128 126 122 124 124 120 115 106 103
98 99 106 107 105 98 86 71 64 57 57 52 45 34 20 14 6 14 25 40 56 70 75 76 75 70 71 76 81 84 88 95 102 113 122 126 127 125 124 125 126 121 115 112 110
96 95 101 108 106 103 91 74 63 55 53 50 44 37 23 15 8 10 22 36 49 60 64 66 68 64 67 72 76 82 84 90 98 107 116 127 126 124 122 123 123 121 120 115 112
93 97 94 109 106 101 94 78 66 57 50 51 43 36 29 13 9 8 15 31 42 49 57 61 60 62 66 68 73 78 82 84 93 100 109 121 127 124 124 121 123 122 121 117 112
91 98 96 105 109 101 92 80 68 57 50 46 45 35 31 20 11 8 11 26 38 44 47 53 54 58 63 66 69 73 77 80 85 92 98 113 127 125 128 123 123 120 119 116 113
91 97 94 99 108 101 91 84 64 55 48 43 41 36 30 23 13 11 5 9 21 31 32 32 32 48 55 58 62 67 70 75 79 85 94 105 108 121 128 127 122 119 117 114 111
86 93 99 97 107 102 92 85 62 49 45 37 35 33 26 22 15 9 7 5 6 15 18 14 18 17 37 47 54 58 62 67 73 81 88 91 96 110 123 124 123 122 117 113 111
87 90 96 94 102 101 88 77 65 48 41 35 31 27 24 18 15 10 5 6 8 10 10 12 15 18 21 27 35 42 50 54 59 71 80 82 86 97 112 125 126 123 119 117 114
85 88 93 96 96 99 91 76 57 48 35 33 27 25 18 16 12 9 1 4 11 14 17 19 19 23 23 28 36 43 46 52 59 62 66 74 83 92 100 110 120 124 122 119 114
82 87 94 98 90 94 84 69 56 47 38 26 24 21 17 12 9 7 4 4 10 15 18 19 19 24 25 28 30 36 42 48 53 59 66 70 73 86 93 98 104 110 114 116 113
83 88 96 100 95 87 86 68 61 48 36 28 22 18 15 8 7 4 3 5 8 11 14 16 22 24 28 31 33 37 40 43 48 53 54 62 65 77 83 89 95 98 101 104 107
81 90 96 99 103 84 90 80 52 47 35 27 21 17 16 12 4 5 5 7 10 14 15 18 22 25 27 28 28 32 33 37 41 46 53 55 64 66 72 78 84 88 90 93 94
84 91 96 100 102 89 89 78 51 47 37 29 22 18 15 15 12 10 10 10 10 12 16 21 23 24 26 29 30 33 33 33 36 42 42 49 55 60 65 68 71 76 80 83 85
84 88 99 101 106 93 85 76 63 49 39 30 25 21 18 15 16 15 14 14 13 14 15 15 19 24 28 29 32 33 34 35 35 35 40 40 46 53 57 62 65 69 72 75 77
87 89 96 105 107 89 86 81 71 54 38 28 24 23 21 18 18 18 18 19 18 18 19 20 20 20 22 24 28 33 35 35 35 38 39 41 45 45 50 55 61 64 66 67 68

GFSSW_250_spd_054.txt.gz
Wind_Speed
95 94 94 94 87 77 61 53 50 47 49 49 50 50 55 54 57 62 64 72 81 87 92 97 96 97 99 101 98 100 102 106 107 104 99 98 95 93 88 81 77 74 73 71 67
96 95 95 97 90 78 66 54 48 47 47 48 49 49 50 56 58 59 67 77 85 88 88 97 98 96 98 99 102 102 99 98 103 105 101 102 100 97 92 85 81 78 75 73 70
99 95 96 97 93 82 70 56 47 45 46 45 43 48 49 54 58 64 69 78 85 87 88 95 100 98 98 99 102 101 93 98 99 105 110 107 102 99 95 88 83 81 77 74 72
100 97 98 100 99 87 73 57 47 47 48 43 38 36 43 47 57 62 71 77 83 87 89 93 98 98 96 96 97 99 97 98 104 106 110 109 103 100 95 93 88 83 80 79 76
101 98 102 104 101 91 76 63 51 49 50 43 37 30 33 41 48 56 65 74 81 83 86 90 92 97 98 97 97 95 98 98 104 106 109 113 111 103 100 97 92 86 85 83 80
101 103 104 106 103 95 80 66 55 51 49 42 39 31 25 33 42 48 55 69 80 80 86 88 89 95 102 100 98 95 96 97 100 108 112 113 114 109 102 100 95 90 89 87 83
102 105 106 110 106 98 83 69 59 53 52 45 39 29 23 24 36 42 46 56 72 80 84 87 91 91 97 102 101 99 98 98 99 108 112 114 115 106 105 103 99 95 91 88 86
101 108 108 109 106 100 86 71 64 58 54 47 40 28 20 19 28 36 45 54 66 77 84 85 88 89 93 100 104 102 99 98 98 106 111 113 109 111 111 104 101 99 93 88 88
101 105 110 110 109 101 89 76 71 62 55 48 41 30 23 16 18 33 43 52 59 72 82 84 88 89 90 96 103 101 97 95 97 102 113 111 112 113 112 107 103 102 99 93 90
97 107 110 108 109 107 92 79 73 65 58 51 43 34 24 16 12 25 41 49 57 68 77 84 84 85 86 87 87 92 93 95 97 100 110 112 114 115 114 113 108 105 103 98 94
94 103 106 108 109 105 93 81 72 66 59 54 46 36 26 19 7 19 33 44 53 62 73 79 84 80 81 82 86 92 94 95 98 99 106 117 117 115 115 113 110 108 105 105 101
92 102 106 107 105 105 95 86 74 65 59 54 49 39 26 19 4 5 24 35 48 62 71 77 75 80 80 81 83 88 90 91 96 100 104 118 117 116 115 112 113 112 109 107 105
89 99 103 100 102 98 98 90 75 67 59 53 51 41 28 20 7 4 19 34 42 55 60 67 71 73 72 73 75 81 87 88 94 98 101 109 120 119 114 113 114 115 113 112 108
88 94 100 99 104 98 98 95 82 68 58 53 48 43 31 19 11 8 9 31 40 54 60 60 63 70 73 71 73 78 83 85 89 94 96 104 113 118 116 115 116 115 116 114 114
86 93 98 101 98 97 96 93 85 75 58 51 47 43 34 22 14 10 7 17 36 49 48 57 61 67 70 70 72 75 77 81 82 88 92 96 106 118 117 114 114 114 117 120 116
85 90 96 100 101 94 93 90 89 79 64 50 43 42 35 22 15 11 9 14 30 40 42 49 55 62 66 67 69 71 73 77 78 82 87 92 99 114 119 116 119 119 121 123 122
82 90 95 98 97 91 93 93 90 78 68 53 44 38 34 26 16 12 9 13 24 32 38 41 47 52 58 60 62 63 68 71 74 76 82 87 91 101 119 122 121 121 122 124 124
81 87 91 97 100 91 91 93 86 78 71 54 46 37 33 27 16 13 12 10 14 24 28 24 25 35 43 52 59 61 64 67 69 72 79 84 83 89 108 121 125 124 123 123 125
80 85 89 97 96 91 83 86 79 73 70 57 41 37 31 26 18 9 14 12 7 12 9 12 23 29 37 43 50 55 58 62 66 70 74 77 79 86 96 114 125 123 122 122 122
76 81 87 94 101 101 82 84 79 71 66 55 42 34 30 25 19 10 7 13 11 9 8 9 8 8 18 26 44 50 58 57 60 64 68 71 77 82 90 101 115 126 127 125 122
74 80 83 91 99 103 84 82 78 78 68 56 40 30 24 23 17 10 5 7 12 15 17 13 13 11 13 17 25 35 43 50 56 58 62 66 73 82 85 94 101 111 127 126 122
73 75 82 90 97 103 93 81 83 78 67 54 41 30 22 19 16 10 5 2 7 11 16 19 19 19 20 20 23 28 32 44 51 54 60 66 67 79 88 91 95 100 111 125 130
69 74 80 88 95 99 98 81 79 76 65 51 40 29 23 18 14 10 7 4 4 9 12 16 21 22 24 25 29 32 40 44 48 54 54 59 63 78 86 84 86 93 98 103 110
67 70 78 88 96 104 102 87 84 74 64 53 40 30 20 19 17 12 8 8 6 7 10 13 16 20 24 28 30 35 37 36 40 46 54 53 60 70 74 75 81 86 90 92 95
66 69 76 84 92 99 106 111 89 80 67 54 45 34 23 16 16 16 12 9 10 10 11 13 13 14 17 20 23 26 29 33 37 42 41 52 51 60 64 68 73 78 82 85 88
65 69 74 84 89 94 109 111 99 85 72 58 47 34 27 19 14 15 16 15 12 13 13 15 17 19 21 21 20 23 25 25 27 30 35 40 48 52 55 59 65 70 73 76 79
65 68 75 80 86 96 103 110 112 83 78 64 57 33 28 21 18 18 18 18 18 18 19 17 16 16 19 20 20 23 26 24 26 30 30 33 41 40 46 52 58 62 67 70 72

GFSSW_250_spd_057.txt.gz
Wind_Speed
91 89 89 90 93 96 93 92 78 62 49 45 44 43 39 39 47 52 56 66 77 84 93 96 96 92 90 96 97 99 98 100 100 100 105 105 106 104 100 95 91 85 80 73 68
89 91 95 96 95 99 97 94 78 63 52 45 41 44 45 44 49 54 62 68 77 83 85 93 96 94 91 94 97 98 97 95 95 99 102 107 106 108 103 99 94 90 84 79 70
93 93 97 97 96 101 96 95 84 67 54 46 41 42 44 47 47 56 60 72 77 82 85 89 96 97 95 92 97 95 91 94 101 105 107 103 108 108 105 100 95 90 87 83 75
90 95 96 99 96 96 99 96 89 71 55 47 43 40 39 43 47 54 61 71 80 85 86 88 91 94 95 93 92 92 91 96 99 104 100 97 107 107 104 101 98 92 88 85 80
90 93 98 99 98 97 100 94 93 74 54 48 45 40 33 33 42 47 58 70 78 85 86 89 88 89 92 94 92 93 93 95 100 101 98 100 106 107 104 101 97 94 90 86 81
90 92 95 101 100 101 102 98 88 74 57 50 46 40 34 28 35 37 47 62 74 78 82 88 86 87 91 94 96 93 94 96 100 98 99 97 101 104 104 102 97 95 93 89 83
89 90 94 100 102 100 102 96 90 77 60 51 47 40 32 25 27 32 41 51 64 75 78 84 87 86 89 94 96 95 96 97 99 100 98 99 97 96 104 102 98 95 93 92 88
91 88 92 99 100 101 103 102 91 81 62 53 48 41 30 23 20 26 37 45 55 67 74 81 87 87 89 92 97 97 95 97 97 98 94 98 93 97 103 102 101 99 95 94 93
89 88 92 101 104 103 104 100 91 79 62 54 49 43 32 23 18 24 32 39 51 61 72 82 87 91 89 92 97 97 92 92 94 96 94 94 95 99 101 99 101 101 99 95 96
89 89 92 96 103 106 107 104 90 81 65 55 50 44 35 25 16 18 31 41 50 56 72 83 85 86 87 85 84 89 89 91 93 93 94 92 99 100 101 101 100 103 101 97 97
87 89 92 100 104 103 106 103 88 76 68 58 51 45 37 28 15 9 21 35 46 53 71 80 81 74 79 81 85 92 93 93 95 93 92 96 101 100 99 98 98 99 102 101 99
85 86 90 96 103 107 104 103 93 74 70 62 54 46 38 31 18 3 12 33 44 51 64 72 73 76 80 82 84 89 94 95 96 97 95 96 100 100 99 98 100 98 100 103 104
85 84 86 94 100 102 103 102 91 80 73 63 53 45 40 31 17 2 6 24 40 48 55 64 71 73 77 80 81 85 91 95 95 97 96 95 95 96 94 95 98 97 100 103 106
81 82 84 91 98 98 103 103 95 80 72 68 54 46 39 31 17 3 10 25 34 41 48 60 64 70 76 77 75 79 85 90 96 97 97 96 92 91 94 94 94 97 99 104 107
80 79 82 90 92 95 101 98 92 83 71 64 57 45 37 32 21 6 8 16 33 40 44 54 59 64 67 70 72 73 78 82 90 95 96 93 91 91 91 90 91 98 103 104 107
79 78 81 88 93 93 95 90 92 85 75 62 58 46 37 33 24 8 11 11 25 32 34 41 45 55 62 66 68 71 72 74 78 85 88 90 88 89 91 93 95 99 102 109 108
76 76 78 86 91 94 91 91 88 87 77 66 60 51 38 32 25 11 10 10 14 18 26 30 42 51 57 59 66 67 67 67 70 75 79 82 82 87 88 90 93 104 104 108 113
73 75 77 83 87 91 94 89 87 85 79 68 61 52 37 29 24 12 9 9 10 10 16 26 36 42 48 52 57 61 62 64 66 70 73 77 74 81 85 89 95 99 104 102 107
71 71 73 80 84 91 91 90 83 83 76 68 61 51 37 27 22 15 5 9 12 11 12 17 24 30 39 45 49 53 57 60 62 66 70 70 69 78 80 83 89 96 98 112 109
70 70 70 77 81 89 97 90 76 85 78 68 63 50 37 25 20 14 7 6 11 14 13 16 15 17 25 38 41 46 54 56 57 61 64 64 66 74 77 79 86 91 95 104 120
68 69 69 76 80 89 95 94 83 82 77 71 62 55 39 23 17 13 9 4 9 15 16 20 16 16 23 26 37 42 43 48 55 56 57 60 65 70 74 78 82 87 91 99 105
65 66 68 71 77 88 94 97 83 83 76 71 63 54 40 29 15 12 8 2 6 12 16 15 15 23 22 22 25 26 37 44 48 53 55 57 59 66 72 78 82 86 90 94 101
62 64 66 70 74 84 90 101 87 82 79 73 65 57 47 29 20 9 5 4 1 11 16 18 23 23 24 27 28 34 31 37 43 52 54 59 58 74 78 79 79 80 83 85 91
58 60 65 66 74 79 89 97 102 89 78 77 66 58 48 31 21 14 7 1 3 6 10 15 22 25 30 33 34 33 35 41 47 49 57 55 63 69 72 70 68 69 76 82 87
57 57 62 62 72 79 85 93 98 93 81 82 72 54 49 34 21 15 10 7 5 6 8 13 18 22 27 34 37 37 40 41 41 47 40 55 50 65 63 63 62 66 70 75 80
54 56 58 61 70 78 81 88 94 93 85 80 70 60 49 35 31 19 13 9 10 8 9 11 14 17 19 21 23 27 31 33 35 38 38 45 48 53 53 57 60 61 64 69 73
53 53 57 59 67 75 78 84 94 96 89 82 62 63 50 40 27 25 20 16 12 13 14 14 14 16 17 20 22 28 26 27 30 33 33 36 47 44 45 48 53 57 58 62 67

GFSSW_250_spd_060.txt.gz
Wind_Speed
89 89 92 86 83 83 88 89 92 88 87 75 59 43 40 33 31 40 47 52 63 71 76 82 91 95 97 99 99 99 101 101 104 105 108 108 108 106 99 94 89 86 82 78 75
92 93 92 90 87 84 87 91 94 90 89 80 57 41 37 37 33 38 48 54 62 68 73 79 87 94 95 98 101 100 98 97 100 106 105 109 110 108 105 102 95 90 86 82 78
93 95 92 91 88 85 90 92 95 92 90 79 56 39 35 36 38 38 48 57 62 67 72 77 85 91 96 98 100 98 94 93 101 104 107 107 110 109 107 105 99 95 90 85 82
94 94 93 93 89 85 88 91 97 95 92 74 55 41 35 36 37 36 45 56 64 68 73 78 83 87 94 95 99 96 95 97 101 104 102 105 105 109 110 107 104 101 97 93 87
94 93 95 94 91 87 88 93 97 95 91 75 54 45 37 33 34 37 41 54 64 70 74 80 82 85 91 95 97 96 97 96 100 99 102 105 106 105 108 109 106 104 102 98 93
93 92 96 90 90 89 89 93 98 97 87 77 56 41 39 35 32 34 36 50 63 68 74 81 83 82 88 96 96 95 95 96 97 98 101 102 103 105 105 108 108 105 102 101 95
92 95 96 92 89 91 87 93 96 99 94 77 57 44 39 34 28 27 31 41 53 67 75 81 84 84 85 93 96 97 95 95 95 96 99 102 102 95 102 102 107 107 104 101 99
92 93 94 90 87 89 89 91 96 99 95 80 59 44 38 33 24 23 27 36 48 64 71 80 85 84 86 89 95 97 99 94 93 98 100 102 96 97 106 102 101 105 106 102 99
92 92 93 93 89 90 87 92 96 97 96 81 61 46 40 34 21 18 23 34 45 57 69 73 81 85 87 89 91 96 95 91 91 95 99 99 97 96 101 99 97 99 102 102 101
89 89 93 92 90 90 87 89 96 98 94 79 62 48 41 35 20 15 19 32 45 53 58 72 76 81 86 86 82 83 87 89 90 92 95 94 96 98 97 97 98 98 97 100 103
85 86 90 90 91 88 93 91 96 97 94 82 63 47 41 34 20 12 13 27 40 47 53 69 76 76 78 81 87 87 90 92 92 92 94 93 93 97 97 95 95 94 94 97 101
82 85 88 89 91 89 93 92 94 93 94 80 66 49 41 34 23 15 9 21 36 41 50 63 67 78 81 82 84 86 87 92 93 95 94 93 92 94 93 94 95 95 90 95 100
80 82 87 85 89 91 93 95 94 95 88 77 64 49 41 33 24 15 7 19 30 38 52 63 71 76 77 79 81 84 85 89 92 92 91 91 89 89 92 95 96 94 94 94 100
76 80 83 84 86 89 94 92 98 95 89 79 63 50 39 32 24 15 5 17 26 37 51 60 68 69 72 74 79 82 83 87 91 92 90 89 88 87 91 93 95 95 93 94 97
71 77 80 80 83 91 92 91 94 97 87 78 65 51 39 32 24 13 2 10 25 38 45 52 56 56 65 70 72 75 80 83 86 88 89 88 86 89 90 92 93 95 95 94 95
69 74 76 77 81 88 96 88 91 92 82 76 64 51 39 32 26 18 5 8 20 30 40 45 50 58 64 68 70 74 76 77 79 82 84 85 85 86 89 90 93 95 94 94 93
66 71 73 76 78 86 91 91 90 90 86 73 62 52 41 32 25 17 7 9 18 24 31 38 44 52 59 64 67 69 69 71 73 74 78 82 83 86 89 89 92 92 96 97 95
63 69 71 74 75 82 89 91 88 87 81 73 64 52 44 33 24 20 8 12 14 17 20 26 34 42 50 57 62 63 65 65 66 69 75 81 82 86 92 90 91 93 92 92 93
61 66 68 71 73 79 86 92 84 81 81 72 64 54 48 33 24 18 9 8 14 21 21 25 32 41 48 54 57 59 62 62 64 67 71 75 80 89 91 89 92 93 94 94 93
59 64 65 65 69 74 82 88 87 81 79 72 67 56 49 37 24 16 10 7 13 20 25 27 33 40 46 49 50 53 57 61 65 68 69 70 74 82 86 86 89 93 94 94 95
58 61 60 61 65 70 78 81 90 81 78 72 65 58 50 38 26 16 11 6 12 17 21 23 22 27 33 39 44 47 49 53 58 60 63 65 70 76 80 83 85 87 89 92 94
56 58 55 57 60 66 74 78 84 83 80 73 66 62 50 39 27 20 9 5 7 19 26 28 26 28 28 33 35 40 43 46 49 55 61 65 67 72 75 80 82 81 83 86 88
54 56 53 55 57 63 69 77 82 86 81 77 70 63 54 42 28 19 14 4 3 10 18 26 29 32 35 36 36 37 41 43 47 52 55 61 64 72 77 78 78 78 78 80 84
53 49 50 50 55 60 66 75 81 88 82 77 71 67 63 44 33 18 13 11 3 6 12 19 23 32 35 37 40 42 45 45 49 48 55 59 67 74 77 76 77 76 74 75 77
50 45 48 48 53 58 64 72 82 87 84 80 75 69 64 56 39 23 14 12 8 6 11 15 20 30 31 33 37 40 45 49 51 55 54 64 61 76 75 74 71 70 68 69 71
45 43 45 46 51 54 61 70 78 86 88 82 79 71 68 63 46 31 17 10 10 11 10 13 16 21 26 30 35 40 44 48 52 54 58 64 62 68 63 65 66 64 65 67 67
41 41 43 42 47 52 57 63 75 82 83 81 77 69 73 64 49 36 26 16 8 11 14 13 15 19 22 25 29 35 40 44 46 47 45 48 54 49 55 56 59 63 63 62 64

GFSSW_250_spd_063.txt.gz
Wind_Speed
95 97 98 93 90 90 85 76 77 81 85 87 84 76 61 47 33 29 44 44 52 62 66 72 79 86 91 95 97 100 102 102 103 105 107 105 107 104 101 96 92 89 86 84 79
97 97 100 98 91 92 87 77 78 82 85 84 83 75 58 43 36 33 32 48 50 58 63 69 74 81 87 93 97 99 102 99 100 104 104 110 110 107 105 101 98 92 89 86 82
97 97 101 97 92 93 87 79 77 83 83 82 83 81 60 44 37 33 33 48 50 56 61 68 75 78 84 91 95 98 97 98 103 105 102 109 110 110 106 105 99 94 89 87 84
97 102 100 99 94 93 89 78 79 84 86 87 84 77 58 42 35 34 36 43 56 56 62 67 72 76 79 85 93 97 97 102 106 105 102 107 110 112 110 107 103 100 94 91 89
95 104 100 97 93 91 94 80 77 83 85 87 86 77 60 44 36 33 33 39 55 59 64 67 71 74 77 80 88 95 95 99 103 103 103 105 108 109 111 108 106 103 99 95 91
99 106 100 98 95 96 95 85 79 83 85 89 88 77 62 47 36 32 30 35 51 57 67 70 72 72 78 82 86 92 97 97 97 102 103 105 106 107 107 109 109 107 104 101 96
95 105 101 98 97 94 96 91 80 84 86 90 88 76 61 45 37 31 29 32 44 57 59 69 73 74 77 80 85 92 97 100 98 101 103 104 107 103 105 109 112 110 107 104 100
96 102 99 96 96 95 98 94 83 86 88 91 91 78 62 44 36 30 27 30 40 49 61 68 72 75 76 81 87 89 99 100 100 103 102 102 102 104 108 109 111 111 109 106 104
93 98 96 95 95 94 96 94 82 87 89 94 89 77 61 44 34 29 24 28 35 43 58 68 72 74 77 82 86 91 99 102 102 100 102 99 101 103 106 107 107 109 110 109 107
92 97 92 92 92 92 97 97 81 85 91 93 89 77 61 44 32 29 23 24 30 42 53 59 73 79 81 83 81 83 91 95 100 97 99 99 100 97 101 104 105 106 107 109 108
89 91 90 89 89 92 99 95 83 88 91 94 87 76 58 41 31 25 18 16 29 44 53 63 75 72 72 76 81 85 89 94 98 94 96 98 98 96 100 100 102 105 104 104 104
88 86 85 86 87 90 95 98 82 86 95 92 89 74 54 38 30 21 13 13 27 38 48 58 68 66 73 80 81 83 88 89 95 91 93 95 98 100 96 95 99 102 102 101 102
88 82 82 83 84 88 94 93 83 87 93 91 85 69 53 36 29 20 12 11 21 30 45 53 54 67 72 73 75 78 80 84 87 93 94 93 93 94 93 93 96 100 101 102 103
78 75 77 79 80 87 90 92 82 86 90 89 77 65 49 36 29 22 13 9 19 27 37 43 50 60 67 70 77 80 83 84 87 91 92 93 90 92 90 92 95 98 98 99 102
69 70 73 73 77 84 85 88 87 87 89 84 74 61 47 34 27 21 11 4 21 32 33 43 51 60 67 69 73 77 79 82 83 88 86 89 88 86 87 91 94 96 96 97 99
64 67 69 70 74 80 82 85 87 83 89 82 70 61 44 31 26 18 8 6 21 34 42 46 50 59 65 66 69 73 74 76 82 84 83 86 86 87 87 88 92 94 96 97 99
60 63 65 68 71 77 79 84 86 83 86 79 69 59 45 31 26 19 8 6 15 26 34 39 46 55 56 59 63 66 69 73 76 76 79 79 82 85 84 88 90 92 95 95 96
56 60 61 63 69 71 76 84 86 80 83 77 67 55 49 32 25 19 8 6 10 16 19 25 34 41 50 53 58 63 67 68 69 70 72 76 79 83 86 87 89 90 91 92 94
52 57 58 60 66 67 72 83 84 77 81 72 67 60 51 34 25 19 8 3 11 13 19 23 30 39 48 53 57 60 61 62 63 64 68 75 79 82 87 88 87 86 89 92 93
50 52 54 57 60 63 70 78 83 78 78 70 65 60 53 40 27 20 12 3 9 18 22 26 34 43 51 55 57 60 60 62 63 65 68 72 76 81 85 86 85 87 89 90 94
46 49 51 54 54 59 68 74 77 76 75 71 65 58 54 48 31 20 13 6 6 14 23 29 32 37 42 46 51 54 56 59 61 64 67 70 74 76 80 83 83 86 90 90 92
44 45 47 51 49 55 62 70 73 76 75 70 65 58 53 49 37 21 13 7 3 12 18 24 28 31 37 43 46 48 50 54 60 64 67 69 70 73 77 80 82 84 86 88 91
40 42 44 46 46 53 56 64 68 73 72 72 64 60 55 52 43 28 16 9 2 7 14 22 26 30 33 36 37 41 44 50 54 57 63 67 69 74 78 78 78 79 80 84 88
40 38 41 41 42 48 52 60 64 72 74 69 67 62 59 57 49 37 21 13 7 5 11 17 25 29 35 39 42 44 46 47 49 51 58 60 69 74 77 77 76 76 78 81 85
36 36 38 37 40 45 47 54 59 69 74 74 71 62 58 58 54 46 28 15 8 7 8 16 23 26 32 36 39 43 45 48 51 54 52 63 65 72 72 74 74 77 80 82 83
34 31 35 33 39 42 45 49 56 64 75 77 72 65 61 53 51 50 41 26 12 8 10 14 19 27 29 37 42 44 48 50 51 54 54 60 59 65 67 72 75 78 77 77 76
33 28 33 32 35 39 46 47 51 58 69 81 77 74 66 59 53 48 43 35 22 12 11 13 16 22 27 34 38 40 42 49 51 52 56 59 63 62 63 65 68 68 69 70 71

GFSSW_250_spd_066.txt.gz
Wind_Speed
82 87 89 94 99 102 95 89 86 80 75 69 70 72 74 69 62 51 33 29 43 49 53 63 68 75 83 90 95 99 101 99 98 104 109 105 109 101 100 96 92 90 83 80 79
81 87 90 95 100 104 101 93 91 83 76 70 74 76 73 70 61 51 35 31 41 49 49 59 65 72 77 84 90 97 98 94 97 102 106 102 103 113 108 100 97 96 88 86 83
83 88 90 98 102 104 104 97 93 88 81 71 76 78 74 69 60 51 36 29 34 48 48 53 65 68 74 83 89 95 95 94 99 105 107 102 105 109 109 105 102 95 90 88 86
84 88 92 98 100 106 104 103 98 85 83 75 77 78 76 73 62 46 35 29 32 43 48 52 60 65 72 76 86 92 96 97 101 101 104 101 102 110 112 111 98 98 94 91 89
83 87 92 99 102 106 108 106 101 88 79 76 79 78 79 77 61 42 34 30 32 42 50 50 55 65 72 74 82 90 92 96 100 99 100 102 104 109 107 105 106 104 99 95 91
85 90 94 99 107 109 110 107 99 89 83 78 81 79 78 75 57 38 33 30 32 40 52 50 55 63 73 76 81 87 94 99 98 99 105 104 106 106 105 104 106 107 104 98 94
85 90 96 100 106 109 112 108 101 89 80 80 82 82 78 75 54 38 31 28 32 39 50 53 58 63 70 75 80 89 97 98 100 101 100 99 108 102 102 105 109 110 107 102 99
86 91 96 100 104 109 113 104 99 88 79 81 84 86 81 72 53 40 29 26 29 37 48 56 59 61 67 76 82 88 94 95 97 98 105 102 97 105 109 106 106 109 109 106 104
87 91 95 98 102 106 109 101 100 86 76 82 84 86 82 73 52 39 29 26 27 34 42 53 58 65 71 75 81 88 89 93 96 100 102 98 102 108 108 100 106 108 110 109 107
89 91 94 96 99 103 99 97 96 85 75 81 83 86 82 73 52 39 29 25 24 29 35 47 60 67 69 73 73 76 81 86 90 96 100 100 101 102 105 105 105 105 107 109 109
88 89 93 94 96 97 94 92 94 83 76 80 82 84 80 71 49 36 26 22 20 26 31 40 53 59 63 70 78 81 84 84 91 97 104 105 102 103 105 104 104 103 103 104 107
88 89 91 90 91 91 90 89 93 78 77 82 85 85 80 69 48 32 23 18 17 23 33 46 55 64 66 69 77 83 85 84 89 99 106 105 102 102 103 104 104 103 103 102 104
87 89 87 81 87 84 85 87 93 77 77 81 84 84 79 66 46 31 22 13 11 21 32 42 48 58 66 73 77 81 81 85 91 97 103 96 94 95 98 100 101 103 102 103 104
83 88 77 78 80 79 82 86 89 75 76 83 82 80 72 59 42 31 21 10 7 15 32 41 51 61 64 69 73 76 80 80 86 90 97 93 94 95 94 97 98 98 99 101 104
81 75 75 71 72 75 78 82 86 71 74 81 79 74 66 50 39 29 22 11 4 14 26 36 46 50 55 66 71 76 80 79 79 89 91 85 84 90 89 90 94 97 96 98 99
74 71 67 64 67 71 76 82 82 68 74 78 77 71 63 46 36 26 19 10 2 13 22 26 31 38 41 50 59 69 74 79 85 87 84 81 80 85 89 88 91 94 95 95 96
70 66 58 60 63 67 73 77 76 64 71 78 73 69 58 44 30 24 18 9 1 10 19 23 26 33 44 54 60 65 70 74 78 73 74 77 74 81 81 85 89 92 96 95 96
62 55 50 55 60 63 69 72 73 64 70 75 67 61 57 43 29 22 19 9 5 4 12 26 33 38 47 53 58 62 67 72 72 70 70 74 75 78 78 85 89 91 93 94 96
50 44 46 50 56 59 66 65 69 64 67 72 67 62 57 45 32 24 19 11 5 9 11 18 32 38 47 53 55 59 61 62 66 69 72 75 75 77 80 84 88 87 88 89 92
43 38 41 47 51 54 60 59 68 71 67 71 67 60 56 45 34 26 21 15 3 9 14 19 27 38 43 46 50 54 59 61 65 69 71 73 74 77 80 82 83 84 85 87 87
36 34 38 43 47 51 54 54 66 72 64 69 66 58 54 46 35 26 21 17 10 4 12 21 27 27 36 43 48 52 55 59 63 65 68 70 72 74 79 80 81 84 83 84 85
29 31 35 39 43 47 48 52 63 70 66 67 65 57 49 48 41 30 21 16 13 4 11 15 25 34 41 46 51 55 57 59 61 63 65 66 67 70 75 80 81 81 81 81 83
25 29 33 36 37 42 44 47 60 64 68 64 65 61 53 45 43 36 27 20 14 8 5 10 20 27 32 37 42 47 49 52 56 59 62 65 67 69 72 74 76 77 76 77 82
24 27 29 31 35 38 39 44 53 62 63 64 64 64 58 52 46 43 37 25 17 12 10 9 10 21 27 32 37 42 46 50 51 54 60 62 64 68 70 69 70 71 73 77 82
23 25 27 28 31 34 36 40 48 58 62 66 63 65 63 59 49 46 41 34 23 15 10 10 13 15 21 26 33 36 40 44 47 54 52 59 61 65 66 67 68 72 74 76 78
22 22 25 24 27 29 32 36 43 52 57 62 66 66 65 63 55 48 44 41 31 22 13 11 13 15 20 22 26 32 37 42 46 49 52 57 60 63 62 65 71 74 74 75 77
19 21 22 22 25 26 30 32 41 46 53 59 64 66 69 67 62 57 52 45 40 33 21 16 13 17 21 24 27 28 36 42 47 47 52 57 60 62 63 66 70 71 71 73 75

GFSSW_250_spd_069.txt.gz
Wind_Speed
74 74 75 77 80 83 88 93 96 94 85 76 72 72 64 65 71 68 62 61 48 39 45 46 53 63 72 79 87 96 100 98 99 104 110 111 107 107 108 97 92 90 93 89 84
76 77 77 77 80 86 89 95 100 95 86 75 74 75 67 69 72 64 57 60 46 39 42 43 49 59 65 75 84 93 97 98 101 106 109 107 106 103 106 103 96 95 96 95 87
75 75 78 79 82 87 92 97 101 101 88 76 77 71 68 70 72 65 56 55 44 40 39 43 48 52 60 68 80 89 89 97 103 107 108 105 104 104 103 108 102 98 95 94 92
76 78 77 80 83 88 93 99 104 101 89 77 77 72 67 70 69 65 59 50 40 36 38 42 47 45 57 61 76 84 91 96 102 106 106 105 104 105 103 104 105 101 96 90 90
79 76 78 81 84 89 95 102 102 103 87 80 78 75 70 72 69 64 60 47 35 32 37 42 43 45 56 63 76 81 86 93 100 105 104 106 104 102 106 104 105 103 100 94 89
76 77 78 81 84 89 96 104 102 102 92 84 80 77 74 71 68 66 58 45 33 30 37 42 45 44 55 63 73 79 83 91 95 100 102 106 104 102 105 110 108 105 101 98 94
72 74 76 79 83 89 95 103 102 102 93 83 80 75 75 75 70 66 53 42 32 28 32 41 44 44 54 61 73 82 83 88 97 100 106 104 105 102 105 110 110 110 105 102 100
70 72 74 80 83 91 97 103 104 103 90 81 80 74 77 75 71 68 52 38 30 26 30 39 44 47 55 60 72 81 83 89 93 97 104 104 102 105 106 107 108 106 110 105 102
70 72 73 81 84 91 100 101 103 103 86 82 77 77 75 74 73 68 48 36 29 26 29 36 44 48 53 62 73 84 82 86 92 98 104 102 102 103 105 106 107 105 106 113 106
72 72 75 80 86 91 97 97 100 98 84 82 75 79 74 73 73 66 44 32 26 25 27 31 42 53 61 64 69 77 83 85 88 93 94 99 104 106 104 107 106 107 107 109 111
75 71 79 82 87 92 95 92 100 95 82 79 73 77 72 73 70 58 41 29 24 20 21 27 41 50 54 60 67 78 86 81 85 90 96 100 101 102 103 105 108 108 108 106 108
70 74 78 81 85 87 91 93 96 90 77 75 72 74 72 73 69 54 38 27 22 15 17 29 39 45 60 65 69 75 81 82 86 91 95 100 98 101 102 102 105 108 106 106 107
73 78 79 76 82 83 86 92 91 85 77 72 72 74 74 72 67 49 35 25 16 11 19 31 38 46 57 62 65 74 78 82 84 88 92 95 98 105 103 100 103 105 106 105 106
69 69 73 77 80 79 84 87 84 81 74 67 72 75 76 70 63 46 30 21 9 6 18 28 37 48 55 61 65 70 77 82 79 83 89 95 99 103 99 97 98 101 104 106 105
69 70 69 71 77 80 78 80 77 79 71 65 68 73 73 70 62 43 29 18 7 5 15 26 37 43 53 62 63 69 74 79 78 85 90 94 98 100 97 97 96 99 101 103 105
63 65 68 70 72 73 70 69 72 77 68 65 66 70 71 66 56 38 27 18 8 3 11 23 33 38 42 53 61 67 71 76 80 81 85 91 95 95 93 91 94 95 97 99 102
57 60 60 63 65 60 59 63 69 72 62 62 63 67 66 61 49 34 25 19 11 7 8 17 25 31 42 53 59 65 72 77 79 79 81 84 88 92 89 89 89 91 93 96 98
55 57 55 57 54 53 54 58 65 69 59 59 61 62 62 59 46 31 23 18 10 9 9 15 18 19 30 43 53 63 71 76 76 74 72 79 86 87 84 83 82 83 89 91 95
51 50 48 47 44 47 49 53 61 65 56 58 58 58 59 52 43 32 23 19 10 6 12 15 22 23 27 36 49 52 58 65 70 70 74 77 80 77 74 73 73 77 83 89 91
45 43 44 39 38 40 46 50 57 60 55 57 59 57 51 46 41 34 25 20 15 6 7 13 22 28 33 40 47 52 57 62 65 68 71 73 74 73 69 68 70 75 82 87 89
40 39 39 33 32 35 41 46 50 56 51 55 57 55 50 47 42 37 29 23 18 12 4 9 17 26 32 41 46 49 53 58 63 66 67 69 69 70 71 71 73 78 81 81 83
34 32 29 27 26 31 36 42 45 51 48 53 59 56 52 46 42 39 35 27 21 17 14 2 11 19 25 30 36 43 49 53 57 60 64 66 67 70 72 73 74 73 72 73 78
29 28 24 22 22 27 31 38 41 48 49 52 56 56 55 53 47 41 36 31 26 19 15 9 4 16 19 23 35 42 47 50 53 58 62 65 67 69 69 68 70 69 68 72 75
29 26 22 17 19 22 27 33 38 44 52 48 52 56 53 54 48 44 38 36 32 27 19 12 8 3 14 20 26 34 40 43 46 51 56 59 62 66 66 67 68 69 70 73 78
24 25 19 15 16 19 25 28 33 40 47 54 52 55 55 54 49 45 43 39 38 35 29 22 15 10 7 9 19 28 35 39 46 49 51 56 57 60 61 64 66 67 72 74 77
26 24 17 14 11 16 21 25 31 36 43 50 55 56 56 57 57 53 51 44 38 35 33 27 22 16 12 10 12 16 25 34 40 44 50 52 56 55 59 64 68 71 70 71 74
28 24 17 12 9 13 17 21 27 31 38 45 51 57 60 62 61 57 54 52 46 40 36 31 27 22 16 15 14 16 19 23 33 39 46 50 54 56 60 66 66 68 71 73 76

GFSSW_250_spd_072.txt.gz
Wind_Speed
76 75 77 82 81 79 78 78 82 80 82 81 79 71 62 61 60 53 53 60 63 63 62 65 51 55 59 60 64 70 78 84 90 99 108 115 110 114 109 104 98 98 96 94 88
76 77 79 82 80 81 79 81 80 80 83 84 81 71 67 62 61 52 60 63 63 65 63 60 54 55 53 58 61 65 74 82 90 100 112 113 110 117 111 104 98 99 102 91 78
77 78 80 83 78 78 79 80 82 84 84 86 81 70 64 63 63 59 62 67 63 62 60 60 54 51 49 55 57 60 67 82 93 103 111 112 111 116 115 109 101 97 101 94 88
77 76 79 80 75 77 79 79 82 85 86 88 83 69 66 66 63 65 67 69 65 61 57 53 49 40 49 50 51 58 74 82 93 103 109 110 111 114 112 110 110 104 88 93 98
75 76 76 76 76 76 78 79 83 85 88 89 81 69 67 67 67 70 71 70 64 59 53 45 39 39 46 49 51 59 73 80 92 101 107 111 112 111 110 109 113 108 95 86 96
77 75 75 75 74 77 79 81 85 85 90 89 82 67 68 65 65 72 74 69 63 54 43 37 37 41 45 49 47 59 74 80 91 96 103 108 109 107 108 108 110 112 108 90 83
77 75 75 76 77 76 79 82 83 85 91 87 83 68 67 67 67 73 72 67 58 44 34 33 35 39 44 48 53 61 76 80 88 95 100 106 108 105 106 109 109 115 111 105 89
76 74 75 76 78 77 81 83 83 86 90 84 77 66 68 68 70 72 68 64 52 37 29 29 33 41 45 47 55 64 74 77 85 92 98 106 106 106 108 110 110 114 115 111 101
77 73 72 71 73 73 79 81 79 86 87 83 68 68 68 70 73 70 63 59 45 31 24 27 33 40 44 50 57 66 70 75 83 88 97 105 109 106 106 109 110 110 113 112 111
77 71 68 68 68 72 76 76 80 82 84 79 65 73 68 72 71 68 64 52 35 26 22 24 31 38 43 46 52 58 69 75 82 88 94 99 104 102 105 108 111 108 110 112 111
79 72 66 67 66 71 72 75 77 83 82 75 68 67 67 71 68 66 59 44 32 24 20 21 28 34 41 50 55 61 70 75 81 86 91 96 104 109 109 110 111 113 107 109 113
74 73 63 61 66 69 69 73 77 81 79 71 69 68 67 68 66 64 54 39 29 21 17 22 30 35 41 50 55 61 69 75 81 85 89 96 101 104 105 108 110 112 114 107 109
67 63 57 57 63 65 67 72 77 81 77 69 67 65 68 67 64 62 50 35 26 17 14 21 31 39 47 53 54 59 65 69 75 80 83 92 99 103 104 104 108 112 113 116 107
60 52 52 53 58 60 66 69 73 73 72 67 66 64 68 64 62 58 45 31 22 16 12 17 25 32 40 51 55 58 67 73 81 81 83 89 95 99 98 102 102 108 111 114 117
54 43 45 49 52 55 61 65 68 72 68 62 65 61 62 60 60 54 42 28 20 11 7 14 24 35 41 48 52 59 70 74 81 83 84 87 90 90 94 90 100 103 109 110 115
43 40 39 48 47 51 55 59 66 68 62 59 61 61 59 57 56 48 36 24 16 5 2 11 22 32 39 48 57 62 71 74 74 81 83 84 85 88 90 95 96 101 104 108 109
36 37 39 44 44 50 51 56 62 62 55 55 55 57 55 53 51 42 33 21 15 7 4 10 21 26 34 43 51 57 65 69 74 80 80 80 82 87 90 89 91 92 99 101 103
35 32 38 37 37 42 45 50 56 57 50 48 53 52 53 51 48 39 29 18 16 9 8 11 17 33 40 47 51 55 61 70 72 70 78 78 81 85 87 85 88 92 96 98 99
35 34 37 31 34 34 38 46 50 50 47 44 48 48 51 46 44 36 27 18 15 9 9 13 17 23 32 40 47 51 58 64 70 69 71 76 79 82 83 83 85 86 90 93 95
36 35 31 27 28 27 34 39 42 46 43 41 46 46 44 45 43 35 29 19 15 11 7 14 19 23 27 31 39 48 55 61 66 66 63 66 71 77 78 83 85 86 84 84 88
34 31 26 22 21 23 28 30 38 40 40 39 42 43 40 44 42 37 30 23 17 14 10 3 13 29 35 35 40 46 50 56 61 64 65 62 65 69 74 80 80 77 77 77 78
37 28 20 19 15 17 21 25 33 35 37 35 40 42 43 43 42 36 30 24 19 17 14 12 5 10 27 33 40 45 47 51 57 60 63 64 65 66 71 74 71 65 67 70 69
33 29 20 18 11 14 15 20 28 34 33 34 38 43 44 45 41 38 35 30 26 22 18 15 11 4 5 10 28 39 44 48 51 56 58 60 60 61 66 69 68 68 68 70 72
37 27 24 16 12 10 10 16 21 32 32 34 37 43 47 49 45 41 40 37 35 29 23 18 12 7 1 7 11 20 33 42 47 52 57 61 62 63 64 66 68 68 69 71 72
32 32 22 17 12 6 6 11 18 27 37 38 39 45 49 51 47 47 45 44 41 37 33 27 20 11 6 2 3 7 14 29 38 43 48 52 54 56 60 63 65 68 70 71 72
38 29 26 19 12 5 2 7 13 21 30 38 44 46 50 51 51 51 54 48 44 43 41 36 28 23 17 9 5 6 9 16 24 35 43 47 51 54 58 62 66 68 69 68 69
37 33 28 20 13 6 1 4 10 19 25 30 36 43 48 50 55 55 56 52 51 51 48 47 43 38 34 24 16 9 10 16 20 25 30 37 45 52 57 61 63 65 67 69 70

GFSSW_250_spd_075.txt.gz
Wind_Speed
90 97 89 81 77 76 74 73 73 76 77 78 74 77 74 70 64 58 49 51 55 56 56 59 64 66 65 62 65 68 63 66 58 65 79 95 104 102 105 110 104 105 104 96 92
97 95 85 80 78 77 79 79 75 78 78 79 78 78 75 69 64 61 53 54 54 56 57 63 68 66 66 61 64 65 63 58 60 69 86 98 102 103 109 111 107 106 107 101 91
94 91 81 76 75 78 77 81 77 79 79 81 81 78 72 72 65 58 58 53 54 60 61 65 71 69 67 67 63 63 57 61 60 69 88 95 101 105 109 111 107 107 98 99 94
98 85 79 73 76 76 75 77 76 79 79 81 81 77 70 71 69 62 60 56 59 63 63 65 68 70 69 64 61 58 59 61 66 76 91 98 100 104 107 111 110 107 107 103 101
93 87 82 74 73 75 73 80 77 77 77 79 80 75 70 68 66 63 60 58 61 68 64 65 70 68 65 58 56 51 56 57 64 73 87 95 98 103 106 110 112 114 94 101 102
98 87 80 78 74 73 77 79 75 75 76 78 77 73 68 65 65 63 63 64 66 66 68 69 67 63 55 47 46 49 51 59 67 77 86 92 95 101 107 111 107 110 105 103 101
98 93 85 81 73 74 75 79 76 75 75 79 76 70 68 64 64 65 64 68 69 69 69 66 59 52 44 42 47 51 54 62 68 74 87 92 99 102 107 111 112 101 101 101 99
92 93 88 79 76 74 78 77 78 75 75 77 72 69 62 63 60 61 66 69 72 70 66 53 47 40 37 39 43 46 56 60 66 77 89 95 92 99 108 112 112 109 108 101 95
83 86 85 80 76 76 78 79 78 75 75 74 69 65 61 61 60 62 65 67 68 63 53 41 35 33 35 38 45 48 49 54 64 74 88 92 95 100 106 112 117 117 108 103 97
76 76 80 76 75 79 77 76 74 72 75 70 64 62 58 61 61 65 65 65 60 53 40 33 28 30 33 35 37 37 47 54 62 72 83 90 92 97 102 112 118 113 114 106 100
72 70 74 70 71 73 71 70 68 68 72 65 62 58 61 58 62 64 63 60 53 41 33 27 25 28 31 33 37 44 51 53 62 72 81 86 89 96 111 116 118 116 114 110 97
66 61 63 65 62 66 65 64 62 64 67 60 60 55 56 57 60 60 57 54 46 35 29 23 22 27 30 33 39 45 52 56 62 73 79 83 86 98 101 113 118 119 119 118 115
60 59 59 57 56 59 60 57 53 59 60 55 56 55 55 56 59 58 55 49 40 31 25 15 17 25 29 32 39 43 49 53 61 72 77 81 87 97 100 110 115 117 117 116 121
58 55 55 48 50 49 50 47 49 52 52 50 50 54 54 57 57 54 53 46 35 27 18 10 12 22 30 35 42 45 50 56 63 71 80 82 85 91 102 106 116 116 117 116 116
53 54 49 45 40 38 38 41 44 45 46 47 49 49 53 55 54 53 48 41 30 22 14 7 12 19 33 42 45 48 54 58 61 66 75 81 82 88 102 104 105 112 114 119 115
54 52 43 36 31 30 31 37 39 41 41 44 46 48 51 50 50 49 44 35 25 17 7 4 13 19 31 41 46 48 50 55 63 71 77 80 78 82 89 100 103 109 115 117 120
56 47 39 30 29 25 28 33 37 37 33 40 43 46 45 48 48 43 39 31 21 16 3 3 11 21 28 36 40 41 53 60 67 66 69 77 79 84 89 96 99 103 110 115 114
51 42 36 32 26 19 23 31 34 32 32 37 38 42 40 43 43 39 33 25 18 14 4 5 12 17 26 33 42 44 56 61 61 57 65 70 77 83 85 88 90 94 100 109 113
51 42 37 31 18 19 22 27 31 26 31 34 36 34 35 40 39 36 30 21 16 14 7 8 14 18 25 32 36 43 46 47 54 52 58 66 72 78 84 84 85 87 91 95 106
51 43 39 25 21 18 19 25 26 23 28 31 34 32 33 37 37 33 29 24 16 17 10 10 12 18 22 27 34 39 39 43 45 45 52 58 67 75 80 82 84 85 85 88 93
50 47 36 30 19 14 17 22 18 21 24 28 30 32 31 33 35 32 32 27 20 17 17 7 10 17 20 25 30 34 40 42 43 46 50 55 60 71 77 77 74 74 78 82 84
53 44 38 27 18 13 11 12 16 21 21 24 30 31 32 33 33 32 34 32 26 22 19 14 6 1 11 16 30 35 39 42 44 44 45 50 55 61 63 67 71 70 75 78 80
52 46 37 28 21 14 7 7 14 20 20 22 29 34 38 36 36 38 39 36 33 30 25 19 11 6 8 12 12 30 36 40 44 47 46 43 49 53 53 58 66 70 72 75 77
53 45 36 31 22 14 5 11 12 17 19 22 30 35 38 42 39 40 44 42 39 37 33 29 22 16 6 3 8 15 28 35 40 42 45 45 45 48 50 55 59 62 63 67 68
50 46 38 31 23 14 10 12 13 18 20 25 31 38 43 43 43 44 42 44 47 48 46 42 36 29 21 13 5 1 7 15 28 36 39 44 46 48 49 50 54 57 61 63 66
51 45 39 31 22 16 14 13 13 18 20 27 34 40 43 46 48 50 50 50 51 53 49 44 44 46 42 32 23 15 6 5 11 21 31 38 43 47 50 53 56 57 60 64 65
47 45 40 30 22 18 15 12 13 18 22 26 29 37 42 45 48 50 51 53 51 53 49 49 51 51 49 46 41 36 30 18 12 13 17 25 35 43 48 51 55 57 58 60 61

GFSSW_250_spd_078.txt.gz
Wind_Speed
95 95 98 99 97 97 93 92 90 88 85 76 73 74 74 73 73 73 74 66 60 57 56 58 63 67 68 71 72 76 75 74 71 71 63 63 69 78 82 86 96 99 106 106 102
110 110 108 107 101 99 95 92 92 89 84 78 71 73 75 75 75 73 73 64 61 59 58 62 64 66 65 66 70 75 74 72 74 73 72 69 67 76 84 88 96 99 106 108 107
108 110 109 110 106 101 95 92 88 85 84 79 75 72 75 76 75 74 70 65 62 60 62 65 66 62 63 70 71 73 70 72 71 72 72 71 70 75 83 88 95 101 106 107 109
117 115 111 111 109 104 98 96 89 81 82 77 75 72 74 76 76 74 69 66 62 61 65 65 64 66 66 71 73 72 67 66 74 73 72 69 72 76 84 87 97 106 107 87 111
114 113 110 110 106 101 96 88 86 83 80 77 74 73 72 76 77 73 68 67 62 64 65 66 65 68 69 72 75 70 68 67 73 75 71 73 70 76 81 87 97 111 112 115 111
95 94 97 96 93 92 94 84 81 81 80 75 73 74 73 74 77 72 67 67 64 64 66 65 67 68 69 72 72 70 69 68 68 72 72 68 69 78 84 87 95 107 110 102 109
87 88 84 83 83 81 83 78 77 76 76 74 72 75 74 72 73 70 68 65 65 63 66 67 69 67 68 68 67 66 62 64 62 66 65 67 72 78 86 90 91 102 107 95 103
77 82 80 81 78 73 71 75 71 72 70 73 73 74 72 72 69 67 66 67 64 65 66 68 66 65 64 61 58 55 53 53 54 58 60 64 70 80 85 89 93 103 102 94 87
72 73 73 68 70 65 64 66 65 66 70 70 72 72 71 69 67 65 64 62 65 68 68 66 63 59 54 49 46 42 44 44 49 53 60 65 78 85 80 89 96 109 104 105 91
69 68 64 64 66 59 61 61 61 62 65 66 70 68 68 65 67 63 59 57 61 64 65 60 53 46 43 40 37 37 36 39 45 48 54 63 76 77 83 88 103 116 107 103 90
66 60 57 62 60 56 57 56 57 56 59 63 64 63 62 62 62 59 56 57 58 60 56 47 38 36 32 30 31 31 37 38 45 51 59 70 75 80 83 91 101 116 114 104 96
62 56 56 58 54 54 51 52 52 51 54 59 57 56 57 57 58 56 56 55 57 52 43 37 31 27 24 23 28 32 35 40 50 55 63 72 77 84 86 92 101 119 113 111 97
50 50 58 61 49 49 47 44 45 45 51 51 50 50 52 54 52 55 54 56 51 43 34 28 23 20 19 23 27 30 33 40 47 51 59 69 75 78 86 89 98 120 118 114 110
42 46 56 57 43 44 43 43 40 41 44 41 40 42 47 47 51 52 55 53 45 34 29 24 18 15 18 23 26 32 37 40 46 52 59 66 74 77 81 89 99 117 122 123 121
44 46 62 39 40 42 38 36 36 37 30 30 32 38 40 42 48 51 49 44 36 30 26 20 12 9 14 23 28 31 35 39 44 51 61 68 70 71 77 83 99 115 124 122 111
53 58 42 39 41 42 34 32 33 23 19 23 31 34 34 39 46 46 43 38 34 25 19 10 4 5 9 20 29 31 31 34 44 51 59 63 66 68 79 85 94 108 124 123 123
54 50 39 42 43 35 26 27 17 10 15 21 27 28 32 38 41 39 35 31 28 21 12 6 2 4 9 20 25 29 32 36 43 50 58 60 65 70 79 86 96 105 123 123 125
42 42 46 41 36 27 24 14 0 6 16 20 22 24 30 35 34 33 28 26 22 17 14 8 6 6 9 19 25 28 29 34 41 49 58 63 66 69 72 83 87 96 117 127 121
38 48 48 39 32 25 17 11 1 10 15 16 19 24 26 30 29 27 23 20 19 16 16 11 10 10 8 13 20 25 29 34 38 41 51 58 61 64 66 79 84 92 105 120 127
53 54 45 40 32 22 14 8 7 11 13 16 21 18 20 24 26 24 23 20 22 20 20 14 10 11 9 10 14 20 23 25 28 33 43 50 56 58 63 71 80 84 86 107 118
53 52 45 39 30 23 15 8 10 11 15 19 18 16 20 24 26 25 25 24 23 23 21 20 14 13 8 6 9 11 13 16 18 22 25 34 48 54 58 64 71 77 82 89 109
52 52 48 38 30 20 14 11 12 14 20 19 20 21 20 25 29 27 27 26 29 28 25 21 21 16 14 10 6 10 10 13 14 15 17 22 27 43 53 56 66 73 78 84 88
48 52 46 38 31 21 15 11 16 21 27 24 23 22 24 28 31 36 35 35 40 38 35 30 25 19 10 10 3 9 11 15 16 15 15 15 21 25 34 51 58 60 66 72 77
47 50 44 36 30 24 16 16 18 25 30 29 25 25 31 34 37 40 43 48 47 47 46 41 37 31 25 18 10 9 10 10 16 17 17 18 20 24 30 36 40 50 58 65 71
54 51 44 36 31 25 21 20 23 27 29 29 28 34 38 41 45 49 48 49 50 51 54 52 51 46 42 39 31 24 17 13 13 14 16 20 19 24 31 36 41 46 53 57 61
53 49 42 38 33 27 24 23 26 29 30 32 32 34 40 45 46 46 50 50 52 54 54 53 51 50 47 45 42 37 36 30 21 14 14 18 21 24 25 31 38 44 48 53 56
49 43 38 37 34 29 25 24 25 29 28 29 32 37 41 46 49 49 47 47 48 51 52 52 53 52 52 49 45 42 38 35 29 26 23 18 18 23 27 30 35 39 44 49 55

GFSSW_250_spd_081.txt.gz
Wind_Speed
104 105 104 105 103 99 100 101 105 105 105 101 95 95 91 86 82 80 79 79 76 76 74 68 64 63 65 66 69 75 76 68 74 78 79 81 82 89 86 81 78 75 74 85 92
115 116 114 115 115 111 110 112 111 109 105 101 98 97 94 87 82 82 81 79 76 77 73 69 67 64 67 67 70 77 69 70 74 75 80 83 82 86 85 85 82 82 86 95 97
112 107 111 115 117 114 112 112 110 107 105 103 99 99 96 83 81 80 77 77 78 76 71 69 68 69 67 68 74 74 66 74 70 74 78 84 84 84 83 79 80 79 89 97 100
98 104 105 104 110 112 114 111 110 108 101 102 99 93 86 80 80 80 77 77 77 74 71 71 69 69 66 71 74 73 66 71 71 74 76 82 87 85 81 72 77 79 89 95 102
86 90 90 85 88 91 95 91 90 88 81 84 88 83 78 77 79 76 77 76 75 72 70 71 68 70 70 70 72 72 70 68 72 73 75 81 81 85 79 79 73 80 86 98 104
83 83 83 83 81 75 79 77 76 73 67 71 75 73 72 73 72 76 76 74 71 70 70 70 71 72 70 70 71 72 70 68 70 73 75 79 84 81 78 76 72 81 84 101 111
85 82 80 79 76 71 74 72 72 68 64 68 67 64 63 67 72 73 72 68 67 69 70 70 70 70 72 71 70 71 69 71 72 78 75 79 83 73 79 75 72 76 88 100 112
80 79 77 76 72 69 65 65 64 62 61 61 58 58 58 65 68 68 67 64 63 65 69 67 68 69 70 71 70 70 73 73 76 76 75 76 71 74 72 68 70 78 91 100 112
75 74 75 71 70 58 57 59 61 56 55 55 52 51 55 60 62 62 62 62 62 65 64 64 66 69 69 71 72 72 73 72 70 64 64 52 64 62 64 64 74 86 96 99 109
66 66 66 64 59 56 55 57 56 49 49 47 48 49 51 54 54 57 58 59 59 60 61 65 67 69 68 65 64 62 58 55 52 49 40 46 51 56 59 68 73 87 98 100 115
64 58 57 54 53 50 54 53 47 45 40 41 44 46 44 46 49 51 53 54 52 53 58 62 65 62 58 56 52 46 44 41 40 40 40 43 45 52 65 72 78 87 101 97 113
59 55 49 47 46 46 48 50 40 38 36 38 41 36 36 40 44 48 49 47 47 53 56 59 54 51 46 41 38 38 35 32 34 39 39 40 49 62 71 75 87 98 107 99 106
53 50 45 44 41 42 48 41 35 34 33 34 29 27 30 34 42 42 43 45 50 50 52 49 43 36 32 30 31 29 30 30 30 32 38 43 53 68 74 80 93 97 109 100 113
43 42 46 42 39 44 41 31 35 34 28 18 18 18 24 33 38 36 40 48 48 49 43 37 32 26 21 20 19 21 23 25 26 32 39 45 55 65 74 82 89 99 106 106 123
32 38 47 40 42 41 33 32 32 26 16 12 7 15 23 30 31 38 42 43 45 39 31 26 21 15 10 10 11 15 21 22 25 31 40 48 54 60 67 69 86 96 110 115 127
26 38 48 40 36 27 30 32 22 13 9 1 6 14 20 22 30 36 40 39 34 26 23 18 13 7 3 3 10 14 18 20 22 28 37 45 51 59 66 71 80 98 107 121 114
25 35 42 34 28 29 27 22 11 8 7 3 5 11 14 24 30 33 34 30 24 21 15 11 5 1 3 6 10 13 15 18 22 28 40 45 53 62 64 65 83 100 114 121 123
32 35 29 27 27 27 21 14 14 12 11 6 4 9 17 24 26 26 25 23 18 13 11 10 7 9 8 9 14 17 15 14 17 28 34 39 45 43 52 60 77 97 116 120 122
22 27 33 27 28 27 21 22 18 19 13 8 9 13 17 18 19 21 21 19 13 14 16 17 16 16 15 12 10 14 13 15 18 23 27 32 37 40 50 60 78 91 112 121 117
31 31 33 35 34 34 31 28 23 20 15 12 10 10 13 14 15 15 15 16 17 18 26 30 25 22 20 17 15 11 7 4 7 13 18 24 31 39 46 53 68 88 104 120 120
34 35 41 43 42 39 33 29 25 21 16 12 12 11 12 12 16 20 21 20 21 22 23 30 32 34 36 29 23 21 16 16 14 7 7 12 21 34 44 53 59 78 94 114 128
40 45 48 49 45 40 36 33 27 23 20 18 14 16 16 22 27 30 31 29 28 29 30 30 30 28 29 29 27 24 22 19 17 14 14 4 11 23 31 46 57 69 87 100 125
47 48 53 51 46 46 43 36 31 29 26 21 22 21 26 30 32 35 41 41 38 37 39 39 39 37 36 36 34 30 26 21 18 14 14 10 8 3 9 25 46 56 65 82 97
50 52 52 49 50 48 46 39 35 33 29 31 34 34 36 37 37 45 49 50 49 47 47 48 47 47 45 41 41 39 37 32 26 20 18 12 6 2 4 10 15 28 54 62 70
51 50 49 49 47 47 45 42 38 34 33 37 40 45 45 48 49 51 54 54 54 54 55 55 53 53 49 50 49 46 43 40 41 34 26 20 12 3 5 11 17 22 28 36 46
49 45 45 45 43 44 43 42 39 37 39 41 45 47 47 51 52 53 57 53 54 54 55 56 56 55 54 56 53 52 50 50 49 43 36 31 27 18 10 9 14 20 27 33 40
44 43 45 43 42 41 39 40 39 40 42 43 45 47 48 48 48 52 49 50 51 53 54 55 52 51 50 48 48 48 47 43 38 34 35 37 30 25 21 19 17 15 19 25 33

GFSSW_250_spd_084.txt.gz
Wind_Speed
108 113 115 113 112 112 113 112 108 107 106 102 98 99 102 101 96 97 100 95 86 83 83 81 79 78 76 75 71 66 60 56 60 66 71 83 85 91 93 89 81 58 59 63 67
91 95 95 99 103 106 110 113 110 107 110 109 105 102 106 105 106 103 100 94 89 86 85 83 81 82 78 75 70 66 60 59 68 66 70 79 82 89 85 85 80 70 65 62 65
83 88 89 90 93 93 93 94 103 106 106 110 108 104 98 104 105 102 99 99 95 88 85 83 81 81 76 74 70 67 62 67 65 68 71 74 78 84 80 81 84 79 71 65 67
83 82 81 80 84 82 86 88 90 92 91 93 95 97 100 97 101 103 97 90 84 80 78 80 81 78 77 73 71 67 65 68 68 68 68 70 74 79 76 78 81 79 75 64 65
87 89 82 80 77 79 81 79 83 84 86 82 77 78 75 82 83 85 78 74 74 74 74 77 79 77 76 72 70 67 70 68 69 64 65 68 69 78 71 77 79 78 75 71 67
89 92 89 84 81 74 76 78 74 76 77 77 78 71 65 67 69 70 68 66 69 69 72 74 72 72 70 70 71 70 71 68 66 61 62 64 70 75 69 75 79 79 78 72 76
89 91 90 84 82 76 75 74 71 71 66 67 70 63 63 62 61 62 60 62 65 66 67 68 68 69 66 68 69 71 70 65 60 62 62 67 63 66 77 76 76 77 78 73 78
87 89 88 83 79 74 73 70 66 63 60 57 66 60 62 59 55 57 56 58 59 60 60 62 63 65 65 66 69 69 65 62 63 61 63 63 60 69 76 72 75 77 78 76 83
83 78 76 76 73 70 68 67 58 57 54 56 58 51 51 48 50 49 50 51 52 53 54 57 61 63 65 65 65 62 62 62 62 64 66 60 71 74 75 75 79 79 80 78 85
79 73 69 66 66 65 64 62 50 49 51 52 46 42 43 43 43 44 44 44 44 45 47 54 58 59 59 59 61 62 63 65 68 68 68 66 77 73 74 80 85 84 79 76 85
73 68 61 58 58 60 59 49 41 42 49 43 37 35 35 33 34 36 39 37 38 41 45 50 52 53 57 60 63 65 66 67 66 63 63 61 70 68 68 72 78 80 73 78 84
60 58 54 52 54 53 49 38 39 40 35 33 33 27 25 28 31 29 31 31 33 38 41 43 50 53 56 57 58 57 53 50 48 47 46 48 47 50 59 64 70 69 68 78 82
50 48 44 43 45 43 41 35 35 35 28 26 21 19 23 25 20 23 22 27 30 34 41 45 48 48 49 48 47 44 40 36 35 37 38 39 39 47 54 59 60 60 69 78 94
39 37 32 28 34 41 41 36 31 26 25 16 14 15 15 14 15 18 21 24 30 36 39 38 37 39 39 35 32 31 25 23 23 24 25 30 37 44 49 54 58 65 68 87 104
24 23 23 29 39 43 36 26 25 27 17 13 16 15 11 8 13 15 19 26 29 31 33 29 32 28 24 21 17 16 12 13 14 18 25 31 38 45 50 55 62 64 76 98 123
14 20 27 35 39 34 27 27 25 22 16 14 15 10 4 5 11 17 21 22 26 28 25 23 19 16 15 10 7 7 7 8 11 15 18 25 34 42 50 57 66 83 99 109 129
20 25 26 20 18 25 32 30 24 21 19 18 11 5 0 5 10 12 16 19 22 19 15 12 8 4 2 4 7 10 9 9 11 14 18 25 30 36 48 61 73 98 107 100 107
14 17 23 29 37 42 41 35 26 27 23 16 12 5 3 5 8 12 15 15 13 9 4 3 5 10 10 8 11 14 14 11 11 13 15 18 23 31 42 52 65 79 92 102 103
37 35 36 36 45 45 39 37 32 28 22 17 11 7 6 6 11 12 9 7 4 4 7 14 18 19 22 20 17 18 16 12 9 6 6 14 22 27 32 37 51 81 99 103 106
41 37 43 46 47 47 43 39 32 28 22 16 13 12 12 16 14 10 6 7 8 9 15 20 24 28 29 28 27 31 29 23 16 13 8 7 18 20 29 33 50 80 101 106 108
48 50 51 51 51 48 43 38 32 27 23 22 23 19 21 18 18 15 17 15 15 21 24 25 24 28 28 30 30 29 34 30 30 23 24 6 9 17 22 35 45 70 101 106 116
54 55 52 51 50 45 41 37 32 30 29 30 26 27 25 27 26 26 26 26 28 30 26 26 28 29 27 29 32 32 32 37 31 32 25 23 13 13 27 38 49 69 93 112 113
56 53 49 52 50 46 44 41 40 37 35 30 32 35 39 38 37 39 40 41 41 40 37 35 32 31 30 30 33 32 37 33 28 26 23 22 20 15 18 28 44 60 79 110 118
56 56 52 54 55 53 48 46 43 39 33 36 41 43 46 47 50 49 50 48 46 47 46 45 43 41 41 41 41 40 41 40 35 27 20 19 14 10 17 22 28 46 66 85 115
52 52 56 58 56 52 49 43 38 38 40 44 46 49 51 54 53 52 54 56 56 54 52 51 48 49 49 43 43 48 52 48 43 38 33 27 24 15 11 11 17 30 43 66 90
55 59 57 58 56 51 48 44 40 42 46 49 52 53 55 56 57 60 59 56 57 57 56 57 57 58 55 53 54 50 47 46 45 40 38 36 34 29 20 13 9 12 20 35 66
53 55 54 54 52 50 48 47 46 47 50 52 51 52 54 54 53 53 51 51 51 52 53 53 53 53 53 52 53 48 43 40 37 37 35 35 30 28 26 23 17 12 2 11 25

GFSSW_250_spd_087.txt.gz
Wind_Speed
70 72 72 73 74 80 89 97 100 100 104 104 108 106 110 115 109 108 106 99 99 96 94 89 86 87 84 82 75 74 71 67 70 70 70 73 68 67 71 69 75 81 79 75 49
71 71 72 73 74 76 76 81 95 96 103 109 112 114 112 110 107 106 105 104 102 101 98 95 92 91 88 83 79 78 76 73 75 75 73 72 70 69 69 70 73 79 78 76 49
78 82 81 77 75 73 73 72 81 88 92 101 103 97 92 92 95 103 97 97 100 99 99 99 97 95 89 83 83 82 80 80 78 77 74 71 70 70 66 66 71 77 78 76 64
79 81 87 86 85 82 78 77 77 79 86 93 98 96 96 93 87 86 88 90 94 97 95 93 91 89 88 85 86 83 81 80 78 74 70 70 71 70 64 67 73 76 74 76 70
86 85 86 89 88 86 81 81 78 75 77 79 82 87 86 84 82 79 84 82 84 89 91 91 88 85 85 85 83 81 82 79 77 72 71 70 71 68 61 69 73 76 74 76 74
92 87 84 88 88 87 86 84 81 78 74 71 75 79 77 73 74 74 78 74 72 76 80 79 77 76 79 81 80 78 75 76 73 73 70 70 70 69 60 72 75 75 73 75 76
88 88 86 87 90 89 87 83 80 77 72 66 67 68 67 64 67 72 70 66 70 70 68 69 67 69 72 74 75 73 72 73 74 73 73 72 64 62 70 76 75 73 74 73 75
83 84 85 85 86 87 87 82 79 76 67 63 62 61 58 58 64 63 61 62 59 58 58 59 62 66 67 70 71 70 68 70 69 71 68 69 58 62 74 76 73 72 73 74 78
79 80 79 80 83 84 83 79 76 68 60 56 54 52 50 55 57 56 55 51 51 52 54 56 59 64 65 63 63 65 66 64 67 69 67 66 54 72 74 72 74 72 73 78 78
71 72 72 73 73 75 75 71 69 61 55 50 50 45 47 48 47 48 48 46 47 48 51 54 56 56 57 58 60 61 62 65 65 67 63 58 58 72 70 71 74 72 74 77 77
63 60 59 60 62 62 63 65 59 50 42 42 41 41 40 40 40 39 39 40 40 44 45 47 49 49 49 53 58 60 61 60 59 60 60 60 64 69 68 70 75 72 75 77 78
53 48 45 47 51 53 53 52 48 38 34 35 37 34 35 33 33 35 36 33 33 34 36 41 42 45 48 52 54 54 57 59 61 62 63 63 68 67 67 71 74 73 78 78 78
42 35 34 35 37 41 47 47 39 33 31 33 25 28 26 29 32 31 25 22 22 26 34 38 40 43 48 51 53 54 56 59 60 60 59 57 59 57 58 65 72 76 77 77 76
31 24 21 22 27 33 37 39 35 33 31 24 25 24 25 24 20 18 13 16 24 28 31 35 38 41 44 42 45 45 43 42 41 43 44 44 45 48 53 54 64 68 72 72 74
16 11 15 22 27 29 29 34 33 32 28 25 25 20 17 18 14 11 12 19 22 24 29 31 30 30 34 33 31 30 29 28 28 29 31 32 33 39 46 50 54 57 62 61 65
5 11 21 28 30 31 31 30 31 33 30 24 18 18 17 13 8 7 14 16 17 20 22 22 21 22 20 21 21 21 20 18 17 16 18 20 27 36 44 49 47 49 51 54 68
10 12 19 24 28 29 33 39 38 34 25 23 23 20 13 8 5 5 8 13 16 13 14 16 15 13 13 13 13 13 13 13 14 16 17 20 25 32 35 39 42 42 48 58 65
31 31 31 35 40 43 45 43 38 32 29 27 20 16 12 7 2 4 8 8 10 11 10 12 9 6 7 9 9 11 11 10 9 9 10 16 22 27 32 37 40 49 55 61 72
36 39 41 44 46 45 44 41 41 37 29 23 20 16 14 7 3 1 3 8 8 8 9 6 6 10 12 12 13 15 16 18 17 16 13 14 16 21 27 36 46 54 63 75 85
47 42 41 44 45 47 46 43 37 32 28 25 21 18 12 10 9 6 7 8 10 5 1 1 8 12 14 16 17 20 23 23 25 22 17 16 15 19 25 35 47 65 78 88 96
55 51 47 47 46 44 41 39 37 34 31 27 24 19 18 17 13 11 10 8 7 7 8 9 9 13 14 14 19 22 23 28 27 25 26 21 18 17 26 38 51 67 77 92 99
51 53 44 43 43 43 42 41 39 36 32 31 30 29 25 22 20 18 14 17 19 19 17 19 19 16 19 22 26 26 26 26 26 28 26 26 20 18 22 39 45 65 81 89 103
52 54 49 46 46 46 45 43 42 40 38 38 37 34 33 33 31 30 32 33 32 28 25 26 23 23 27 27 33 33 34 32 27 23 20 22 23 23 23 27 48 66 77 98 105
58 58 57 53 51 50 47 49 46 45 44 45 44 43 42 42 41 41 43 44 44 42 39 35 28 33 36 34 36 40 41 38 34 28 23 18 15 12 23 33 38 78 78 98 111
56 56 57 56 54 51 52 50 49 48 47 49 48 48 51 53 53 55 53 54 53 53 45 41 41 48 49 52 51 51 48 45 42 34 30 23 19 16 10 18 34 48 94 83 103
55 54 54 56 55 54 53 49 47 48 50 50 52 52 52 53 56 57 56 56 56 54 53 51 53 55 56 55 52 53 49 45 41 37 33 32 31 23 18 11 15 29 47 85 87
47 49 51 50 51 50 49 48 48 48 47 49 51 52 52 52 53 53 52 51 52 51 50 51 52 52 51 50 47 45 42 42 42 38 37 38 37 34 28 22 15 6 16 41 87

GFSSW_250_spd_090.txt.gz
Wind_Speed
73 72 70 72 74 76 79 80 86 84 83 91 102 107 107 107 103 102 100 103 102 98 96 93 93 92 92 96 94 90 85 76 77 73 72 72 70 67 68 61 67 66 61 64 63
78 76 74 75 75 76 75 78 81 82 81 82 92 98 104 109 107 110 109 105 105 103 100 101 99 99 99 100 98 92 89 84 83 80 76 75 72 69 68 66 69 72 66 66 64
88 87 83 79 80 78 78 76 78 78 82 83 86 90 91 102 105 113 110 109 111 109 108 105 103 105 103 100 101 96 92 92 87 85 82 78 74 75 71 71 74 74 70 70 62
91 91 91 89 84 84 83 81 81 79 78 79 82 85 89 90 94 108 108 112 108 109 108 108 107 108 101 100 99 95 94 91 90 88 87 82 79 77 75 77 76 76 72 70 67
99 98 95 94 89 90 86 86 84 82 82 81 77 82 83 85 82 91 99 107 107 106 106 100 94 93 97 99 95 93 91 91 90 88 88 86 83 83 78 84 80 77 74 71 68
100 99 99 99 100 97 90 88 86 85 82 82 81 80 81 81 78 80 82 89 94 93 92 92 93 90 91 92 92 89 89 89 90 90 88 87 85 83 82 86 77 77 75 71 70
96 95 93 91 89 88 83 86 86 83 83 80 84 80 76 76 75 70 74 80 80 82 90 87 82 83 84 86 86 84 83 83 89 90 90 92 86 80 83 84 77 76 75 73 72
83 80 76 75 77 79 79 76 78 81 80 79 79 77 73 70 66 64 65 71 73 78 77 73 73 77 77 77 75 75 76 77 85 89 87 84 77 74 76 81 78 76 77 78 71
71 70 72 67 65 69 71 70 73 74 74 73 72 71 66 60 55 52 58 63 64 63 61 60 64 64 67 71 72 71 73 73 78 76 76 71 63 66 69 77 78 75 77 80 77
59 58 59 57 61 60 62 65 65 67 64 66 66 62 57 48 47 49 52 51 49 46 49 50 53 59 62 64 66 66 67 68 67 68 64 64 57 61 73 78 77 79 77 78 76
49 48 49 47 51 52 53 57 59 57 58 59 57 49 42 42 43 43 39 35 37 40 41 44 50 53 59 60 60 61 60 57 56 60 56 60 59 64 68 71 69 75 76 76 73
35 34 34 37 39 43 46 50 49 52 51 43 38 35 33 36 38 31 32 32 31 33 35 42 46 49 49 51 52 51 51 52 54 56 58 61 62 64 65 67 70 73 75 73 68
21 17 21 24 29 36 39 42 45 45 38 32 28 32 33 34 32 28 27 25 24 29 34 39 35 39 42 43 44 46 49 51 54 56 58 59 61 62 65 68 71 73 76 73 71
10 3 10 19 25 31 33 37 35 35 29 27 30 32 32 29 25 19 17 20 24 27 29 30 31 35 38 40 44 47 50 54 57 59 61 61 63 63 66 69 72 73 74 72 69
10 8 14 19 25 27 30 27 27 30 32 30 30 27 24 18 15 14 16 19 22 23 26 26 32 35 38 42 42 44 47 48 49 50 51 50 51 53 56 61 67 73 76 77 75
17 10 13 19 22 25 26 26 32 33 33 31 26 22 19 15 11 15 16 17 18 20 24 25 26 28 32 33 32 33 32 33 33 34 36 37 38 39 42 45 52 61 69 72 71
29 21 14 16 25 29 30 31 31 28 28 29 27 21 17 15 14 14 14 15 12 11 12 15 21 21 21 22 22 22 23 21 22 21 24 25 25 27 32 35 42 48 55 59 57
41 36 29 28 29 31 32 32 33 34 34 30 26 23 18 15 13 8 2 3 2 2 6 9 11 13 14 13 13 10 12 13 14 14 16 15 16 17 22 28 33 38 41 44 45
51 42 35 34 36 37 39 39 38 36 34 30 25 20 16 11 11 13 12 12 8 6 7 5 6 7 8 9 7 10 10 9 8 9 9 10 11 13 16 21 23 28 34 39 41
50 51 46 42 40 40 38 39 38 35 30 26 22 18 18 18 19 18 18 15 12 8 8 8 5 5 3 4 7 6 9 11 12 11 12 12 12 13 17 20 24 27 34 40 48
45 48 43 40 41 39 35 34 32 29 29 28 27 26 24 23 21 20 19 14 13 10 9 8 4 5 5 6 10 11 14 14 16 17 18 18 17 18 19 24 28 34 38 46 53
40 40 39 37 38 39 35 36 36 36 36 34 32 29 26 25 22 22 18 18 17 16 13 13 14 16 19 19 20 18 13 15 19 21 21 18 18 18 22 27 32 38 43 48 56
49 46 45 44 43 42 40 41 42 40 39 39 37 34 31 29 30 28 29 28 27 23 21 24 22 29 30 30 29 31 31 27 23 15 11 15 16 19 22 29 39 44 48 52 59
55 54 54 51 49 49 45 42 43 44 46 42 41 41 39 37 37 39 41 39 35 31 31 34 31 38 40 42 41 41 38 37 33 29 23 17 10 7 14 21 26 33 43 57 66
58 58 58 55 51 53 52 50 47 47 47 47 45 45 44 45 48 51 50 48 43 42 44 47 51 52 53 52 49 48 46 44 40 33 31 29 23 15 8 2 11 17 21 37 62
54 54 53 50 50 53 54 52 51 50 50 50 51 50 52 52 53 52 54 53 52 50 50 51 51 54 55 52 48 49 49 49 44 44 42 38 35 30 24 13 4 15 23 23 39
51 47 46 47 47 49 49 50 50 50 49 49 49 49 50 50 50 50 50 50 49 48 47 48 47 46 45 46 49 46 43 40 42 40 38 40 39 36 31 24 15 4 12 22 47

GFSSW_250_spd_093.txt.gz
Wind_Speed
81 78 79 81 77 76 76 75 78 84 86 90 97 98 103 102 103 105 104 100 95 96 94 90 90 92 89 87 85 83 80 78 79 76 75 78 72 73 68 66 65 63 57 55 51
91 87 84 83 83 81 80 77 79 80 85 85 87 90 94 100 101 107 109 105 106 101 103 97 97 94 94 95 92 90 87 88 87 86 82 81 79 79 74 72 71 70 65 59 59
98 96 92 90 87 85 84 83 81 82 82 83 85 89 85 88 94 100 105 108 106 108 106 106 103 102 102 100 99 96 95 96 93 93 91 86 84 82 79 76 78 75 73 67 63
99 98 95 91 92 91 90 86 83 83 79 82 82 83 87 86 87 93 95 99 103 107 109 109 112 113 110 109 106 103 101 100 98 96 96 92 89 88 86 82 83 78 78 71 65
90 93 95 96 94 94 94 92 88 87 83 81 84 84 85 87 87 93 95 94 92 92 93 94 101 107 110 113 107 108 107 103 99 99 98 98 95 92 92 90 89 88 83 80 74
87 85 84 93 96 97 96 96 96 92 89 86 81 82 83 84 84 88 87 90 92 92 90 89 88 94 105 108 106 106 106 104 101 99 101 100 100 96 96 96 94 93 87 81 81
70 75 76 80 84 91 94 96 95 93 90 91 86 86 89 78 86 84 87 84 87 86 85 82 87 90 95 95 99 98 98 97 99 99 97 96 92 96 98 99 96 96 93 86 84
60 63 62 63 66 72 78 87 92 90 88 87 84 83 82 83 84 87 85 83 88 82 78 76 85 86 83 83 84 87 87 88 92 90 90 88 87 96 100 96 96 94 93 89 86
47 50 49 48 51 56 64 63 70 78 82 81 82 77 80 78 81 80 78 74 70 74 71 76 76 73 68 72 74 71 76 79 87 86 88 85 84 88 89 89 90 91 89 87 86
32 38 41 48 52 56 60 61 59 60 66 70 73 72 70 75 72 70 68 65 63 65 64 65 64 57 58 61 66 70 74 79 81 80 79 76 74 75 79 80 80 86 87 81 82
18 23 28 34 45 45 55 55 53 57 56 60 61 62 64 60 59 57 55 52 51 56 54 49 44 46 52 58 62 64 67 69 68 67 64 65 69 67 66 65 69 73 77 78 70
6 9 12 19 29 38 42 46 49 55 54 46 51 50 46 45 45 43 40 43 47 44 37 33 38 44 51 55 56 57 57 60 61 58 57 57 54 54 55 55 58 61 67 69 65
3 6 10 14 22 29 35 41 45 47 42 38 39 35 32 31 32 34 37 39 38 28 27 31 39 43 46 46 48 48 48 49 51 51 49 50 50 50 51 52 55 58 63 67 69
16 10 11 14 19 25 34 34 35 33 30 29 26 24 27 28 30 32 32 23 21 24 26 33 32 33 32 37 38 38 38 41 43 45 46 47 48 50 51 52 57 61 64 70 71
29 19 17 14 18 20 18 22 23 20 21 22 25 26 26 27 28 23 16 16 19 25 26 25 25 26 29 33 33 34 36 40 43 46 47 48 51 50 51 53 56 61 65 67 69
40 31 25 23 23 22 21 23 25 25 26 27 27 26 23 18 15 16 18 21 19 19 18 18 21 22 28 29 31 33 35 36 38 40 43 43 45 47 49 51 55 60 64 67 70
51 44 37 32 29 26 26 28 29 29 27 26 22 20 21 19 19 18 13 8 9 10 10 14 16 20 21 19 19 21 24 25 24 25 26 28 30 31 35 39 44 50 58 65 68
57 51 47 44 41 36 32 29 28 29 29 30 28 25 24 18 12 10 9 11 8 5 3 2 4 5 7 11 12 14 16 17 17 17 18 19 18 20 23 26 31 38 44 49 59
57 57 53 49 45 43 41 38 36 33 32 32 29 23 20 16 16 15 14 11 8 10 13 9 5 2 3 5 7 10 11 12 10 9 11 10 11 13 14 16 20 24 30 36 41
51 54 52 48 43 40 37 34 31 31 29 26 26 27 27 26 24 22 18 19 20 19 16 10 10 4 1 4 5 4 7 6 6 3 6 7 9 11 12 15 15 21 25 28 32
49 48 41 40 37 35 33 32 30 31 32 35 36 33 32 32 30 27 27 25 23 23 19 14 12 13 6 5 7 5 4 3 1 2 2 4 5 3 7 16 17 21 23 26 29
62 56 48 47 43 41 41 39 38 39 40 41 40 38 38 38 38 33 30 27 26 24 22 18 17 16 16 15 17 15 19 14 10 8 9 6 6 8 9 10 16 20 22 27 33
69 66 60 57 54 53 47 48 49 48 46 45 45 44 44 41 39 37 36 34 31 29 26 27 24 23 29 30 31 30 28 26 23 21 20 12 12 10 6 5 6 13 20 28 33
72 70 68 67 62 57 56 54 54 50 46 45 45 48 49 47 44 41 37 36 35 33 32 33 32 38 43 43 40 41 39 37 36 32 28 25 23 19 18 16 13 7 2 20 27
68 67 65 63 60 57 58 56 53 52 51 52 54 54 55 53 50 46 48 48 47 46 46 47 47 50 50 51 50 50 48 47 44 42 39 36 31 27 22 19 20 15 7 2 15
63 62 58 58 56 54 55 54 53 55 56 55 56 52 51 47 47 47 47 47 46 48 49 47 47 47 46 46 46 44 44 43 44 42 41 41 41 37 31 27 23 16 10 8 9
50 52 51 51 51 50 50 51 50 49 50 50 48 47 47 47 46 44 44 44 44 45 45 44 42 41 41 40 40 39 37 38 39 39 39 42 40 37 35 34 32 29 24 12 8

GFSSW_250_spd_096.txt.gz
Wind_Speed
92 98 98 93 87 82 79 77 80 80 83 85 83 85 89 95 103 103 99 98 98 95 94 94 92 90 93 98 99 96 94 89 87 87 85 90 82 81 75 74 74 68 60 58 56
96 94 99 100 96 91 88 86 81 79 83 81 86 86 84 86 92 97 101 102 101 103 98 97 96 96 96 93 95 93 95 98 91 91 88 91 87 87 84 78 77 72 62 62 59
90 91 96 101 101 98 93 91 88 83 81 85 83 86 85 87 87 90 93 99 101 105 105 105 103 102 99 97 94 95 97 97 96 95 90 89 88 87 86 83 85 81 74 67 62
78 84 87 93 102 103 100 97 92 88 85 85 84 83 85 84 84 85 88 90 93 97 100 103 107 108 106 104 100 95 98 101 103 100 98 94 91 91 88 85 88 87 84 74 73
73 75 80 87 95 99 103 102 97 94 90 85 86 83 86 83 82 89 89 91 89 91 91 97 102 104 108 108 105 104 103 104 108 107 103 103 98 96 91 93 94 91 93 89 80
59 65 67 75 86 90 96 96 100 101 96 90 87 86 84 83 84 82 85 87 91 88 90 89 89 90 95 96 97 98 103 107 111 113 110 106 99 97 96 100 99 99 97 96 89
45 53 56 65 73 81 85 86 89 94 96 91 89 88 83 83 85 82 83 86 85 90 88 90 91 90 88 86 84 89 94 98 105 106 108 108 108 105 104 106 105 104 100 98 98
33 38 46 53 61 70 73 75 79 79 87 92 92 90 84 84 82 82 79 78 80 88 83 87 89 88 85 80 79 86 89 89 92 94 93 98 104 108 108 106 105 104 105 101 101
25 29 37 45 52 58 64 66 71 73 75 87 90 88 86 84 81 81 81 79 79 80 84 83 84 85 81 84 87 89 80 78 84 87 82 84 94 100 99 100 100 102 103 105 103
18 20 27 36 45 52 50 55 62 65 72 76 86 89 85 85 81 79 77 78 78 75 76 80 80 76 77 80 80 72 75 80 77 74 70 70 75 86 82 84 88 89 90 93 99
14 14 18 26 33 45 56 59 58 56 62 71 77 84 87 80 76 77 77 77 73 74 77 70 67 66 69 71 68 69 70 67 65 61 62 59 66 69 72 71 75 76 79 81 79
11 3 8 18 28 41 53 55 60 59 57 61 64 64 66 66 69 68 69 69 68 65 62 61 57 58 62 59 61 60 59 55 55 55 53 56 58 62 61 64 65 66 65 71 73
22 10 8 16 21 28 44 51 46 51 52 53 51 47 51 51 54 56 58 57 55 52 48 48 53 51 50 54 56 53 48 45 45 47 48 45 45 46 46 49 51 55 56 61 68
30 22 17 19 24 26 34 38 39 42 44 41 38 38 40 43 44 42 41 40 40 42 45 44 41 42 43 46 43 40 38 39 40 40 40 38 39 38 41 44 48 52 54 58 63
44 36 28 26 23 22 24 23 25 27 26 25 28 29 30 31 32 33 31 34 34 32 30 29 34 35 36 35 33 30 30 30 31 33 34 33 36 35 39 41 44 49 53 58 62
53 45 37 34 33 30 27 25 23 24 24 23 26 27 26 27 27 24 21 21 24 26 25 25 25 25 22 22 25 26 27 28 31 33 34 33 36 35 37 39 42 45 50 54 59
56 54 49 40 35 35 33 33 32 30 29 26 25 24 23 19 18 17 16 16 15 14 14 17 16 16 17 19 19 19 20 20 21 22 25 26 27 28 30 34 39 44 49 52 55
66 61 54 51 47 44 37 32 29 27 23 20 19 19 18 17 15 15 14 9 8 8 11 10 10 9 9 8 8 8 10 12 15 16 17 16 17 18 20 23 27 32 40 49 57
62 62 61 57 51 47 44 38 36 33 30 28 25 23 19 16 13 11 13 15 15 13 10 9 6 3 3 4 8 9 9 11 11 13 14 14 14 14 14 15 17 21 28 35 44
70 62 55 51 49 47 45 42 39 35 33 30 29 28 27 26 26 24 22 19 19 18 17 19 13 11 11 11 9 9 9 9 10 11 10 10 11 8 10 10 12 15 21 27 32
79 71 60 53 49 43 45 43 42 40 40 40 38 36 35 35 34 31 29 29 28 26 21 20 19 18 14 15 10 10 11 14 13 12 9 10 7 8 7 2 6 11 13 19 23
85 80 72 66 56 54 47 44 40 41 41 43 44 43 42 41 39 36 35 33 30 26 26 24 25 26 25 19 18 17 18 18 18 17 20 24 24 21 14 8 5 6 6 13 19
84 79 78 76 69 62 55 54 51 51 52 54 53 52 49 45 44 39 39 37 34 35 36 34 34 34 34 33 32 32 30 27 27 25 24 25 28 28 26 19 17 14 6 4 12
72 74 74 75 71 66 63 60 60 59 62 61 60 57 53 51 48 44 44 41 41 43 43 43 44 45 46 44 44 45 44 43 40 34 30 28 27 28 29 28 24 23 18 8 20
63 64 66 68 69 66 66 66 65 62 60 59 58 55 53 52 52 50 48 47 48 49 47 46 46 45 44 44 45 44 44 45 45 42 41 43 43 37 33 29 26 25 24 21 11
54 56 56 58 58 58 57 57 55 54 53 52 51 52 50 48 47 47 47 45 45 43 42 42 42 40 41 43 44 44 43 44 47 47 44 42 41 41 42 40 38 33 25 18 14
45 46 48 49 49 48 47 47 46 46 46 46 46 46 45 43 41 39 39 38 39 39 38 37 36 36 37 37 36 36 36 36 37 37 38 40 39 35 35 36 34 33 32 28 26

GFSSW_250_spd_099.txt.gz
Wind_Speed
75 77 82 91 99 101 100 95 90 86 82 80 85 83 87 91 93 99 99 97 94 93 90 89 89 89 87 91 91 91 89 91 90 87 90 90 89 84 80 81 82 78 73 69 64
82 74 80 83 83 89 96 101 97 92 86 80 82 82 81 84 87 89 95 101 101 100 97 96 94 93 92 91 93 91 90 93 96 94 92 96 94 91 87 86 88 83 82 77 71
83 83 83 85 90 88 90 95 103 99 93 86 83 79 81 81 82 83 87 89 96 103 103 102 99 98 97 95 93 94 95 93 94 93 97 100 99 97 93 92 95 90 88 85 79
70 74 77 84 91 93 96 96 96 101 99 92 89 82 79 83 81 81 82 84 84 90 98 104 104 103 102 99 100 98 98 96 96 96 94 95 99 100 99 97 100 98 93 87 86
58 65 70 77 82 89 88 95 98 99 102 97 92 88 84 82 79 81 80 80 84 86 88 96 100 102 103 105 104 104 103 101 99 99 99 100 100 96 98 100 100 100 97 93 89
58 59 64 70 77 81 86 91 94 96 100 100 98 92 90 85 82 76 79 81 82 84 88 91 92 92 93 98 104 106 107 106 108 108 105 104 103 101 104 106 104 101 96 96 92
42 46 52 58 70 72 79 81 84 87 93 99 99 97 92 87 82 79 77 80 82 82 82 85 90 93 91 91 91 89 92 98 103 105 104 104 106 111 110 109 107 104 100 99 96
28 36 43 51 60 67 75 76 79 81 86 96 98 98 92 88 85 82 80 79 80 83 83 84 85 88 87 86 85 86 89 90 92 93 95 95 96 110 116 113 105 103 103 102 99
15 21 30 41 50 59 68 73 76 80 81 88 95 97 91 89 88 84 82 80 79 82 85 83 84 84 82 83 84 88 86 83 81 82 85 91 91 101 107 105 100 100 103 105 104
6 9 21 27 38 49 58 65 68 72 76 83 89 82 84 85 83 84 84 84 81 83 84 83 85 82 82 79 79 77 81 84 82 84 83 87 82 90 91 90 90 88 94 100 99
15 4 8 14 26 38 47 54 61 65 70 71 77 78 76 77 81 81 84 84 83 83 79 81 78 80 79 81 79 75 77 78 81 76 73 78 73 79 79 78 82 82 83 88 88
24 16 9 10 19 31 44 53 56 53 61 66 67 65 68 71 70 71 77 80 82 81 77 74 73 72 68 68 70 71 76 67 70 64 61 70 70 63 64 62 61 66 67 73 75
33 26 18 14 17 26 36 47 53 52 57 58 59 59 58 57 57 61 66 70 71 72 69 68 65 60 57 57 61 59 60 59 60 57 54 50 57 51 48 49 53 56 59 62 67
44 39 28 20 16 18 30 38 41 44 53 57 58 53 49 51 48 46 48 51 54 55 56 54 53 52 53 52 53 50 50 49 50 47 43 39 45 41 41 43 49 50 54 56 59
52 46 45 35 26 22 23 27 27 30 24 30 36 34 35 37 38 36 37 39 42 43 44 43 42 40 44 45 42 41 37 38 36 34 31 28 31 33 32 34 38 41 44 48 53
62 52 45 44 39 30 22 19 18 20 18 23 28 31 31 30 30 30 30 30 32 33 32 32 32 35 33 29 27 27 30 32 30 29 27 26 27 28 30 31 32 34 39 45 49
70 61 54 45 41 40 37 31 27 25 22 21 20 21 22 22 22 22 21 22 22 23 23 21 20 21 20 20 21 23 22 22 22 23 19 21 20 23 28 30 33 36 38 42 45
71 65 63 56 51 43 37 31 28 22 20 18 16 15 14 12 13 14 12 10 11 10 10 13 14 14 13 12 10 8 11 13 15 15 15 12 13 11 14 21 27 31 36 42 45
80 71 61 56 55 52 49 44 39 35 30 25 23 19 16 14 14 12 10 7 6 6 6 7 7 4 4 2 4 8 13 12 11 11 11 10 8 7 6 7 11 17 25 33 40
82 76 66 57 53 50 49 45 43 39 35 30 27 24 22 20 17 15 14 14 15 18 17 15 12 13 10 7 5 7 4 4 10 11 11 10 11 9 9 6 3 7 15 23 31
88 84 76 68 59 51 48 44 41 39 38 38 34 30 29 29 30 30 28 27 27 25 23 23 20 17 14 12 10 12 9 12 14 15 17 17 16 16 17 13 8 4 4 11 20
83 81 81 77 72 71 62 57 53 47 44 46 43 37 35 38 38 39 38 37 36 33 29 27 27 27 25 23 21 20 17 19 19 22 21 19 24 22 21 17 19 22 9 1 7
75 75 73 76 81 78 74 71 68 64 64 60 57 56 55 54 52 47 45 44 42 43 43 43 44 43 42 38 33 31 29 25 21 22 23 24 28 28 29 28 21 22 27 26 7
65 67 69 73 72 71 72 71 70 69 69 68 67 64 62 59 56 55 54 50 48 47 46 46 46 46 45 44 43 42 43 40 36 31 28 29 29 29 27 27 25 21 25 25 29
61 58 60 62 64 63 64 63 63 63 63 60 58 56 55 54 50 47 44 45 45 44 44 45 44 43 42 43 42 42 40 40 40 41 42 41 42 41 41 35 30 28 27 24 24
78 58 54 53 53 55 57 57 56 56 54 52 50 48 46 44 43 41 40 39 39 38 37 34 34 32 32 32 32 33 32 34 35 34 32 33 35 35 37 36 36 34 31 31 31
80 77 59 49 47 47 48 49 49 49 49 48 46 45 44 41 39 37 35 33 32 31 30 29 27 26 26 25 25 25 26 27 27 28 28 27 28 28 28 28 27 27 26 26 26

GFSSW_250_spd_102.txt.gz
Wind_Speed
92 91 84 77 77 81 83 97 102 102 98 95 85 86 86 89 93 99 97 98 98 96 93 89 86 85 90 91 92 93 90 89 87 86 83 82 82 82 82 79 78 79 76 73 70
76 79 81 76 74 75 79 82 94 103 103 99 94 89 86 83 85 88 89 96 98 98 99 94 92 88 89 85 85 89 92 92 90 90 87 87 86 87 87 86 89 85 83 80 78
67 68 71 74 71 71 76 78 84 93 105 102 100 93 88 84 83 86 85 83 85 91 96 95 97 95 92 90 89 89 88 87 89 90 90 92 91 91 93 92 91 90 90 87 87
56 62 67 68 65 69 73 77 78 83 92 107 106 94 93 88 84 81 84 81 83 84 85 88 93 96 96 96 95 93 93 93 91 91 90 90 93 94 92 95 98 97 96 93 90
46 49 56 65 65 67 70 76 75 76 82 91 103 99 99 91 87 81 78 80 79 80 81 82 83 88 95 98 99 100 100 100 99 97 95 94 95 95 98 101 96 98 97 97 95
37 43 45 56 61 64 66 70 77 77 77 75 82 98 100 93 90 84 79 77 79 79 77 78 80 81 84 88 92 97 103 104 104 102 99 96 99 103 107 104 100 100 101 98 96
27 33 39 43 53 59 61 64 71 79 78 76 75 81 95 97 92 87 82 77 74 75 78 79 79 80 82 83 85 86 87 94 100 104 103 102 101 113 113 110 107 104 103 103 102
20 22 27 32 48 55 56 61 64 73 77 75 76 82 85 92 94 91 84 79 76 75 74 74 75 78 81 82 84 85 87 92 90 90 91 94 93 112 116 113 110 106 109 107 102
10 11 17 28 38 49 54 56 59 61 71 80 83 87 84 81 84 88 86 83 81 79 77 77 75 75 78 82 83 86 86 87 89 85 87 89 89 98 107 107 103 103 105 108 106
8 1 7 16 28 39 52 57 57 60 66 71 80 80 79 78 77 86 87 87 83 81 80 80 79 79 80 81 81 83 83 87 89 86 80 82 80 87 98 97 95 95 98 99 95
20 15 8 8 16 27 43 51 57 61 63 69 73 74 77 77 77 83 87 85 85 84 82 81 78 80 82 82 84 84 84 81 82 80 76 80 75 76 85 88 90 91 92 90 88
30 23 17 14 15 24 33 41 51 59 63 65 68 66 70 71 73 76 83 85 85 82 79 76 79 81 81 82 84 82 78 77 82 80 69 70 70 73 75 80 83 83 80 83 82
39 38 32 24 21 19 25 31 44 54 57 57 60 62 63 60 62 67 71 76 75 73 72 72 73 77 78 78 75 68 66 67 67 67 66 64 62 68 68 72 74 70 71 71 73
48 49 47 38 32 25 17 22 35 42 50 53 54 54 55 54 53 57 59 60 61 63 63 64 69 70 67 63 64 64 61 61 57 54 54 55 53 55 57 62 59 57 58 59 61
59 53 53 49 41 31 25 19 23 32 37 38 44 46 46 42 41 42 44 46 48 52 53 55 55 55 54 53 51 48 44 45 43 39 38 39 42 40 43 43 43 42 44 47 51
68 61 52 47 41 35 28 24 18 18 10 26 27 27 26 26 27 31 38 42 43 41 40 38 38 38 37 36 33 33 33 34 34 33 33 31 32 31 32 34 34 34 35 37 41
75 67 58 53 45 39 34 30 29 26 17 15 17 18 19 20 19 19 21 23 23 23 23 23 24 26 25 22 23 24 25 24 25 23 20 21 23 26 27 30 31 31 32 32 32
84 73 65 60 54 47 41 35 29 22 20 17 14 9 6 7 9 10 10 9 10 11 11 12 13 12 12 15 17 17 13 11 12 12 13 13 17 18 21 23 24 26 28 32 33
93 81 74 68 61 53 49 42 41 34 29 24 20 17 16 12 9 9 7 4 3 3 4 6 6 6 7 8 7 10 6 3 6 7 10 11 12 9 12 10 12 16 19 24 31
94 91 83 76 70 62 56 52 45 41 38 34 30 27 25 22 20 17 16 14 12 12 12 10 6 5 6 6 3 4 4 4 5 6 8 11 9 10 7 4 6 3 6 13 19
85 87 89 87 85 77 74 63 54 48 45 41 37 35 34 31 28 23 22 23 23 22 21 20 19 18 15 13 11 9 6 10 10 10 13 15 16 17 21 17 11 8 4 2 8
76 76 77 74 83 87 80 73 70 64 59 59 56 50 45 45 48 47 47 45 44 41 38 36 33 28 25 23 20 15 14 15 15 16 20 22 20 14 21 25 23 10 10 10 8
75 70 67 67 74 73 72 72 73 72 71 66 64 61 58 55 53 52 49 48 47 46 45 43 43 44 42 37 32 29 26 24 21 18 19 18 19 22 19 19 20 24 18 17 16
85 77 70 66 66 66 67 67 68 69 68 67 65 61 59 58 56 52 50 47 45 44 43 43 40 39 37 37 37 39 38 36 35 33 30 27 25 25 23 21 21 25 29 25 18
93 81 82 80 70 65 63 62 62 61 60 59 57 56 54 52 49 45 42 40 39 38 36 34 34 33 33 32 32 31 28 27 27 28 30 29 30 31 31 28 27 27 26 23 20
85 84 87 76 81 73 73 71 66 61 56 54 52 50 48 45 43 42 41 40 38 36 34 32 31 28 26 24 23 22 22 21 20 21 21 22 22 25 26 25 26 27 26 26 26
75 81 81 78 76 75 74 72 71 67 68 66 61 55 50 46 44 42 40 38 36 34 33 32 31 30 28 26 23 19 17 16 15 15 16 16 17 17 17 17 16 16 16 16 15

GFSSW_250_spd_105.txt.gz
Wind_Speed
91 97 98 92 90 87 88 94 104 109 107 102 99 93 94 93 92 93 98 100 100 95 95 94 92 89 85 84 82 80 80 81 82 82 80 81 81 78 76 76 74 70 70 71 72
69 73 83 87 92 91 88 87 88 89 101 106 103 103 96 94 91 89 89 90 94 97 95 95 96 93 90 87 84 84 86 84 87 89 86 86 85 82 85 81 83 79 78 76 76
68 69 71 74 78 86 86 88 87 86 84 94 103 109 99 97 93 88 86 84 86 90 94 91 93 96 92 90 89 89 89 86 83 83 88 89 90 89 90 91 90 87 83 81 81
54 57 63 69 70 74 79 84 85 89 84 98 86 93 106 99 96 90 85 81 80 78 80 86 88 88 92 94 95 92 92 90 88 86 84 86 91 90 91 100 93 90 89 86 85
41 42 45 57 66 68 72 76 77 83 88 94 84 84 100 99 99 90 84 79 74 74 76 75 79 83 88 92 94 96 98 95 94 92 91 89 91 88 94 90 91 93 92 92 90
27 30 34 46 56 66 67 69 73 80 87 88 89 84 81 94 95 92 89 83 77 74 73 74 72 75 78 79 81 82 89 94 96 95 95 95 95 99 99 94 94 91 93 93 94
19 18 26 37 45 55 65 65 65 73 80 84 83 79 81 86 88 94 88 85 80 76 75 74 73 74 78 76 77 78 79 83 90 95 96 97 99 106 105 101 102 101 102 102 100
11 8 16 23 32 48 57 59 64 67 72 81 79 84 78 73 74 89 87 85 82 78 77 76 75 75 74 75 76 77 78 79 81 82 84 90 95 106 105 104 106 109 110 110 109
13 4 7 20 33 43 47 57 61 62 68 73 75 74 72 72 65 71 89 86 84 82 79 76 76 74 74 73 74 74 74 77 79 80 82 83 86 95 97 96 97 101 107 110 110
16 13 12 13 25 32 43 55 58 61 61 64 70 71 72 72 54 56 67 80 81 83 81 78 78 75 74 73 73 72 73 75 76 76 76 78 77 86 89 91 94 98 101 102 104
28 24 22 20 21 28 35 49 53 56 56 58 63 70 70 58 50 48 48 62 74 85 86 86 83 81 78 75 75 75 79 79 81 80 81 81 76 79 79 84 94 98 95 97 100
41 37 29 24 24 28 39 48 51 48 49 54 57 60 57 48 51 53 53 55 61 66 75 81 85 82 80 79 80 81 82 83 85 84 83 82 81 77 80 85 87 84 86 90 89
56 54 44 35 28 26 36 45 47 48 48 47 46 49 53 53 53 53 54 56 59 63 63 69 77 81 85 84 83 82 84 83 85 86 82 74 75 72 76 70 76 73 75 76 74
60 55 58 49 39 30 29 30 37 41 41 39 39 40 43 46 47 50 53 54 57 60 63 66 71 73 75 79 82 82 81 79 75 67 61 56 58 64 62 63 66 64 65 65 64
71 60 53 54 50 39 28 23 28 31 36 34 36 36 39 42 44 46 48 49 49 51 52 57 58 61 62 61 64 64 61 60 54 52 51 49 48 54 54 55 55 53 50 48 48
81 72 62 59 53 48 36 28 24 20 19 21 22 27 29 31 32 32 33 34 35 35 37 38 41 45 50 54 53 53 50 44 43 40 38 39 40 46 43 44 44 43 39 36 36
87 79 71 64 59 54 48 40 30 26 19 13 11 10 10 14 15 20 23 25 27 29 32 34 37 40 43 41 40 37 33 32 30 28 30 32 32 33 34 32 34 35 32 30 31
101 88 79 71 65 58 53 48 44 38 34 28 20 14 10 7 6 4 5 8 12 16 20 23 27 26 25 23 22 21 20 21 20 22 22 20 20 20 22 23 27 30 29 27 26
99 98 94 83 75 67 58 51 48 45 41 37 32 27 22 18 15 12 9 7 7 7 8 7 8 9 12 13 12 11 12 14 15 13 11 10 10 12 16 19 23 25 24 22 20
87 88 88 89 91 87 75 68 61 55 49 46 41 38 34 30 25 21 18 15 13 11 9 6 5 2 0 1 3 6 5 4 4 4 5 6 7 13 12 10 13 12 11 12 13
82 79 77 79 84 88 87 82 78 74 70 67 62 57 53 49 45 41 37 34 31 28 25 23 19 15 14 13 15 15 12 9 5 5 8 6 9 17 20 18 16 13 7 3 5
86 78 71 66 74 79 75 74 73 72 72 70 67 65 63 62 61 59 57 54 52 50 48 45 40 35 30 27 24 22 22 15 13 12 15 13 11 17 18 19 18 19 14 12 6
87 77 82 76 72 68 66 65 65 64 63 61 60 59 59 58 56 55 53 51 50 48 46 44 42 41 39 36 34 31 28 26 24 22 20 19 14 12 15 21 19 18 20 20 17
88 85 81 81 79 75 76 71 66 65 62 60 57 55 54 52 51 49 47 45 43 42 40 38 35 33 33 32 31 29 29 29 28 26 25 23 22 19 19 17 16 17 16 17 16
83 88 87 87 86 83 84 87 78 72 70 69 67 65 64 60 54 49 46 44 42 40 38 35 33 31 29 27 25 24 24 24 23 22 22 21 21 21 23 21 22 23 19 14 11
72 75 77 80 83 83 86 80 80 81 76 74 78 74 71 71 66 64 61 57 51 45 37 34 33 33 32 29 26 25 23 22 20 20 18 17 18 18 15 14 15 16 16 17 18
66 66 70 72 73 75 76 77 81 81 79 78 76 79 79 78 75 75 71 67 65 62 59 52 42 34 29 27 26 25 24 22 22 21 20 18 16 14 14 14 15 15 15 15 13

GFSSW_250_spd_108.txt.gz
Wind_Speed
78 83 89 90 96 96 98 99 102 108 107 103 101 98 97 92 96 100 102 99 97 94 91 89 87 86 83 82 82 82 81 80 79 78 76 74 72 74 70 68 72 71 68 67 64
69 72 74 74 83 92 90 89 94 93 101 110 108 102 98 96 94 92 94 98 99 98 97 93 90 91 88 85 86 87 86 86 85 83 80 77 76 77 74 75 78 75 75 75 73
57 62 60 66 69 78 90 84 86 91 88 96 110 106 104 100 95 92 92 89 96 97 98 98 94 95 91 90 88 88 89 89 87 85 84 81 79 79 79 81 77 80 81 80 80
43 47 54 62 64 68 69 80 85 82 87 84 89 101 113 100 98 94 90 87 89 87 89 89 90 94 95 93 92 92 88 88 88 88 87 84 83 82 85 84 81 81 82 83 86
28 38 44 51 54 59 60 65 74 78 79 86 85 85 87 105 106 100 93 89 86 82 83 83 83 85 88 92 94 97 96 95 94 91 90 89 88 88 91 89 85 83 84 84 87
13 22 33 37 44 50 54 59 66 73 75 80 84 87 85 85 105 103 97 93 88 84 80 77 80 79 80 81 84 92 92 88 93 95 95 94 95 95 95 93 92 90 91 92 88
9 14 26 32 35 40 49 55 56 62 77 88 90 91 86 84 82 97 101 94 89 85 80 78 79 76 75 73 74 78 85 89 89 88 89 93 96 100 98 96 100 101 99 98 97
6 4 18 25 27 34 46 53 50 55 67 85 89 92 94 88 72 68 77 92 93 85 83 80 79 74 73 71 71 73 74 75 80 81 80 86 88 97 97 95 98 103 102 103 105
13 8 10 19 26 38 47 54 53 52 62 75 94 98 95 77 64 59 60 66 79 86 82 80 79 77 74 73 72 72 70 71 71 71 71 77 78 84 87 87 90 93 99 103 106
25 18 13 13 22 35 43 52 54 52 55 66 84 94 82 70 55 53 56 58 64 81 84 83 80 79 79 77 75 74 73 74 72 71 72 73 74 82 83 85 87 91 94 98 102
36 30 25 21 23 31 35 46 51 50 58 66 63 77 80 64 45 44 46 53 53 66 83 82 79 78 80 79 78 77 76 75 75 74 75 77 76 77 78 76 80 85 90 95 101
45 41 34 28 25 28 37 49 49 46 44 49 58 69 63 51 38 43 47 52 53 53 68 77 78 78 80 80 79 79 80 80 79 77 77 80 80 80 76 78 82 87 89 94 99
54 50 47 37 31 28 33 38 36 39 41 48 55 57 46 41 40 43 48 47 45 43 49 57 67 78 81 79 80 81 83 84 83 82 82 82 84 86 84 87 87 83 81 82 85
64 55 47 43 33 28 29 27 27 29 33 35 35 35 35 39 41 41 42 42 40 39 40 42 46 53 61 64 68 72 75 77 79 82 83 81 81 86 87 81 76 75 73 72 72
70 62 56 42 33 26 24 25 27 29 31 34 33 33 33 34 35 35 35 36 37 40 42 44 47 51 55 59 62 63 65 68 68 70 71 69 69 75 72 68 68 67 64 66 60
76 69 62 58 52 34 24 23 24 24 23 25 26 26 27 28 28 28 31 33 35 38 40 41 43 44 46 49 52 54 56 56 55 57 58 59 61 58 55 56 57 54 54 54 48
86 78 68 64 60 56 46 35 30 29 21 18 16 14 17 16 18 21 23 26 29 30 31 33 33 36 39 42 43 44 44 44 44 43 43 45 45 45 45 45 46 46 45 43 37
96 90 82 74 68 60 55 50 48 42 37 30 25 21 17 13 10 11 13 16 19 23 23 26 28 29 29 29 29 30 30 31 33 32 33 34 33 33 34 36 34 35 36 36 33
88 89 91 90 85 77 70 62 57 51 46 41 36 29 24 19 14 10 6 5 7 9 11 12 13 12 14 15 16 18 21 22 22 23 24 23 23 21 19 15 18 19 22 24 24
78 79 76 80 83 84 86 85 81 78 74 70 66 61 55 49 43 35 29 24 19 14 9 5 4 3 0 1 3 6 7 9 13 15 14 12 8 9 11 13 15 15 14 12 14
77 72 69 69 68 74 76 73 72 71 71 69 67 64 61 59 58 57 55 53 50 46 41 36 31 25 21 18 16 15 16 13 9 7 5 5 8 11 15 14 13 17 16 13 11
84 75 69 63 64 67 63 62 61 60 60 59 58 57 56 55 54 52 51 50 49 48 47 45 43 40 38 36 36 35 32 29 26 24 20 15 14 15 18 18 14 18 19 18 18
87 86 79 75 72 68 66 62 60 57 57 58 59 57 55 53 50 48 46 45 45 44 42 40 39 37 35 34 33 33 31 30 29 27 26 25 23 24 25 25 22 21 21 20 20
75 79 80 83 87 87 84 75 69 68 68 69 70 70 70 69 62 57 51 46 41 38 36 34 33 31 30 28 27 27 27 26 25 23 22 22 22 23 23 23 25 26 27 25 24
70 71 74 75 75 76 80 79 78 82 82 82 80 77 75 78 75 72 70 69 68 62 50 40 33 27 24 23 22 22 22 22 23 25 24 22 22 22 20 19 20 20 20 20 21
59 62 63 67 69 69 71 74 74 74 76 75 76 74 75 73 74 74 71 70 69 66 62 61 54 47 39 30 24 20 19 18 18 19 22 23 24 23 23 22 22 21 19 19 18
51 53 55 57 61 63 66 68 66 67 70 70 68 66 66 68 69 67 67 65 66 66 66 67 64 57 54 53 48 40 31 25 22 21 18 17 18 21 22 24 25 25 25 24 23

GFSSW_250_spd_111.txt.gz
Wind_Speed
74 85 100 112 110 104 100 94 94 105 110 111 108 108 106 105 102 101 101 96 94 91 90 88 86 86 82 81 81 80 75 76 73 70 71 69 67 66 67 69 66 64 64 63 64
64 75 81 88 100 106 101 100 96 95 107 109 107 107 103 101 100 98 102 100 98 96 94 92 88 88 88 85 82 82 81 77 78 78 76 76 75 74 74 75 71 71 69 69 69
54 59 68 76 80 86 95 95 103 99 98 99 106 109 107 99 98 99 97 99 102 102 99 93 90 87 87 83 84 85 84 84 81 81 79 79 79 80 82 79 77 78 73 73 72
42 48 52 57 63 73 75 88 98 102 100 95 92 105 107 106 102 97 94 94 92 93 96 94 96 93 91 88 87 87 87 85 85 85 85 83 84 86 88 84 84 83 82 80 78
29 37 41 46 49 53 61 69 85 99 104 98 96 91 97 104 102 98 95 93 92 87 87 87 90 93 92 92 92 91 88 88 89 88 88 89 88 88 90 87 86 86 86 84 82
13 25 31 33 40 47 55 60 69 84 103 101 91 92 88 79 98 100 98 95 91 91 86 82 81 83 88 89 91 91 93 93 90 91 92 92 92 92 92 92 89 87 91 92 89
4 12 23 30 35 41 47 61 65 68 85 94 95 94 87 82 81 94 98 94 92 88 87 86 82 80 80 81 83 88 90 93 95 93 93 96 98 98 97 98 96 96 95 95 96
11 2 11 15 20 26 39 53 61 61 69 82 94 92 89 83 70 75 92 97 93 89 88 86 83 83 84 81 81 81 83 87 86 88 90 94 94 94 95 97 98 99 99 99 102
21 14 7 10 24 31 37 49 55 51 55 69 89 97 91 79 70 70 69 83 92 94 90 85 83 81 81 80 79 79 79 80 78 81 81 84 85 91 92 93 97 101 103 106 107
36 27 22 16 15 29 39 46 44 43 49 60 78 88 84 81 76 66 64 58 56 62 81 90 85 84 84 83 81 81 79 80 79 77 78 80 77 81 79 81 84 88 90 94 99
47 41 32 26 22 28 39 42 43 44 49 60 76 90 86 83 80 61 55 52 50 52 58 74 87 88 86 83 82 79 81 82 81 79 80 79 79 81 80 81 82 83 86 88 92
53 47 43 35 29 30 37 39 34 35 37 52 64 77 83 75 67 54 52 54 52 47 50 52 56 67 78 87 89 84 81 81 83 80 80 84 85 86 86 85 85 86 86 88 90
60 54 49 41 33 33 36 33 27 24 27 34 51 62 68 68 45 47 45 48 50 47 46 50 51 50 59 71 77 84 88 86 85 85 85 85 88 91 87 89 89 87 87 86 86
57 53 50 46 36 31 27 24 18 14 22 26 27 39 31 24 30 34 36 39 44 48 48 47 48 48 50 55 65 79 83 84 86 86 86 82 79 85 86 83 79 78 78 83 88
55 53 48 45 38 32 28 24 23 21 15 13 15 18 22 29 33 34 37 36 41 44 44 45 46 46 44 47 52 60 69 76 79 80 78 74 73 75 75 75 75 76 77 76 77
66 57 52 48 45 42 39 36 29 25 25 24 22 21 21 27 37 37 37 35 36 40 43 42 41 40 41 43 46 49 52 56 60 64 66 68 69 69 66 65 65 64 64 65 64
74 67 60 53 47 43 42 39 37 34 25 22 19 19 20 23 27 29 31 33 35 36 36 37 39 41 44 45 46 47 49 52 52 53 50 51 53 52 52 52 52 53 55 57 56
86 83 75 66 60 57 52 46 43 37 34 29 24 19 15 13 14 17 21 24 26 29 31 33 34 35 34 36 36 36 37 38 39 40 40 39 38 37 38 39 40 45 48 46 44
77 79 79 78 76 74 69 64 55 49 43 37 32 26 21 17 11 7 5 6 8 10 11 12 15 16 18 19 20 21 23 20 21 22 22 23 25 25 28 28 27 24 25 26 28
77 74 70 71 71 71 74 73 71 71 70 67 64 58 52 46 41 35 30 25 21 17 14 12 11 9 6 4 4 5 3 4 5 5 9 12 13 15 19 21 16 18 21 21 24
87 76 72 67 63 63 68 63 61 60 59 58 57 55 53 51 49 48 46 45 42 40 38 35 34 33 31 30 29 28 27 24 22 20 17 13 12 14 18 19 20 24 26 28 28
83 89 79 73 73 78 74 66 61 57 55 54 52 50 48 45 44 42 41 38 36 34 32 30 28 27 26 25 25 25 24 22 19 19 20 19 19 20 19 20 22 25 28 29 30
77 78 81 80 79 77 77 75 70 70 71 72 71 69 69 68 64 57 53 50 46 41 37 33 32 29 27 26 25 24 22 19 19 18 18 20 19 20 22 24 25 28 30 31 33
65 68 70 72 74 73 72 73 74 74 73 72 72 72 71 70 68 65 63 61 60 59 57 56 53 49 44 40 37 34 32 29 26 23 21 18 17 16 17 19 21 24 25 26 27
54 56 61 62 62 64 66 67 68 68 68 70 69 69 65 65 65 64 62 61 60 59 59 57 53 52 49 46 45 44 40 34 30 29 28 26 25 22 22 22 21 21 21 23 24
48 48 49 53 55 57 58 57 58 60 63 62 62 64 61 62 62 62 61 60 60 59 57 54 51 50 50 49 49 47 43 42 39 36 33 29 26 28 28 28 28 27 26 25 24
38 42 44 43 46 48 49 52 54 54 55 55 57 57 57 56 56 57 56 56 56 55 53 53 52 52 49 46 45 44 44 45 43 38 38 40 35 30 25 24 28 30 33 33 35

GFSSW_250_spd_114.txt.gz
Wind_Speed
67 75 79 96 103 98 94 92 93 104 106 106 111 113 112 112 108 103 99 97 93 89 88 86 83 81 78 77 75 72 74 76 73 68 70 67 66 66 64 62 60 60 58 56 58
54 60 69 81 93 105 102 98 94 94 102 108 106 110 108 111 109 106 103 101 96 94 91 87 84 82 83 82 80 80 78 75 73 77 75 71 69 70 70 68 66 66 65 63 63
42 48 57 68 79 94 106 103 98 95 93 95 104 107 107 105 106 106 104 102 100 95 95 91 88 85 81 83 84 82 80 82 78 77 78 79 78 74 74 72 71 73 72 72 72
32 37 45 58 67 78 90 103 101 96 91 88 91 94 101 103 103 105 102 99 99 102 100 99 92 86 84 84 84 85 83 81 83 81 79 78 78 81 79 75 75 78 77 78 80
23 26 33 44 54 61 74 87 103 100 94 90 93 91 88 87 105 102 100 98 95 94 95 94 93 96 94 89 86 86 85 83 82 83 85 85 84 84 82 83 82 82 84 84 83
11 16 23 32 40 50 60 73 87 98 100 101 100 94 82 74 92 100 98 96 95 93 91 88 92 92 90 90 89 89 88 87 86 84 83 84 84 85 84 86 86 86 86 87 88
5 6 9 19 31 40 50 59 70 79 102 105 106 94 81 75 74 93 97 95 94 93 93 94 91 87 84 86 90 90 92 92 90 90 88 88 87 86 89 89 88 90 91 92 93
19 13 4 8 23 40 51 58 64 69 82 99 99 94 91 80 73 70 85 91 92 92 88 89 89 88 80 77 79 81 83 84 84 87 89 91 91 92 95 94 96 96 95 96 98
31 26 18 16 19 29 45 53 60 64 68 82 106 102 90 79 73 72 67 73 87 91 89 86 86 85 86 84 79 77 76 76 78 78 82 85 87 92 90 92 94 97 96 96 98
40 33 26 20 23 28 34 42 49 55 58 67 72 84 82 83 79 72 64 58 64 80 88 86 86 84 83 81 83 84 81 81 80 79 85 86 88 93 90 89 92 94 95 96 98
50 42 33 26 28 33 34 36 46 50 51 48 58 68 81 80 73 68 67 60 57 59 69 78 84 82 81 79 80 80 81 80 82 80 84 87 86 88 88 88 86 86 88 91 95
60 51 42 34 30 32 36 38 43 43 40 49 53 58 70 81 77 72 61 57 53 53 56 53 65 79 83 81 80 80 81 81 83 85 86 88 88 88 89 89 90 90 89 92 92
63 60 54 49 43 39 36 31 27 27 28 29 37 45 54 62 64 60 57 57 54 49 46 45 40 44 52 60 69 78 84 87 87 88 90 91 91 92 93 93 94 94 92 93 94
65 60 57 53 47 43 40 32 25 23 18 17 25 30 42 50 67 50 49 48 46 42 40 41 40 40 43 45 46 50 54 62 71 77 81 83 85 89 92 91 88 88 88 88 87
65 60 58 56 53 50 48 45 40 34 27 17 10 6 2 26 40 40 41 38 41 41 40 41 41 42 40 43 47 51 53 56 59 61 64 67 69 75 76 76 75 73 74 75 78
71 66 60 57 55 53 52 51 49 45 38 34 29 25 20 10 10 23 27 29 30 34 35 35 38 39 41 46 48 50 53 55 54 54 53 56 57 58 59 59 60 62 64 65 63
80 71 64 58 56 52 52 50 50 46 41 37 33 29 27 27 28 29 35 42 43 38 35 36 37 40 44 47 48 49 51 53 53 54 55 55 52 51 51 50 50 49 48 47 44
82 82 78 67 61 58 56 55 50 41 37 33 30 26 24 24 28 31 33 35 34 34 35 37 40 43 44 45 46 48 49 45 42 42 42 41 40 39 35 32 30 27 28 29 29
80 74 74 74 74 72 68 60 54 49 46 42 35 27 21 17 17 19 22 25 25 28 30 31 31 31 30 29 28 27 27 25 25 25 24 22 21 18 12 12 16 15 14 17 19
95 86 75 69 67 67 72 67 65 63 60 56 51 45 38 31 26 19 15 13 11 10 8 7 7 6 6 7 5 6 6 8 5 2 1 5 8 8 8 8 9 11 13 16 20
89 88 85 81 80 78 77 65 61 58 57 56 54 52 50 48 45 42 40 37 34 31 29 26 24 22 19 18 18 17 16 16 16 15 14 14 12 10 10 12 14 15 17 19 20
77 77 78 79 79 83 80 74 75 74 73 74 71 66 63 58 53 48 44 39 36 32 30 27 25 24 24 24 23 21 20 19 18 17 16 14 12 13 15 17 21 23 25 26 29
65 68 72 73 74 76 75 73 69 69 68 66 65 62 60 58 54 51 49 48 47 45 44 42 41 39 39 39 38 38 37 36 31 26 22 20 20 20 21 23 23 25 28 30 32
56 58 61 65 63 63 66 67 68 66 65 63 61 60 60 60 59 57 54 51 49 48 47 47 47 47 45 43 44 43 42 39 37 34 35 34 33 32 29 25 24 24 25 26 28
50 50 51 52 56 57 55 57 59 59 58 59 59 60 60 60 59 58 56 55 56 54 53 52 52 53 54 52 52 52 49 48 45 43 42 40 39 38 36 35 33 30 29 28 28
39 42 44 44 45 47 49 50 53 53 55 54 52 53 55 54 55 56 54 53 53 53 53 51 52 54 54 53 55 56 56 56 53 53 52 50 48 46 43 41 40 38 38 38 37
30 32 37 36 37 40 39 42 43 45 47 49 48 48 48 48 48 48 49 50 51 53 52 52 52 50 52 53 52 54 55 57 57 59 58 59 59 57 53 50 47 44 43 43 42

GFSSW_250_spd_117.txt.gz
Wind_Speed
64 72 82 91 93 91 88 85 87 98 107 107 104 108 107 105 101 99 101 97 94 90 88 83 82 78 75 75 71 69 67 63 60 67 69 67 64 61 59 59 58 57 55 55 57
50 58 71 84 91 95 93 88 85 88 96 105 110 105 102 104 103 104 101 100 97 91 87 86 85 83 81 76 74 71 70 70 70 64 64 72 72 69 65 64 63 63 63 62 63
37 50 60 68 82 90 97 96 90 87 89 87 95 107 101 104 107 104 104 101 97 95 94 88 87 86 84 81 78 75 76 79 72 71 67 65 72 72 71 71 71 68 66 68 66
27 35 49 57 71 81 95 99 96 93 88 86 87 95 105 102 103 102 104 106 102 98 96 93 90 87 84 83 81 80 79 77 76 73 71 72 73 73 72 70 71 74 74 74 76
11 25 36 49 61 69 82 96 103 99 93 89 84 86 84 104 104 103 102 102 101 102 99 95 93 90 88 86 84 82 83 81 80 75 76 77 77 78 78 79 78 77 77 78 79
3 12 23 33 48 58 67 83 95 102 99 91 85 80 75 91 102 98 98 99 99 98 97 97 95 94 89 88 87 85 82 82 79 78 77 77 79 81 81 82 83 84 83 81 81
8 6 10 22 33 47 59 71 83 92 96 93 88 81 76 73 88 95 94 93 94 94 94 93 96 93 90 89 89 86 84 84 81 80 79 79 79 82 83 85 84 84 84 88 89
18 13 14 16 28 38 55 65 73 79 89 90 91 87 77 72 69 76 85 90 90 89 87 88 92 93 87 83 84 88 87 87 89 88 89 90 91 88 88 88 89 88 87 86 88
29 22 17 18 20 34 52 59 61 68 76 90 93 88 80 70 62 64 69 77 86 87 87 86 85 86 87 87 81 77 83 86 87 87 89 87 88 89 90 91 94 93 92 92 94
43 31 24 25 22 26 35 47 55 61 64 82 91 87 77 66 63 62 60 59 59 65 78 82 81 82 84 84 84 84 82 79 82 85 87 84 84 90 91 90 92 93 95 97 97
55 45 32 29 26 28 32 38 44 49 62 69 73 74 71 66 65 64 61 55 51 47 55 69 79 81 79 79 81 84 86 86 86 87 88 88 85 88 89 87 88 89 91 93 97
63 60 50 38 31 26 27 35 43 49 48 54 56 55 56 52 62 65 62 59 54 48 43 48 58 68 74 76 77 78 81 81 82 82 83 87 86 88 92 93 92 91 92 94 94
62 61 59 53 45 35 27 27 31 35 34 35 40 48 59 52 54 65 65 59 53 46 44 40 39 44 50 55 58 63 71 79 81 82 82 84 84 87 88 89 91 93 93 94 95
65 61 57 53 51 46 39 34 29 26 24 26 31 36 41 45 46 58 60 54 51 49 46 42 37 35 38 42 45 51 58 66 72 77 80 83 84 89 91 92 92 92 92 91 89
75 66 62 55 52 53 52 48 44 39 28 23 11 16 24 24 34 42 57 62 56 50 43 41 39 36 36 39 41 43 46 50 54 57 61 63 63 63 69 71 70 69 68 66 63
80 74 68 65 61 57 54 51 47 47 40 41 33 28 15 18 21 31 40 45 44 41 38 37 37 35 36 38 42 45 47 50 54 55 54 57 53 56 54 54 53 56 58 56 54
91 86 74 69 65 61 59 54 49 47 39 37 33 30 31 29 28 28 30 33 36 34 32 30 32 35 38 40 45 47 49 48 47 48 50 50 48 51 54 51 49 47 45 42 38
91 83 81 80 74 66 60 53 49 44 41 39 34 30 26 26 32 35 36 35 31 27 22 27 30 31 35 37 39 42 44 44 44 46 46 44 43 43 41 37 34 30 25 18 13
97 94 85 76 75 75 73 66 57 51 45 40 34 28 22 18 16 15 17 17 19 19 21 23 24 26 29 32 35 34 30 28 28 27 25 23 22 21 18 14 10 5 6 8 12
87 90 86 84 81 74 74 65 64 63 59 54 47 38 29 22 17 13 9 7 4 7 12 14 14 11 3 2 6 7 8 11 9 7 5 5 4 2 2 3 7 9 12 15 17
80 79 78 79 81 82 80 74 71 66 59 59 53 52 50 47 42 37 34 30 27 26 24 22 18 16 15 13 14 14 13 11 11 11 13 13 14 14 14 14 15 17 18 20 22
69 71 74 74 74 77 75 72 71 69 68 66 64 62 60 57 54 49 46 44 43 42 41 38 37 36 35 34 35 35 35 35 34 34 33 31 31 29 29 28 27 26 27 28 29
59 61 63 66 71 70 70 69 71 72 70 70 68 68 66 63 61 58 56 55 53 51 51 50 50 50 50 52 54 54 53 54 56 53 49 46 42 39 36 34 32 31 31 31 32
49 51 52 55 60 63 64 65 63 64 63 63 63 64 63 61 60 59 56 56 56 56 55 55 57 59 57 58 57 56 54 53 53 56 56 52 50 47 47 44 41 39 37 36 35
43 42 45 44 46 50 54 54 56 56 57 57 56 56 58 58 56 55 55 56 53 53 53 54 52 51 53 52 54 54 53 53 53 54 54 53 55 51 49 48 48 48 43 40 39
32 36 33 38 39 39 41 43 44 49 50 49 50 47 46 49 53 50 50 50 50 51 49 51 51 53 51 51 53 52 53 52 51 51 53 54 53 54 55 53 52 55 53 54 52
21 28 32 28 32 35 31 32 35 40 37 40 42 42 43 41 41 44 44 46 47 47 46 46 48 49 49 51 51 52 52 54 54 55 56 57 57 57 58 58 57 56 58 59 59